     2              OBSERVATION DATA    GPS                 RINEX VERSION / TYPE
ASRINEXO V2.7.2 UX SOPAC 02-MAR- 0 15:42                    PGM / RUN BY / DATE
                                                            COMMENT
Original Marker Name: JPL                                   COMMENT
Campaign Name: HPGN 1991                                    COMMENT
4-Character Station Name: 0408                              COMMENT
6-Character Antenna Code: ASHL12                            COMMENT
Vertical Measurement Point: BAS                             COMMENT
Vertical Offset to Rinex Ref. Point: 0.0000                 COMMENT
Radial Measurement Point: RRP                               COMMENT
Radial Offset to Rinex Ref. Point: 0.0000                   COMMENT
Antenna Height from Field Measurement: 1.5890 m             COMMENT
Additional Antenna Identification Info.:                    COMMENT
Original Ashtech L1/L2                                      COMMENT
Original XYZ: -2707717.5100 -4257637.2600 3888398.7200      COMMENT
New XYZ position is based on association with SCEC monument COMMENT
E1F8D1P5+0011. Position of that monument is believed to be  COMMENT
valid to within 1 m horizontally; vertical accuracy         COMMENT
should be no worse than 3-times this value.                 COMMENT
                                                            COMMENT
Revised Rinex header created by UCSD GPS archive for        COMMENT
GSAC on 17-Mar-2000 (2000:077) 22:23:31 GMT                 COMMENT
For assistance contact dagnew@ucsd.edu or hjohnson@ucsd.edu COMMENT
                                                            COMMENT
JPL 7252                                                    MARKER NAME
PTD CALIF DEPT TRANSPORTATION                               OBSERVER / AGENCY
619 ASHTECH L-XII 6A                                        REC # / TYPE / VERS
617 ASHTECH GEODETIC L                                      ANT # / TYPE
 -2707704.9856 -4257609.3548  3888374.2802                  APPROX POSITION XYZ
        1.5890        0.0000        0.0000                  ANTENNA: DELTA H/E/N
     1     2     0                                          WAVELENGTH FACT L1/2
     3    C1    L1    L2                                    # / TYPES OF OBSERV
     0                                                      INTERVAL
  1991     7    30     0    22   15.000000                  TIME OF FIRST OBS
  1991     7    30     6    20    0.000000                  TIME OF LAST OBS
                                                            END OF HEADER
 91  7 30  0 22 15.0000000  0  4 20 17 03 16
  22382799.914           0.301 2         0.329 1
  20587973.046           0.873 3         0.072 2
  20339952.342           0.159 3         0.359 2
  22034185.048           0.997 3         0.144 1
 91  7 30  0 22 30.0000000  0  4 20 17 03 16
  22392338.709       50163.442 2     39088.394 1
  20584072.443      -20502.245 3    -15976.340 2
  20337074.034      -15140.143 3    -11797.405 2
  22040871.021       35127.525 3     27371.442 1
 91  7 30  0 22 45.0000000  0  4 20 17 03 16
  22701714.632      100480.050 2     78296.022 1
  20879999.081      -40825.419 3    -31812.544 2
  20634016.667      -30110.751 3    -23462.797 2
  22347386.625       70451.719 3     54896.764 1
 91  7 30  0 23  0.0000000  0  4 20 17 03 16
  22711312.784      150955.292 2    117627.303 1
  20876164.134      -60972.488 3    -47511.529 2
  20631198.021      -44914.207 3    -34997.939 2
  22354145.444      105976.680 3     82578.504 1
 91  7 30  0 23 15.0000000  0  4 20 17 03 16
  22720949.012      201587.604 2    157080.944 1
  20872364.262      -80939.988 3    -63070.576 2
  20628416.840      -59547.239 3    -46400.280 2
  22360943.839      141701.706 3    110416.178 1
 91  7 30  0 23 30.0000000  0  4 20 17 03 16
  22730613.126      252373.899 2    196654.583 1
  20868600.372     -100730.433 3    -78491.669 2
  20625662.349      -74012.745 3    -57672.095 2
  22367780.006      177623.905 2    138407.511 1
 91  7 30  0 23 45.0000000  0  4 20 17 03 16
  22740306.617      303314.602 2    236348.554 1
  20864867.351     -120343.411 3    -93774.472 2
  20622942.933      -88309.470 3    -68812.391 2
  22374659.047      213743.826 2    166552.871 1
 91  7 30  0 24  0.0000000  0  4 20 17 03 16
  22750031.283      354405.527 2    276159.563 1
  20861169.109     -139782.816 3   -108922.030 2
  20620252.293     -102440.725 3    -79823.745 2
  22381563.566      250057.164 3    194848.941 1
 91  7 30  0 24 15.0000000  0  4 20 17 03 16
  22759783.233      405645.927 2    316087.043 1
  20857503.255     -159048.881 3   -123934.506 2
  20617593.735     -116407.202 3    -90706.689 2
  22388510.655      286563.290 3    223295.245 1
 91  7 30  0 24 30.0000000  0  4 20 17 03 16
  22769566.654      457035.065 2    356130.433 1
  20853865.870     -178142.095 3   -138812.312 2
  20614970.252     -130208.806 3   -101461.176 2
  22395495.523      323261.553 3    251891.271 1
 91  7 30  0 24 45.0000000  0  4 20 17 03 16
  22779368.371      508565.988 2    396284.308 1
  20850265.358     -197069.076 3   -153560.566 2
  20612374.052     -143851.738 3   -112092.006 2
  22402517.561      360145.250 2    280631.785 1
 91  7 30  0 25  0.0000000  0  4 20 17 03 16
  22789198.864      560238.961 2    436548.861 1
  20846694.834     -215829.068 3   -168178.703 2
  20609805.432     -157335.447 3   -122598.782 2
  22409567.475      397214.552 3    309516.958 1
 91  7 30  0 25 15.0000000  0  5 20 17 03 16 23
  22799064.432      612052.220 2    476922.707 1
  20843156.680     -234423.539 3   -182667.871 2
  20607269.785     -170661.188 3   -132982.462 2
  22416659.366      434467.717 3    338545.364 1
  23694421.292           0.130 2         0.377 1
 91  7 30  0 25 30.0000000  0  5 20 17 03 16 23
  22808945.295      664001.501 2    517402.612 1
  20839648.515     -252856.497 3   -197031.178 2
  20604764.719     -183832.420 3   -143245.736 2
  22423779.744      471900.691 3    367713.903 1
  23684335.075      -52957.072 2    -41264.734 1
 91  7 30  0 25 45.0000000  0  5 20 17 03 16 23
  22818856.137      716091.484 2    557992.084 1
  20836173.321     -271122.743 3   -211264.585 2
  20602289.929     -196843.605 3   -153384.315 2
  22430937.884      509518.170 2    397026.191 1
  23674287.231     -105786.237 2    -82430.134 1
 91  7 30  0 26  0.0000000  0  5 20 17 03 16 23
  22828796.950      768314.999 2    598685.654 1
  20832729.303     -289229.232 3   -225373.506 2
  20599843.627     -209701.693 3   -163403.595 2
  22438130.803      547313.160 2    426476.808 1
  23664256.174     -158494.201 2   -123501.099 1
 91  7 30  0 26 15.0000000  0  5 20 17 03 16 23
  22838765.352      820672.102 2    639483.301 1
  20829313.466     -307175.732 3   -239357.743 2
  20597423.700     -222406.167 3   -173303.169 2
  22445358.203      585285.753 2    456065.835 1
  23654250.306     -211080.049 2   -164476.861 1
 91  7 30  0 26 30.0000000  0  5 20 17 03 16 23
  22848748.142      873152.703 2    680377.157 1
  20825926.711     -324971.790 3   -253224.779 2
  20595033.151     -234966.464 3   -183090.385 2
  22452614.082      623425.795 2    485785.310 1
  23644268.110     -263553.195 2   -205364.867 1
 91  7 30  0 26 45.0000000  0  5 20 17 03 16 23
  22858757.613      925755.245 2    721366.031 1
  20822567.535     -342618.670 3   -266975.560 2
  20592670.793     -247383.510 3   -192766.004 2
  22459904.129      661731.505 2    515633.874 1
  23634309.611     -315914.556 2   -246165.781 1
 91  7 30  0 27  0.0000000  0  5 20 17 03 16 23
  22868790.162      978480.859 2    762450.855 1
  20819238.042     -360114.858 3   -280608.924 2
  20590335.710     -259655.311 3   -202328.436 2
  22467226.860      700204.551 2    545612.868 1
  23624365.491     -368162.550 2   -286878.287 1
 91  7 30  0 27 15.0000000  0  5 20 17 03 16 23
  22878849.401     1031331.824 2    803633.297 1
  20815937.927     -377457.773 3   -294122.849 2
  20588027.901     -271779.466 3   -211775.819 2
  22474580.172      738847.138 2    575723.972 1
  23614445.356     -420294.274 2   -327500.196 1
 91  7 30  0 27 30.0000000  0  5 20 17 03 16 23
  22888924.529     1084298.575 2    844905.967 1
  20812665.688     -394656.527 3   -307524.449 2
  20585746.180     -283764.602 3   -221114.866 2
  22481962.862      777649.859 2    605959.817 1
  23604541.119     -472318.455 2   -368038.321 1
 91  7 30  0 27 45.0000000  0  5 20 17 03 16 23
  22899027.830     1137379.391 2    886267.601 1
  20809424.040     -411712.523 3   -320814.798 2
  20583492.642     -295611.977 3   -230346.590 2
  22489374.632      816610.760 2    636318.947 1
  23594659.654     -524236.007 2   -408493.400 1
 91  7 30  0 28  0.0000000  0  5 20 17 03 16 23
  22909153.327     1190570.692 2    927715.199 1
  20806197.966     -428629.408 3   -333996.757 2
  20581264.589     -307324.822 3   -239473.460 2
  22496815.475      855726.262 3    666798.514 1
  23584800.080     -576050.294 2   -448868.413 1
 91  7 30  0 28 15.0000000  0  5 20 17 03 16 23
  22919292.602     1243873.910 2    969250.088 1
  20803009.078     -445405.418 3   -347068.938 2
  20579061.709     -318900.968 3   -248493.831 2
  22504291.105      894998.060 2    697399.899 1
  23574966.891     -627759.132 2   -489160.869 1
 91  7 30  0 28 30.0000000  0  5 20 17 03 16 23
  22929457.371     1297285.399 2   1010869.324 1
  20799840.267     -462043.360 3   -360033.540 2
  20576885.221     -330343.262 3   -257409.899 2
  22511794.306      934422.794 2    728120.450 1
  23565140.290     -679365.363 2   -529373.342 1
 91  7 30  0 28 45.0000000  0  5 20 17 03 16 23
  22939647.016     1350802.028 2   1052570.435 1
  20796701.740     -478545.984 3   -372892.690 2
  20574733.008     -341654.215 3   -266223.616 2
  22519326.291      973997.357 2    758957.722 1
  23555343.371     -730871.411 2   -569507.752 1
 91  7 30  0 29  0.0000000  0  5 20 17 03 16 23
  22949846.249     1404426.863 2   1094355.935 1
  20793587.496     -494910.279 3   -385644.059 2
  20572605.084     -352830.579 3   -274932.467 2
  22526883.465     1013724.349 2    789913.834 1
  23545551.251     -782273.748 2   -609561.278 1
 91  7 30  0 29 15.0000000  0  5 20 17 03 16 23
  22960072.173     1458185.733 2   1136245.884 1
  20790505.936     -511109.745 3   -398266.984 2
  20570509.235     -363845.558 3   -283515.558 2
  22534477.207     1053629.826 2    821008.980 1
  23535796.309     -833545.781 2   -649513.374 1
 91  7 30  0 29 30.0000000  0  5 20 17 03 16 23
  22970322.980     1512049.988 2   1178217.931 1
  20787445.648     -527172.994 3   -410783.769 2
  20568436.768     -374727.488 3   -291994.973 2
  22542101.224     1093685.237 2    852220.981 1
  23526061.748     -884715.514 2   -689385.655 1
 91  7 30  0 29 45.0000000  0  5 20 17 03 16 23
  22980593.864     1566016.408 2   1220269.606 1
  20784416.551     -543102.576 3   -423196.400 2
  20566391.280     -385478.794 3   -300372.611 2
  22549751.330     1133887.753 2    883547.597 1
  23516343.373     -935785.609 2   -729180.354 1
 91  7 30  0 30  0.0000000  0  5 20 17 03 16 23
  22990886.640     1620088.398 2   1262403.499 1
  20781412.627     -558894.811 3   -435502.019 2
  20564371.880     -396095.463 3   -308645.336 2
  22557431.712     1174240.756 2    914991.468 1
  23506647.186     -986751.811 2   -768894.105 1
 91  7 30  0 30 15.0000000  0  5 20 17 03 16 23
  23001200.704     1674266.413 2   1304620.058 1
  20778434.486     -574549.187 3   -447700.204 2
  20562375.566     -406576.662 3   -316812.489 2
  22565137.580     1214744.303 3    946552.614 1
  23496962.394    -1037613.401 2   -808526.366 1
 91  7 30  0 30 30.0000000  0  5 20 17 03 16 23
  23011523.450     1728546.986 2   1346916.481 1
  20775477.939     -590068.693 3   -459793.294 2
  20560406.527     -416925.339 3   -324876.395 2
  22572871.629     1255395.398 2    978228.794 1
  23487311.175    -1088373.049 2   -848079.103 1
 91  7 30  0 30 45.0000000  0  5 20 17 03 16 23
  23021872.293     1782931.222 2   1389293.720 1
  20772553.161     -605451.987 3   -471780.245 2
  20558464.170     -427139.736 3   -332835.647 2
  22580636.549     1296195.320 2   1010020.896 1
  23477671.649    -1139028.874 2   -887550.983 1
 91  7 30  0 31  0.0000000  0  5 20 17 03 16 23
  23032236.414     1837413.689 2   1431747.484 1
  20769647.874     -620704.154 3   -483665.033 2
  20556545.797     -437224.530 3   -340693.921 2
  22588430.854     1337138.444 2   1041924.629 1
  23468056.701    -1189585.736 2   -926945.722 1
 91  7 30  0 31 15.0000000  0  5 20 17 03 16 23
  23042634.719     1891998.500 2   1474280.994 1
  20766773.160     -635820.783 3   -495444.190 2
  20554651.410     -447175.216 3   -348447.699 2
  22596247.042     1378228.575 2   1073942.880 1
  23458455.251    -1240039.206 2   -966259.955 1
 91  7 30  0 31 30.0000000  0  5 20 17 03 16 23
  23053033.313     1946686.201 2   1516894.633 1
  20763920.040     -650800.750 3   -507116.872 2
  20552783.705     -456990.569 3   -356096.010 2
  22604095.007     1419466.552 2   1106076.363 1
  23448869.986    -1290387.837 2  -1005492.440 1
 91  7 30  0 31 45.0000000  0  5 20 17 03 16 23
  23063463.395     2001474.673 2   1559586.845 1
  20761097.189     -665645.872 3   -518684.478 2
  20550941.782     -466672.119 3   -363640.060 2
  22611970.256     1460850.687 2   1138323.693 1
  23439310.800    -1340632.962 2  -1044644.256 1
 91  7 30  0 32  0.0000000  0  5 20 17 03 16 23
  23073902.168     2056364.404 2   1602357.930 1
  20758295.931     -680355.358 3   -530146.381 2
  20549123.836     -476218.676 3   -371078.928 2
  22619873.084     1502381.377 2   1170685.299 1
  23429756.414    -1390773.493 2  -1083714.648 1
 91  7 30  0 32 15.0000000  0  4 20 17 03 16
  23084369.122     2111355.423 2   1645207.993 1
  20755526.145     -694928.922 3   -541502.372 2
  20547335.878     -485629.592 3   -378412.103 2
  22627807.393     1544058.878 2   1203161.222 1
 91  7 30  0 32 30.0000000  0  4 20 17 03 16
  23094852.262     2166442.549 2   1688132.878 1
  20752774.656     -709371.349 2   -552756.199 2
  20545571.294     -494909.788 2   -385643.429 2
  22635760.888     1585877.855 2   1235747.397 1
 91  7 30  0 32 45.0000000  0  5 20 17 03 16 23
  23105353.097     2221624.177 2   1731131.421 1
  20750051.934     -723683.919 3   -563908.819 2
  20543825.609     -504060.077 4   -392773.507 2
  22643742.862     1627836.478 2   1268442.409 1
  23401250.349      164144.69212    127909.892 1
 91  7 30  0 33  0.0000000  0  5 20 17 03 16 23
  23115878.510     2276901.584 2   1774204.580 1
  20747355.605     -737865.069 3   -574959.046 2
  20542110.794     -513078.606 4   -399800.920 2
  22651753.315     1669936.234 2   1301247.409 1
  23391790.402      114411.226 2     89156.742 1
 91  7 30  0 33 15.0000000  0  5 20 17 03 16 23
  23126410.222     2332273.941 2   1817351.836 1
  20744681.158     -751915.523 3   -585907.425 2
  20540420.863     -521965.711 3   -406725.915 2
  22659794.654     1712176.287 2   1334161.732 1
  23382344.242       64779.097 2     50482.512 1
 91  7 30  0 33 30.0000000  0  5 20 17 03 16 23
  23136965.911     2387740.714 2   1860572.549 1
  20742031.290     -765835.198 3   -596753.894 2
  20538752.814     -530721.258 3   -413548.412 2
  22667861.462     1754556.186 2   1367184.941 1
  23372925.661       15248.491 2     11887.447 1
 91  7 30  0 33 45.0000000  0  5 20 17 03 16 23
  23147537.497     2443299.255 2   1903864.797 1
  20739409.308     -779626.444 3   -607500.290 2
  20537110.251     -539347.283 4   -420269.990 2
  22675950.170     1797073.335 2   1400315.183 1
  23363515.178      -34182.539 2    -26630.065 1
 91  7 30  0 34  0.0000000  0  5 20 17 03 16 23
  23158127.363     2498952.567 2   1947230.911 1
  20736807.707     -793285.784 3   -618143.902 2
  20535495.268     -547840.170 4   -426887.818 2
  22684070.647     1839730.848 3   1433554.795 1
  23354126.271      -83510.449 2    -65067.214 1
 91  7 30  0 34 15.0000000  0  5 20 17 03 16 23
  23168739.712     2554699.210 2   1990669.740 1
  20734233.390     -806814.555 3   -628685.770 2
  20533903.974     -556200.962 4   -433402.713 2
  22692215.108     1882527.279 3   1466902.639 1
  23344750.566     -132736.211 2   -103424.785 1
 91  7 30  0 34 30.0000000  0  5 20 17 03 16 23
  23179362.864     2610534.423 2   2034177.565 1
  20731684.550     -820217.196 3   -639129.358 2
  20532338.454     -564433.754 3   -439817.848 2
  22700387.447     1925458.038 2   1500355.154 1
  23335404.238     -181863.763 2   -141705.821 1
 91  7 30  0 34 45.0000000  0  5 20 17 03 16 23
  23190003.396     2666457.257 2   2077753.740 1
  20729154.303     -833494.071 3   -649474.956 2
  20530796.928     -572538.718 3   -446133.401 2
  22708579.879     1968522.469 2   1533911.834 1
  23326080.988     -230893.289 2   -179910.419 1
 91  7 30  0 35  0.0000000  0  5 20 17 03 16 23
  23200667.311     2722468.479 2   2121398.678 1
  20726656.139     -846644.238 3   -659721.808 2
  20529276.674     -580514.821 3   -452348.541 2
  22716797.788     2011721.236 2   1567573.166 1
  23316766.437     -279823.495 2   -218037.666 1
 91  7 30  0 35 15.0000000  0  5 20 17 03 16 23
  23211339.926     2778568.257 2   2165112.667 1
  20724177.152     -859667.226 3   -669869.543 2
  20527785.509     -588360.812 3   -458462.278 2
  22725044.177     2055054.484 2   1601339.329 1
  23307479.169     -328653.585 2   -256086.873 1
 91  7 30  0 35 30.0000000  0  5 20 17 03 16 23
  23222030.226     2834754.158 2   2208893.831 1
  20721722.447     -872565.152 3   -679919.863 2
  20526316.227     -596079.025 4   -464476.458 2
  22733316.653     2098519.642 2   1635208.228 1
  23298196.395     -377385.294 2   -294059.496 1
 91  7 30  0 35 45.0000000  0  5 20 17 03 16 23
  23232741.510     2891025.725 2   2252741.693 1
  20719291.431     -885337.976 3   -689872.692 2
  20524870.624     -603669.223 3   -470390.891 2
  22741614.903     2142116.429 2   1669179.722 1
  23288951.392     -426018.681 2   -331955.475 1
 91  7 30  0 36  0.0000000  0  5 20 17 03 16 23
  23243466.579     2947377.646 2   2296652.107 1
  20716884.095     -897990.630 3   -699731.869 2
  20523449.610     -611135.892 3   -476209.062 2
  22749932.951     2185839.713 2   1703249.790 1
  23279717.487     -474558.168 2   -369778.260 1
 91  7 30  0 36 15.0000000  0  5 20 17 03 16 23
  23254201.848     3003813.564 2   2340628.016 1
  20714499.846     -910519.249 3   -709494.408 2
  20522055.276     -618475.001 3   -481927.840 2
  22758277.375     2229693.162 2   1737421.305 1
  23270493.476     -522999.556 2   -407524.678 1
 91  7 30  0 36 30.0000000  0  5 20 17 03 16 23
  23264955.702     3060332.580 2   2384668.713 1
  20712138.989     -922924.355 3   -719160.697 2
  20520681.028     -625686.799 3   -487547.415 2
  22766644.876     2273675.932 2   1771693.576 1
  23261290.746     -571343.030 2   -445194.690 1
 91  7 30  0 36 45.0000000  0  5 20 17 03 16 23
  23275726.648     3116935.595 2   2428774.810 1
  20709798.504     -935204.927 4   -728729.940 2
  20519334.962     -632769.940 4   -493066.734 2
  22775039.967     2317788.575 3   1806067.014 1
  23252109.899     -619587.256 2   -482787.439 1
 91  7 30  0 37  0.0000000  0  5 20 17 03 16 23
  23286516.179     3173616.828 2   2472941.893 1
  20707485.905     -947366.303 4   -738206.319 2
  20518009.879     -639729.750 4   -498489.964 2
  22783458.737     2362025.419 2   1840537.280 1
  23242951.239     -667737.382 2   -520306.867 1
 91  7 30  0 37 15.0000000  0  5 20 17 03 16 23
  23297312.306     3230375.646 2   2517169.411 1
  20705196.690     -959408.720 3   -747589.986 2
  20516708.477     -646565.987 3   -503816.879 2
  22791900.899     2406386.153 2   1875104.106 1
  23233808.172     -715793.191 2   -557752.775 1
 91  7 30  0 37 30.0000000  0  5 20 17 03 16 23
  23308130.918     3287215.513 2   2561460.097 1
  20702927.865     -971328.427 3   -756878.037 2
  20515431.060     -653274.524 3   -509044.313 2
  22800369.132     2450874.285 2   1909770.113 1
  23224674.989     -763750.697 2   -595122.066 1
 91  7 30  0 37 45.0000000  0  5 20 17 03 16 23
  23318960.017     3344130.948 2   2605809.687 1
  20700682.118     -983130.576 3   -766074.495 2
  20514178.527     -659860.583 3   -514176.292 2
  22808851.160     2495484.281 2   1944531.105 1
  23215573.296     -811614.823 2   -632418.601 1
 91  7 30  0 38  0.0000000  0  5 20 17 03 16 23
  23329810.405     3401128.410 2   2650223.147 1
  20698459.457     -994808.614 3   -775174.234 2
  20512947.283     -666317.015 3   -519207.269 2
  22817366.770     2540222.711 2   1979392.199 1
  23206479.691     -859378.274 2   -669636.675 1
 91  7 30  0 38 15.0000000  0  5 20 17 03 16 23
  23340671.892     3458201.045 2   2694695.233 1
  20696263.775    -1006368.794 3   -784182.146 2
  20511745.112     -672649.960 3   -524142.021 2
  22825900.956     2585082.860 2   2014348.135 1
  23197408.265     -907047.363 2   -706781.292 1
 91  7 30  0 38 30.0000000  0  5 20 17 03 16 23
  23351544.459     3515349.387 2   2739226.278 1
  20694083.082    -1017810.348 3   -793097.611 2
  20510563.933     -678858.318 3   -528979.688 2
  22834468.123     2630065.269 2   2049399.329 1
  23188360.528     -954620.938 2   -743851.476 1
 91  7 30  0 38 45.0000000  0  5 20 17 03 16 23
  23362431.423     3572570.334 2   2783813.911 1
  20691928.775    -1029136.070 3   -801922.820 2
  20509404.933     -684944.587 3   -533722.244 2
  22843051.484     2675166.755 2   2084543.301 1
  23179320.888    -1002101.586 2   -780849.225 1
 91  7 30  0 39  0.0000000  0  5 20 17 03 16 23
  23373333.377     3629858.774 2   2828454.041 1
  20689791.559    -1040350.711 3   -810661.469 2
  20508270.520     -690913.482 3   -538373.314 2
  22851651.029     2720382.252 2   2119776.146 1
  23170308.531    -1049493.685 2   -817777.955 1
 91  7 30  0 39 15.0000000  0  5 20 17 03 16 23
  23384248.523     3687215.619 2   2873147.582 1
  20687677.718    -1051453.039 3   -819312.616 2
  20507155.888     -696763.392 3   -542931.673 2
  22860278.461     2765712.737 2   2155098.548 1
  23161306.365    -1096795.694 2   -854636.506 1
 91  7 30  0 39 30.0000000  0  5 20 17 03 16 23
  23395178.057     3744643.603 2   2917896.519 1
  20685589.966    -1062439.943 3   -827873.818 2
  20506066.444     -702490.970 3   -547394.713 2
  22868926.570     2811160.891 2   2190512.682 1
  23152317.086    -1144004.413 2   -891422.346 1
 91  7 30  0 39 45.0000000  0  5 20 17 03 16 23
  23406117.179     3802136.183 2   2962695.781 1
  20683518.398    -1073317.703 3   -836349.957 2
  20504998.587     -708102.433 3   -551767.273 2
  22877596.266     2856720.467 2   2226013.647 1
  23143349.393    -1191125.613 2   -928140.006 1
 91  7 30  0 40  0.0000000  0  5 20 17 03 16 23
  23417070.402     3859695.436 2   3007547.051 1
  20681469.620    -1084083.745 3   -844739.051 2
  20503953.808     -713594.478 3   -556046.777 2
  22886290.253     2902393.748 2   2261603.195 1
  23134403.285    -1238156.416 2   -964787.208 1
 91  7 30  0 40 15.0000000  0  5 20 17 03 16 23
  23428035.011     3917318.943 2   3052448.389 1
  20679443.022    -1094740.292 3   -853042.845 2
  20502930.919     -718969.445 3   -560235.069 2
  22894998.025     2948178.164 2   2297279.309 1
  23125467.971    -1285098.676 2  -1001365.436 1
 91  7 30  0 40 30.0000000  0  5 20 17 03 16 23
  23439012.210     3975009.248 2   3097401.690 1
  20677435.313    -1105284.759 3   -861259.282 2
  20501931.711     -724224.390 3   -564329.816 2
  22903735.471     2994076.163 2   2333043.947 1
  23116552.140    -1331949.557 2  -1037872.482 1
 91  7 30  0 40 45.0000000  0  5 20 17 03 16 23
  23450007.697     4032762.653 2   3142404.240 1
  20675449.487    -1115720.191 3   -869390.763 2
  20500952.283     -729362.057 3   -568333.180 2
  22912490.917     3040084.393 2   2368894.475 1
  23107653.105    -1378711.995 2  -1074310.578 1
 91  7 30  0 41  0.0000000  0  5 20 17 03 16 23
  23461004.388     4090573.027 2   3187451.083 1
  20673483.746    -1126052.416 3   -877441.820 2
  20499996.552     -734388.107 3   -572249.581 2
  22921264.040     3086196.550 2   2404825.998 1
  23098771.756    -1425391.368 2  -1110683.977 1
 91  7 30  0 41 15.0000000  0  5 20 17 03 16 23
  23472018.162     4148443.836 2   3232545.080 1
  20671539.295    -1136277.683 3   -885409.536 2
  20499059.693     -739298.598 3   -576075.940 2
  22930059.351     3132416.134 2   2440841.243 1
  23089900.292    -1471983.669 2  -1146989.499 1
 91  7 30  0 41 30.0000000  0  5 20 17 03 16 23
  23483041.831     4206372.949 2   3277684.488 1
  20669613.427    -1146397.472 3   -893295.069 2
  20498149.228     -744094.733 3   -579813.178 2
  22938874.451     3178741.047 2   2476938.561 1
  23081055.518    -1518490.350 2  -1183228.321 1
 91  7 30  0 41 45.0000000  0  5 20 17 03 16 23
  23494077.785     4264359.838 2   3322868.974 1
  20667704.347    -1156412.283 3   -901098.795 2
  20497257.348     -748776.544 3   -583461.337 2
  22947709.330     3225170.932 2   2513117.641 1
  23072220.333    -1564911.194 2  -1219400.248 1
 91  7 30  0 42  0.0000000  0  5 20 17 03 16 23
  23505125.440     4322403.642 2   3368097.780 1
  20665819.253    -1166322.844 3   -908821.279 2
  20496390.648     -753344.671 3   -587020.900 2
  22956563.405     3271705.043 2   2549377.951 1
  23063401.639    -1611246.634 2  -1255505.634 1
 91  7 30  0 42 15.0000000  0  5 20 17 03 16 23
  23516181.784     4380501.894 2   3413368.993 1
  20663954.845    -1176131.058 3   -916464.032 2
  20495541.328     -757800.863 3   -590493.260 2
  22965439.057     3318340.708 2   2585717.387 1
  23054605.726    -1657498.193 2  -1291545.676 1
 91  7 30  0 42 30.0000000  0  5 20 17 03 16 23
  23527251.024     4438658.104 2   3458685.435 1
  20662109.319    -1185833.231 3   -924024.133 2
  20494715.706     -762140.859 3   -593875.072 2
  22974333.895     3365081.548 2   2622138.823 1
  23045814.611    -1703662.047 2  -1327517.359 1
 91  7 30  0 42 45.0000000  0  5 20 17 03 16 23
  23538322.359     4496868.579 2   3504044.058 1
  20660279.088    -1195432.615 3   -931504.159 2
  20493911.364     -766367.799 3   -597168.781 2
  22983249.726     3411924.026 2   2658639.417 1
  23037055.579    -1749741.243 2  -1363423.069 1
 91  7 30  0 43  0.0000000  0  5 20 17 03 16 23
  23549406.885     4555132.989 2   3549444.780 1
  20658474.334    -1204929.312 3   -938904.158 2
  20493128.303     -770481.671 3   -600374.395 2
  22992183.243     3458867.517 2   2695218.709 1
  23028299.540    -1795735.490 2  -1399262.577 1
 91  7 30  0 43 15.0000000  0  5 20 17 03 16 23
  23560509.098     4613451.756 2   3594887.855 1
  20656685.172    -1214322.643 3   -946223.614 2
  20492366.828     -774481.300 3   -603490.982 2
  23001133.250     3505912.604 2   2731877.219 1
  23019559.092    -1841643.824 2  -1435035.214 1
 91  7 30  0 43 30.0000000  0  5 20 17 03 16 23
  23571615.507     4671822.637 2   3640371.519 1
  20654920.597    -1223614.318 3   -953463.865 2
  20491626.939     -778368.553 3   -606520.006 2
  23010105.437     3553057.510 2   2768613.481 1
  23010839.323    -1887467.896 2  -1470742.144 1
 91  7 30  0 43 45.0000000  0  5 20 17 03 16 23
  23582729.716     4730249.605 2   3685898.819 1
  20653167.705    -1232800.111 3   -960621.602 2
  20490907.144     -782138.515 3   -609457.635 2
  23019099.209     3600305.789 2   2805430.287 1
  23002129.160    -1933203.091 2  -1506379.818 1
 91  7 30  0 44  0.0000000  0  5 20 17 03 16 23
  23593863.409     4788727.292 2   3731465.739 1
  20651441.207    -1241885.118 3   -967700.797 2
  20490213.419     -785796.271 3   -612307.835 2
  23028113.966     3647652.398 2   2842323.720 1
  22993450.766    -1978853.921 2  -1541951.741 1
 91  7 30  0 44 15.0000000  0  5 20 17 03 16 23
  23605000.094     4847259.149 2   3777074.833 1
  20649733.886    -1250865.579 3   -974698.549 2
  20489539.788     -789337.570 3   -615067.276 2
  23037133.826     3695100.812 2   2879296.469 1
  22984785.564    -2024416.462 2  -1577454.874 1
 91  7 30  0 44 30.0000000  0  5 20 17 03 16 23
  23616149.981     4905842.919 2   3822724.378 1
  20648044.260    -1259743.345 3   -981616.265 2
  20488888.939     -792764.045 3   -617737.245 2
  23046181.563     3742648.848 2   2916346.875 1
  22976122.159    -2069892.263 2  -1612890.420 1
 91  7 30  0 44 45.0000000  0  5 20 17 03 16 23
  23627305.853     4964479.644 2   3868415.178 1
  20646372.617    -1268517.272 3   -988453.070 2
  20488257.572     -796074.372 3   -620316.719 2
  23055249.080     3790297.340 2   2953475.568 1
  22967492.337    -2115279.810 2  -1648257.260 1
 91  7 30  0 45  0.0000000  0  5 20 17 03 16 23
  23638480.318     5023169.091 2   3914147.007 1
  20644723.458    -1277187.243 3   -995208.874 2
  20487649.293     -799267.955 3   -622805.231 2
  23064336.395     3838045.910 2   2990682.167 1
  22958871.205    -2160578.743 2  -1683554.993 1
 91  7 30  0 45 15.0000000  0  5 20 17 03 16 23
  23649655.385     5081905.352 2   3959915.489 1
  20643092.586    -1285758.590 3  -1001887.817 2
  20487063.201     -802350.182 3   -625206.959 2
  23073443.489     3885889.083 2   3027962.547 1
  22950264.164    -2205794.132 2  -1718787.609 1
 91  7 30  0 45 30.0000000  0  5 20 17 03 16 23
  23660844.534     5140693.959 2   4005724.621 1
  20641478.502    -1294225.268 3  -1008485.220 2
  20486501.391     -805314.966 3   -627517.173 2
  23082560.774     3933832.371 2   3065320.912 1
  22941679.006    -2250920.061 2  -1753950.542 1
 91  7 30  0 45 45.0000000  0  5 20 17 03 16 23
  23672035.490     5199533.062 2   4051573.092 1
  20639891.396    -1302588.944 3  -1015002.345 2
  20485955.766     -808163.568 3   -629736.851 2
  23091706.546     3981874.139 2   3102756.033 1
  22933110.338    -2295957.421 2  -1789044.450 1
 91  7 30  0 46  0.0000000  0  5 20 17 03 16 23
  23683236.636     5258419.808 2   4097458.757 1
  20638316.889    -1310852.469 3  -1021441.427 2
  20485435.924     -810898.247 3   -631867.767 2
  23100867.300     4030011.662 2   3140265.761 1
  22924553.362    -2340908.583 2  -1824071.224 1
 91  7 30  0 46 15.0000000  0  5 20 17 03 16 23
  23694457.868     5317348.783 2   4143377.291 1
  20636766.368    -1319020.765 3  -1027806.321 2
  20484938.576     -813523.833 3   -633913.676 2
  23110045.451     4078239.477 2   3177845.840 1
  22916015.870    -2385778.484 2  -1859034.655 1
 91  7 30  0 46 30.0000000  0  5 20 17 03 16 23
  23705677.005     5376323.542 2   4189331.496 1
  20635228.428    -1327090.126 3  -1034094.112 2
  20484461.007     -816036.648 3   -635871.707 2
  23119237.982     4126560.869 2   3215498.841 1
  22907492.773    -2430563.103 2  -1893931.613 1
 91  7 30  0 46 45.0000000  0  5 20 17 03 16 23
  23716905.732     5435344.895 2   4235322.056 1
  20633709.081    -1335059.254 3  -1040303.809 2
  20484001.717     -818434.669 3   -637740.298 2
  23128452.403     4174976.735 2   3253225.437 1
  22898982.267    -2475260.742 2  -1928760.831 1
 91  7 30  0 47  0.0000000  0  5 20 17 03 16 23
  23728152.441     5494407.831 2   4281344.924 1
  20632212.812    -1342932.861 3  -1046439.066 2
  20483566.125     -820722.528 3   -639523.019 2
  23137683.918     4223482.086 2   3291021.804 1
  22890500.536    -2519875.731 2  -1963525.644 1
 91  7 30  0 47 15.0000000  0  5 20 17 03 16 23
  23739402.457     5553513.536 2   4327401.193 1
  20630734.238    -1350709.290 3  -1052498.588 2
  20483154.204     -822898.581 3   -641218.650 2
  23146926.818     4272078.301 2   3328888.948 1
  22882024.800    -2564406.439 2  -1998224.758 1
 91  7 30  0 47 30.0000000  0  5 20 17 03 16 23
  23750654.566     5612661.635 2   4373490.481 1
  20629271.255    -1358388.746 3  -1058482.568 2
  20482762.080     -824962.537 3   -642826.921 2
  23156192.500     4320765.016 2   3366826.604 1
  22873559.865    -2608852.692 2  -2032858.087 1
 91  7 30  0 47 45.0000000  0  5 20 17 03 16 23
  23761921.666     5671849.637 2   4419610.856 1
  20627828.654    -1365973.438 3  -1064392.696 2
  20482389.134     -826916.569 3   -644349.532 2
  23165471.077     4369539.669 2   3404832.810 1
  22865124.002    -2653216.360 2  -2067427.085 1
 91  7 30  0 48  0.0000000  0  5 20 17 03 16 23
  23773187.867     5731075.259 2   4465760.518 1
  20626399.542    -1373465.649 3  -1070230.760 2
  20482039.283     -828762.244 3   -645787.730 2
  23174773.038     4418399.963 2   3442905.738 1
  22856695.338    -2697499.408 2  -2101933.218 1
 91  7 30  0 48 15.0000000  0  5 20 17 03 16 23
  23784464.555     5790337.475 2   4511938.690 1
  20624993.814    -1380865.672 3  -1075996.995 2
  20481708.305     -830499.657 3   -647141.535 2
  23184085.495     4467345.455 2   3481045.054 1
  22848285.860    -2741701.646 2  -2136376.406 1
 91  7 30  0 48 30.0000000  0  5 20 17 03 16 23
  23795748.442     5849632.182 2   4558142.237 1
  20623603.381    -1388177.293 3  -1081694.353 2
  20481396.522     -832132.697 3   -648414.036 2
  23193420.428     4516371.652 2   3519247.246 1
  22839888.675    -2785826.758 2  -2170759.488 1
 91  7 30  0 48 45.0000000  0  5 20 17 03 16 23
  23807040.731     5908967.517 2   4604377.387 1
  20622228.530    -1395392.280 3  -1087316.402 2
  20481105.426     -833652.441 3   -649598.246 2
  23202761.660     4565486.805 2   3557518.760 1
  22831507.973    -2829866.011 2  -2205075.664 1
 91  7 30  0 49  0.0000000  0  5 20 17 03 16 23
  23818329.111     5968339.731 2   4650641.229 1
  20620875.563    -1402514.155 3  -1092865.892 2
  20480838.909     -835062.165 3   -650696.730 2
  23212125.979     4614687.231 2   3595856.743 1
  22823138.674    -2873822.694 2  -2239327.500 1
 91  7 30  0 49 15.0000000  0  5 20 17 03 16 23
  23829646.581     6027744.394 2   4696930.521 1
  20619539.094    -1409546.745 3  -1098345.810 2
  20480588.586     -836366.161 3   -651712.826 2
  23221507.984     4663968.391 2   3634257.567 1
  22814795.742    -2917700.438 2  -2273517.852 1
 91  7 30  0 49 30.0000000  0  5 20 17 03 16 23
  23840954.147     6087182.679 2   4743245.841 1
  20618214.910    -1416488.657 3  -1103755.076 2
  20480362.239     -837562.075 3   -652644.691 2
  23230901.681     4713331.385 2   3672722.220 1
  22806456.117    -2961497.530 2  -2307645.300 1
 91  7 30  0 49 45.0000000  0  5 20 17 03 16 23
  23852269.514     6146652.700 2   4789586.001 1
  20616909.913    -1423341.333 3  -1109094.813 2
  20480155.384     -838651.398 3   -653493.512 2
  23240303.474     4762774.615 2   3711249.375 1
  22798136.874    -3005215.524 2  -2341711.177 1
 91  7 30  0 50  0.0000000  0  5 20 17 03 16 23
  23863588.179     6206152.495 2   4835949.293 1
  20615626.197    -1430106.178 3  -1114366.107 2
  20479968.911     -839635.396 3   -654260.270 2
  23249727.447     4812296.549 2   3749837.852 1
  22789830.527    -3048855.264 2  -2375716.065 1
 91  7 30  0 50 15.0000000  0  5 20 17 03 16 23
  23874920.333     6265681.242 2   4882335.220 1
  20614353.884    -1436784.127 3  -1119569.691 2
  20479801.624     -840514.513 3   -654945.285 2
  23259169.716     4861896.157 2   3788486.859 1
  22781540.068    -3092417.254 2  -2409660.337 1
 91  7 30  0 50 30.0000000  0  5 20 17 03 16 23
  23886251.588     6325237.697 2   4928742.684 1
  20613101.046    -1443376.262 3  -1124706.403 2
  20479653.228     -841289.269 3   -655548.988 2
  23268621.871     4911572.061 2   3827195.331 1
  22773270.296    -3135901.955 2  -2443544.410 1
 91  7 30  0 50 45.0000000  0  5 20 17 03 16 23
  23897597.240     6384823.930 2   4975173.312 1
  20611862.002    -1449879.895 3  -1129774.159 2
  20479525.222     -841957.326 3   -656069.537 2
  23278085.115     4961326.375 2   3865964.881 1
  22765010.410    -3179306.955 2  -2477366.345 1
 91  7 30  0 51  0.0000000  0  5 20 17 03 16 23
  23908939.585     6444438.028 2   5021625.664 1
  20610640.652    -1456296.459 3  -1134774.052 2
  20479419.089     -842519.639 3   -656507.700 2
  23287570.547     5011157.065 2   3904793.966 1
  22756761.021    -3222633.404 2  -2511127.170 1
 91  7 30  0 51 15.0000000  0  5 20 17 03 16 23
  23920286.126     6504086.216 2   5068104.590 1
  20609438.184    -1462619.748 3  -1139701.274 2
  20479333.653     -842969.675 3   -656858.381 2
  23297073.674     5061070.592 2   3943687.580 1
  22748532.021    -3265874.382 2  -2544821.275 1
 91  7 30  0 51 30.0000000  0  5 20 17 03 16 23
  23931647.963     6563760.357 2   5114603.831 1
  20608248.908    -1468857.465 3  -1144561.827 2
  20479268.293     -843315.029 3   -657127.479 2
  23306583.092     5111058.834 2   3982639.418 1
  22740317.707    -3309037.606 2  -2578454.850 1
 91  7 30  0 51 45.0000000  0  5 20 17 03 16 23
  23943001.703     6623460.779 2   5161123.542 1
  20607079.115    -1475009.197 3  -1149355.365 2
  20479222.129     -843554.714 3   -657314.248 2
  23316113.188     5161122.195 2   4021649.795 1
  22732122.875    -3352122.221 2  -2612027.150 1
 91  7 30  0 52  0.0000000  0  5 20 17 03 16 23
  23954367.440     6683188.599 2   5207664.516 1
  20605926.118    -1481073.425 3  -1154080.726 2
  20479197.550     -843687.152 3   -657417.433 2
  23325655.883     5211261.705 2   4060719.496 1
  22723940.040    -3395126.293 2  -2645536.734 1
 91  7 30  0 52 15.0000000  0  5 20 17 03 16 23
  23965740.663     6742943.811 2   5254226.859 1
  20604791.104    -1487049.583 3  -1158737.457 2
  20479192.446     -843711.621 3   -657436.500 2
  23335206.370     5261477.368 2   4099848.542 1
  22715772.501    -3438049.378 2  -2678983.176 1
 91  7 30  0 52 30.0000000  0  5 20 17 03 16 23
  23977115.387     6802728.191 2   5300811.857 1
  20603670.180    -1492935.590 3  -1163323.938 2
  20479208.343     -843625.810 3   -657369.620 2
  23344778.748     5311771.129 2   4139038.430 1
  22707620.239    -3480888.890 2  -2712364.485 1
 91  7 30  0 52 45.0000000  0  5 20 17 03 16 23
  23988505.406     6862537.166 2   5347416.093 1
  20602566.044    -1498736.100 3  -1167843.811 2
  20479244.011     -843433.998 3   -657220.144 2
  23354365.208     5362138.489 2   4178285.691 1
  22699479.974    -3523649.093 2  -2745683.998 1
 91  7 30  0 53  0.0000000  0  5 20 17 03 16 23
  23999887.022     6922371.567 2   5394040.134 1
  20601477.490    -1504449.694 3  -1172295.942 2
  20479303.674     -843134.504 3   -656986.775 2
  23363961.266     5412580.266 2   4217590.957 1
  22691360.999    -3566328.518 2  -2778940.613 1
 91  7 30  0 53 15.0000000  0  5 20 17 03 16 23
  24011278.838     6982233.419 2   5440685.595 1
  20600406.937    -1510073.949 3  -1176678.465 2
  20479378.919     -842724.536 3   -656667.319 2
  23373575.010     5463098.581 2   4256955.814 1
  22683253.113    -3608924.451 2  -2812132.140 1
 91  7 30  0 53 30.0000000  0  5 20 17 03 16 23
  24022672.749     7042119.229 2   5487349.704 1
  20599354.061    -1515612.151 3  -1180993.929 2
  20479480.549     -842207.337 3   -656264.308 2
  23383200.149     5513690.058 2   4296377.688 1
  22675159.012    -3651439.665 2  -2845260.781 1
 91  7 30  0 53 45.0000000  0  5 20 17 03 16 23
  24034071.161     7102027.752 2   5534031.460 1
  20598318.277    -1521065.415 3  -1185243.211 2
  20479595.668     -841583.706 3   -655778.345 2
  23392841.176     5564353.412 2   4335855.606 1
  22667089.203    -3693875.026 2  -2878327.177 1
 91  7 30  0 54  0.0000000  0  5 20 17 03 16 23
  24045478.560     7161964.465 2   5580735.288 1
  20597295.991    -1526427.858 3  -1189421.733 2
  20479737.172     -840847.537 3   -655204.706 2
  23402498.388     5615094.128 2   4375393.826 1
  22659030.177    -3736224.331 2  -2911326.528 1
 91  7 30  0 54 15.0000000  0  5 20 17 03 16 23
  24056887.460     7221929.372 2   5627461.026 1
  20596291.085    -1531699.047 3  -1193529.130 2
  20479898.464     -839997.892 3   -654542.639 2
  23412169.692     5665912.234 2   4414992.293 1
  22650986.447    -3778486.968 2  -2944258.375 1
 91  7 30  0 54 30.0000000  0  5 20 17 03 16 23
  24068308.959     7281914.354 2   5674202.352 1
  20595304.171    -1536886.916 3  -1197571.613 2
  20480079.240     -839042.632 3   -653798.272 2
  23421854.484     5716799.584 2   4454644.738 1
  22642961.005    -3820670.632 2  -2977128.643 1
 91  7 30  0 54 45.0000000  0  5 20 17 03 16 23
  24079726.855     7341919.152 2   5720959.188 1
  20594335.238    -1541991.218 3  -1201548.972 2
  20480281.898     -837981.567 3   -652971.470 2
  23431550.078     5767756.259 2   4494351.168 1
  22634947.551    -3862774.742 2  -3009936.938 1
 91  7 30  0 55  0.0000000  0  5 20 17 03 16 23
  24091142.648     7401945.778 2   5767733.031 1
  20593378.303    -1547009.771 3  -1205459.521 2
  20480505.540     -836811.873 3   -652060.007 2
  23441261.552     5818783.919 2   4534112.982 1
  22626948.188    -3904796.888 2  -3042681.349 1
 91  7 30  0 55 15.0000000  0  5 20 17 03 16 23
  24102575.830     7461990.424 2   5814521.307 1
  20592439.953    -1551946.011 3  -1209305.922 2
  20480748.377     -835537.096 3   -651066.677 2
  23450984.124     5869878.573 2   4573926.963 1
  22618974.913    -3946740.238 2  -3075364.400 1
 91  7 30  0 55 30.0000000  0  5 20 17 03 16 23
  24114002.721     7522053.621 2   5861323.732 1
  20591515.388    -1556798.918 3  -1213087.391 2
  20481010.096     -834155.973 3   -649990.471 2
  23460721.982     5921041.231 2   4613793.914 1
  22611007.021    -3988603.658 2  -3107985.136 1
 91  7 30  0 55 45.0000000  0  5 20 17 03 16 23
  24125433.207     7582135.264 2   5908140.373 1
  20590605.516    -1561568.663 3  -1216804.064 2
  20481293.696     -832668.226 3   -648831.183 2
  23470469.133     5972271.621 2   4653713.686 1
  22603054.433    -4030386.835 2  -3140543.360 2
 91  7 30  0 56  0.0000000  0  5 20 17 03 16 23
  24136871.188     7642234.589 2   5954970.857 1
  20589715.136    -1566255.895 3  -1220456.441 2
  20481597.688     -831073.880 3   -647588.821 2
  23480230.671     6023569.095 2   4693685.657 1
  22595110.833    -4072090.004 2  -3173039.235 1
 91  7 30  0 56 15.0000000  0  5 20 17 03 16 23
  24148310.076     7702347.438 2   6001811.917 1
  20588835.846    -1570864.112 3  -1224047.249 2
  20481920.264     -829376.599 3   -646266.266 2
  23490004.512     6074929.673 2   4733706.877 1
  22587194.210    -4113716.437 2  -3205475.341 1
 91  7 30  0 56 30.0000000  0  5 20 17 03 16 23
  24159752.847     7762475.923 2   6048665.154 1
  20587974.241    -1575390.903 3  -1227574.611 2
  20482264.723     -827573.670 3   -644861.376 2
  23499787.339     6126355.248 2   4773778.682
  22579285.684    -4155263.386 2  -3237849.464 2
 91  7 30  0 56 45.0000000  0  5 20 17 03 16 23
  24171201.324     7822619.232 2   6095530.239 1
  20587130.026    -1579837.009 3  -1231039.084 2
  20482626.274     -825665.280 3   -643374.298 2
  23509586.954     6177845.051 2   4813900.582 1
  22571394.250    -4196731.032 2  -3270161.838 1
 91  7 30  0 57  0.0000000  0  5 20 17 03 16 23
  24182646.503     7882777.036 2   6142406.269 1
  20586302.903    -1584202.313 3  -1234440.601 2
  20483010.309     -823651.419 3   -641805.068 2
  23519399.159     6229398.890 2   4854072.379 1
  22563522.597    -4238119.428 2  -3302412.421 1
 91  7 30  0 57 15.0000000  0  5 20 17 03 16 23
  24194094.675     7942949.352 2   6189293.691 1
  20585486.268    -1588486.429 3  -1237778.870 2
  20483412.633     -821531.555 3   -640153.222 2
  23529220.360     6281016.910 2   4894294.198 1
  22555660.244    -4279428.058 2  -3334600.880 1
 91  7 30  0 57 30.0000000  0  5 20 17 03 16 23
  24205546.747     8003135.889 2   6236192.077 1
  20584686.716    -1592689.231 3  -1241053.766 2
  20483837.738     -819304.911 3   -638418.171 2
  23539052.650     6332699.147 2   4934565.988 1
  22547813.475    -4320656.329 2  -3366726.697 1
 91  7 30  0 57 45.0000000  0  5 20 17 03 16 23
  24217003.015     8063334.805 2   6283100.169 1
  20583900.959    -1596812.547 3  -1244266.720 2
  20484283.224     -816973.048 3   -636601.132 2
  23548903.830     6384443.635 2   4974886.363 1
  22539983.492    -4361805.549 2  -3398790.922 1
 91  7 30  0 58  0.0000000  0  5 20 17 03 16 23
  24228466.185     8123543.989 2   6330016.195
  20583128.997    -1600857.933 3  -1247418.955 2
  20484747.304     -814537.793 3   -634703.523 2
  23558763.710     6436247.963 2   5015253.332 1
  22532169.407    -4402877.301 2  -3430794.797 1
 91  7 30  0 58 15.0000000  0  5 20 17 03 16 23
  24239920.055     8183762.871 2   6376939.845 1
  20582374.423    -1604825.721 3  -1250510.718 2
  20485227.272     -811999.062 3   -632725.295 2
  23568631.380     6488111.709 2   5055666.637 1
  22524366.402    -4443871.738 2  -3462738.440 1
 91  7 30  0 58 30.0000000  0  5 20 17 03 16 23
  24251385.912     8243991.362 2   6423870.919 1
  20581640.528    -1608715.847 3  -1253541.987 2
  20485730.327     -809356.181 3   -630665.900 2
  23578507.741     6540034.888 2   5096126.163 1
  22516583.797    -4484788.205 2  -3494621.280 1
 91  7 30  0 58 45.0000000  0  5 20 17 03 16 23
  24262848.777     8304231.621 2   6470811.252 1
  20580911.728    -1612525.734 3  -1256510.711 2
  20486254.357     -806606.539 3   -628523.314 2
  23588399.091     6592019.680 2   5136633.743 1
  22508812.569    -4525623.788 2  -3526441.125 2
 91  7 30  0 59  0.0000000  0  5 20 17 03 16 23
  24274306.843     8364483.920 2   6517760.923 1
  20580203.625    -1616254.928 3  -1259416.560 2
  20486795.488     -803749.424 3   -626296.995 2
  23598307.831     6644066.573 2   5177189.701 1
  22501059.045    -4566377.877 2  -3558197.474 1
 91  7 30  0 59 15.0000000  0  5 20 17 03 16 23
  24285776.609     8424742.858 2   6564715.732 1
  20579506.009    -1619908.411 3  -1262263.425 2
  20487362.690     -800789.440 3   -623990.528 2
  23608225.863     6696169.925 2   5217789.656 1
  22493316.000    -4607055.354 2  -3589894.122 1
 91  7 30  0 59 30.0000000  0  5 20 17 03 16 23
  24297251.462     8485011.016 2   6611677.791
  20578826.672    -1623483.466 3  -1265049.169 2
  20487943.992     -797723.660 3   -621601.595 2
  23618151.695     6748332.407 2   5258435.710 1
  22485589.148    -4647652.853 2  -3621528.418 1
 91  7 30  0 59 45.0000000  0  5 20 17 03 16 23
  24308723.925     8545289.133 2   6658647.509 1
  20578158.738    -1626978.902 3  -1267772.872 2
  20488544.777     -794551.001 3   -619129.383 2
  23628089.210     6800554.807 2   5299128.445 1
  22477879.685    -4688169.167 2  -3653099.474 1
 91  7 30  1  0  0.0000000  0  5 20 17 03 16 23
  24320191.580     8605576.090 2   6705624.207 1
  20577509.983    -1630395.176 3  -1270434.883 2
  20489171.938     -791271.727 3   -616574.117 2
  23638033.330     6852836.091 2   5339867.079 1
  22470182.220    -4728604.653 2  -3684607.572 1
 91  7 30  1  0 15.0000000  0  5 20 17 03 16 23
  24331658.345     8665870.235 2   6752606.479 1
  20576877.421    -1633734.049 3  -1273036.583 2
  20489815.598     -787886.931 3   -613936.609 2
  23647997.230     6905174.601 2   5380650.275 1
  22462507.230    -4768960.540 2  -3716053.625 1
 91  7 30  1  0 30.0000000  0  5 20 17 03 16 23
  24343141.591     8726172.735 2   6799595.557 1
  20576255.356    -1636993.898 3  -1275576.725 2
  20490478.139     -784395.046 3   -611215.666 2
  23657966.531     6957571.689 2   5421479.109 1
  22454837.938    -4809235.075 2  -3747436.302 1
 91  7 30  1  0 45.0000000  0  5 20 17 03 16 23
  24354616.453     8786483.040 2   6846590.667 1
  20575647.373    -1640174.979 3  -1278055.471 2
  20491163.766     -780796.178 3   -608411.360 2
  23667948.116     7010026.927 2   5462353.308 1
  22447186.934    -4849428.445 2  -3778755.709 1
 91  7 30  1  1  0.0000000  0  5 20 17 03 16 23
  24366093.400     8846799.986 2   6893591.069 1
  20575056.482    -1643278.357 3  -1280473.674 2
  20491870.971     -777090.699 3   -605523.973 2
  23677936.002     7062538.988 2   5503271.745 1
  22439562.611    -4889540.895 2  -3810012.072 1
 91  7 30  1  1 15.0000000  0  5 20 17 03 16 23
  24377566.761     8907123.130 2   6940595.967 1
  20574483.583    -1646303.995 3  -1282831.300 2
  20492592.573     -773278.626 3   -602553.530 2
  23687943.082     7115107.313 2   5544234.036 1
  22431942.188    -4929572.659 2  -3841205.563 1
 91  7 30  1  1 30.0000000  0  5 20 17 03 16 23
  24389057.808     8967450.808 2   6987604.367 1
  20573919.374    -1649253.434 3  -1285129.546 2
  20493340.856     -769361.038 3   -599500.865 2
  23697955.546     7167730.449 2   5585239.022 1
  22424340.349    -4969524.512 2  -3872336.766 1
 91  7 30  1  1 45.0000000  0  5 20 17 03 16 23
  24400538.655     9027784.438 2   7034617.423 1
  20573371.952    -1652124.987 3  -1287367.118 2
  20494107.121     -765336.270 3   -596364.686 2
  23707977.607     7220409.544 2   5626287.608 1
  22416752.602    -5009394.804 2  -3903404.449 1
 91  7 30  1  2  0.0000000  0  5 20 17 03 16 23
  24412018.307     9088123.823 2   7081635.278 1
  20572844.615    -1654918.669 3  -1289543.986 2
  20494894.675     -761203.744 3   -593144.533 2
  23718016.761     7273144.719 2   5667379.915 1
  22409177.445    -5049182.940 2  -3934408.132 1
 91  7 30  1  2 15.0000000  0  5 20 17 03 16 23
  24423500.062     9148470.189 2   7128658.353 1
  20572325.375    -1657632.701 3  -1291658.804 2
  20495700.823     -756961.746 3   -589839.085 2
  23728056.508     7325937.298 2   5708516.929 1
  22401625.078    -5088887.101 2  -3965346.326 1
 91  7 30  1  2 30.0000000  0  5 20 17 03 16 23
  24434990.507     9208826.641 2   7175689.184 1
  20571825.923    -1660263.489 3  -1293708.758 2
  20496527.946     -752606.514 3   -586445.407 2
  23738122.640     7378790.260 2   5749701.015 1
  22394088.591    -5128503.780 2  -3996216.410 1
 91  7 30  1  2 45.0000000  0  5 20 17 03 16 23
  24446479.154     9269192.116 2   7222727.071 1
  20571343.259    -1662811.811 3  -1295694.444 2
  20497378.757     -748138.478 3   -582963.827 2
  23748191.765     7431702.863 2   5790931.545 1
  22386559.904    -5168033.265 2  -4027018.508 1
 91  7 30  1  3  0.0000000  0  5 20 17 03 16 23
  24457966.005     9329563.716 2   7269770.030 1
  20570869.887    -1665280.570 3  -1297618.145 2
  20498252.656     -743560.182 3   -579396.314 2
  23758267.198     7484672.178 2   5832206.316 1
  22379056.397    -5207477.948 2  -4057754.548 1
 91  7 30  1  3 15.0000000  0  5 20 17 03 16 23
  24469453.753     9389941.754 2   7316817.694 1
  20570418.398    -1667668.935 3  -1299479.183 2
  20499142.442     -738870.658 3   -575742.148 2
  23768357.306     7537698.332 2   5873525.301 1
  22371568.186    -5246836.914 2  -4088423.790 1
 91  7 30  1  3 30.0000000  0  5 20 17 03 16 23
  24480947.191     9450326.988 2   7363870.994 1
  20569975.904    -1669975.911 3  -1301276.810 2
  20500057.104     -734068.733 3   -572000.388 2
  23778460.913     7590782.127 2   5914889.251 1
  22364094.956    -5286108.787 2  -4119025.166 1
 91  7 30  1  3 45.0000000  0  5 20 17 03 16 23
  24492442.731     9510721.344 2   7410931.375 1
  20569553.198    -1672199.368 3  -1303009.369 2
  20500993.055     -729151.816 3   -568169.033 2
  23788575.015     7643925.641 2   5956299.715 1
  22356637.623    -5325291.176 2  -4149556.812 1
 91  7 30  1  4  0.0000000  0  5 20 17 03 16 23
  24503932.278     9571123.501 2   7457998.207 1
  20569147.577    -1674340.297 3  -1304677.604 2
  20501948.193     -724121.010 3   -564248.930 2
  23798701.403     7697127.532 2   5997755.687 1
  22349199.171    -5364384.824 2  -4180019.315 1
 91  7 30  1  4 15.0000000  0  5 20 17 03 16 23
  24515428.420     9631528.554 2   7505066.925 1
  20568756.343    -1676403.376 3  -1306285.181 2
  20502928.520     -718980.504 3   -560243.340 2
  23808831.088     7750382.878 2   6039253.331 1
  22341776.607    -5403394.230 2  -4210416.174 2
 91  7 30  1  4 30.0000000  0  5 20 17 03 16 23
  24526911.972     9691936.618 2   7552137.896 1
  20568377.106    -1678388.281 3  -1307831.845 2
  20503925.329     -713729.495 3   -556151.648 2
  23818976.662     7803692.062 2   6080792.933 1
  22334370.238    -5442318.634 2  -4240746.803 1
 91  7 30  1  4 45.0000000  0  5 20 17 03 16 23
  24538413.506     9752345.752 2   7599209.809 1
  20568012.562    -1680296.609 3  -1309318.832 2
  20504944.919     -708369.506 3   -551975.037 2
  23829130.639     7857052.894 2   6122372.691 1
  22326981.554    -5481159.359 2  -4271012.221 1
 91  7 30  1  5  0.0000000  0  5 20 17 03 16 23
  24549915.643     9812753.715 2   7646280.774 1
  20567662.406    -1682130.037 3  -1310747.464 2
  20505987.299     -702902.621 3   -547715.136 2
  23839293.602     7910463.285 2   6163991.134 1
  22319601.865    -5519918.060 2  -4301213.715 1
 91  7 30  1  5 15.0000000  0  5 20 17 03 16 23
  24561405.791     9873164.468 2   7693354.231 1
  20567330.233    -1683884.613 3  -1312114.647 2
  20507046.466     -697323.938 3   -543368.102 2
  23849467.960     7963927.125 2   6205651.259 1
  22312245.857    -5558590.283 2  -4331347.843 1
 91  7 30  1  5 30.0000000  0  5 20 17 03 16 23
  24572898.033     9933578.498 2   7740430.010 1
  20567011.557    -1685559.337 3  -1313419.605 2
  20508133.213     -691632.364 3   -538933.110 2
  23859648.906     8017445.133 2   6247353.548 1
  22304903.634    -5597174.976 2  -4361413.752 1
 91  7 30  1  5 45.0000000  0  4 17 03 16 23
  20566706.963    -1687157.570 3  -1314664.971 2
  20509237.350     -685830.900 3   -534412.488 2
  23869845.146     8071014.028 2   6289095.447 1
  22297574.612    -5635675.135 2  -4391413.785 1
 91  7 30  1  6  0.0000000  0  4 17 03 16 23
  20566417.665    -1688681.017 3  -1315852.050 2
  20510357.078     -679921.194 3   -529807.525 2
  23880044.685     8124631.728 2   6330875.446 1
  22290264.472    -5674092.082 2  -4421349.006 1
 91  7 30  1  6 15.0000000  0  4 17 03 16 23
  20566143.059    -1690128.953 3  -1316980.292 2
  20511505.581     -673902.704 3   -525117.780 2
  23890262.512     8178298.041 2   6372693.353 1
  22282969.618    -5712425.109 2  -4451218.808 1
 91  7 30  1  6 30.0000000  0  4 17 03 16 23
  20565874.143    -1691503.213 3  -1318051.133 3
  20512664.276     -667776.107 3   -520343.817 2
  23900485.739     8232011.469 2   6414547.856 1
  22275690.364    -5750675.630 2  -4481024.322 1
 91  7 30  1  6 45.0000000  0  4 17 03 16 23
  20565634.010    -1692802.821 3  -1319063.790 2
  20513856.256     -661540.898 3   -515485.200 2
  23910716.453     8285772.312 2   6456439.367 1
  22268423.989    -5788842.583 2  -4510764.725 1
 91  7 30  1  7  0.0000000  0  4 17 03 16 23
  20565400.465    -1694028.929 3  -1320019.187 2
  20515066.516     -655198.112 3   -510542.779 2
  23920950.474     8339579.396 2   6498366.909 1
  22261179.810    -5826926.761 2  -4540440.658 1
 91  7 30  1  7 15.0000000  0  4 17 03 16 23
  20565180.418    -1695176.874 3  -1320913.662 2
  20516296.259     -648742.447 3   -505512.385 2
  23931204.876     8393437.470 2   6540334.172 1
  22253946.712    -5864923.101 2  -4570048.104 1
 91  7 30  1  7 30.0000000  0  4 17 03 16 23
  20564979.557    -1696251.851 3  -1321751.292 2
  20517541.297     -642178.868 3   -500397.902 2
  23941460.168     8447340.770 2   6582336.692 1
  22246735.802    -5902836.584 2  -4599591.009 1
 91  7 30  1  7 45.0000000  0  4 17 03 16 23
  20564786.794    -1697253.874 3  -1322532.077 2
  20518814.823     -635507.274 3   -495199.251 2
  23951725.669     8501289.437 2   6624374.588 1
  22239534.490    -5940667.039 2  -4629069.208 1
 91  7 30  1  8  0.0000000  0  4 17 03 16 23
  20564610.520    -1698178.910 3  -1323252.852 2
  20520104.525     -628723.152 3   -489912.926 2
  23961998.350     8555286.822 2   6666450.369 1
  22232352.661    -5978409.986 2  -4658479.216 1
 91  7 30  1  8 15.0000000  0  4 17 03 16 23
  20564449.524    -1699030.669 3  -1323916.544 2
  20521415.220     -621830.266 3   -484541.838 2
  23972286.336     8609328.899 2   6708561.069 1
  22225189.425    -6016069.012 2  -4687823.829 2
 91  7 30  1  8 30.0000000  0  4 17 03 16 23
  20564300.831    -1699809.333 3  -1324523.279 2
  20522747.195     -614828.720 3   -479086.087 2
  23982572.811     8663415.172 2   6750706.206 1
  22218032.480    -6053644.177 2  -4717103.109 1
 91  7 30  1  8 45.0000000  0  5 20 17 03 16 23
  24722311.003     -413189.66712   -321986.976 1
  20564166.220    -1700516.377 3  -1325074.204 2
  20524101.358     -607719.611 3   -473546.524 2
  23992873.980     8717544.056 2   6792884.429 1
  22210902.513    -6091136.732 2  -4746318.009 1
 91  7 30  1  9  0.0000000  0  4 17 03 16 23
  20564047.803    -1701150.192 3  -1325568.072 2
  20525471.409     -600501.103 3   -467921.707 2
  24003184.145     8771717.019 2   6835097.095 1
  22203786.341    -6128544.563 2  -4775466.890 1
 91  7 30  1  9 15.0000000  0  5 20 17 03 16 23
  24745278.404     -413187.97712   -321985.874 1
  20563938.983    -1701708.643 3  -1326003.201 2
  20526866.947     -593170.836 3   -462209.805 2
  24013507.196     8825935.691 2   6877345.345 1
  22196682.453    -6165865.363 2  -4804547.972 1
 91  7 30  1  9 30.0000000  0  5 20 17 03 16 23
  24756761.354     -401121.762 2   -312583.677 1
  20563847.544    -1702196.381 3  -1326383.236 2
  20528283.468     -585733.261 3   -456414.290 2
  24023829.951     8880195.296 2   6919625.536 1
  22189595.064    -6203103.709 2  -4833564.778 1
 91  7 30  1  9 45.0000000  0  5 20 17 03 16 23
  24768245.796     -340791.625 2   -265572.934 1
  20563770.502    -1702610.758 3  -1326706.118 2
  20529718.574     -578185.416 3   -450532.851 2
  24034167.094     8934498.174 2   6961939.383 1
  22182523.556    -6240256.588 2  -4862514.997 1
 91  7 30  1 10  0.0000000  0  5 20 17 03 16 23
  24779717.063     -280471.281 2   -218570.312 1
  20563703.048    -1702953.299 3  -1326973.009 2
  20531177.360     -570528.694 3   -444566.576 2
  24044497.640     8988842.793 2   7004285.796 1
  22175467.045    -6277325.185 2  -4891399.549 2
 91  7 30  1 10 15.0000000  0  5 20 17 03 16 23
  24791193.713     -220166.708 2   -171579.930 1
  20563649.083    -1703229.863 3  -1327188.505 2
  20532655.638     -562768.461 3   -438519.641 2
  24054855.766     9043223.048 2   7046659.951 1
  22168431.510    -6314315.169 2  -4920222.825 1
 91  7 30  1 10 30.0000000  0  5 20 17 03 16 23
  24802670.067     -159876.541 2   -124600.686 1
  20563610.405    -1703438.442 3  -1327351.010 2
  20534150.703     -554903.092 3   -432390.771 2
  24065209.103     9097640.179 2   7089062.796 1
  22161410.075    -6351224.336 2  -4948983.130 1
 91  7 30  1 10 45.0000000  0  5 20 17 03 16 23
  24814137.731      -99594.036 2    -77627.508 1
  20563583.723    -1703572.308 3  -1327455.309 2
  20535666.158     -546925.054 3   -426174.125 2
  24075570.527     9152100.882 2   7131499.660 1
  22154398.830    -6388045.660 2  -4977675.006 2
 91  7 30  1 11  0.0000000  0  5 20 17 03 16 23
  24825605.691      -39320.072 2    -30660.611 1
  20563572.032    -1703631.836 3  -1327501.690 2
  20537209.482     -538834.783 3   -419870.016 2
  24085936.751     9206604.893 2   7173970.303 1
  22147414.564    -6424779.187 2  -5006298.463 1
 91  7 30  1 11 15.0000000  0  5 20 17 03 16 23
  24837083.546       20943.354 2     16297.758 1
  20563575.635    -1703618.957 3  -1327491.627 2
  20538770.508     -530633.745 3   -413479.598 2
  24096324.865     9261149.772 2   7216472.798 1
  22140435.698    -6461426.625 2  -5034854.828 2
 91  7 30  1 11 30.0000000  0  5 20 17 03 16 23
  24848546.411       81196.896 2     63248.408 1
  20563594.516    -1703532.661 3  -1327424.365 2
  20540349.509     -522320.962 3   -407002.096 2
  24106706.977     9315736.512 2   7259007.793 1
  22133481.411    -6497986.683 2  -5063343.113 1
 91  7 30  1 11 45.0000000  0  5 20 17 03 16 23
  24860012.573      141440.491 2    110191.315 1
  20563620.299    -1703372.678 3  -1327299.684 2
  20541957.302     -513895.394 3   -400436.725 2
  24117104.078     9370365.036 2   7301575.397 1
  22126539.418    -6534458.975 2  -5091763.007 1
 91  7 30  1 12  0.0000000  0  4 17 03 16 23
  20563667.973    -1703137.657 3  -1327116.545 2
  20543580.975     -505356.285 3   -393782.874 2
  24127510.176     9425036.300 2   7344176.307 1
  22119619.002    -6570842.195 2  -5120113.471 1
 91  7 30  1 12 15.0000000  0  4 17 03 16 23
  20563724.328    -1702830.692 3  -1326877.331 2
  20545227.438     -496706.346 3   -387042.658 2
  24137926.158     9479746.807 2   7386807.833 1
  22112709.091    -6607138.690 2  -5148396.378 1
 91  7 30  1 12 30.0000000  0  4 17 03 16 23
  20563799.277    -1702449.115 3  -1326579.988 2
  20546892.485     -487942.373 3   -380213.590 2
  24148340.649     9534499.214 2   7429471.971 1
  22105819.562    -6643345.673 2  -5176609.552 1
 91  7 30  1 12 45.0000000  0  4 17 03 16 23
  20563888.020    -1701991.877 3  -1326223.688 2
  20548583.612     -479063.082 3   -373294.659 2
  24158768.332     9589294.350 2   7472169.392 1
  22098945.319    -6679461.860 2  -5204751.960 2
 91  7 30  1 13  0.0000000  0  4 17 03 16 23
  20563984.546    -1701464.729 3  -1325812.916 2
  20550290.330     -470074.263 3   -366290.376 2
  24169198.711     9644126.475 2   7514895.680 1
  22092094.163    -6715492.577 2  -5232827.771 1
 91  7 30  1 13 15.0000000  0  4 17 03 16 23
  20564098.766    -1700865.098 3  -1325345.663 2
  20552023.730     -460973.073 3   -359198.546 2
  24179644.978     9698997.466 2   7557652.222 1
  22085249.298    -6751435.314 2  -5260835.015 2
 91  7 30  1 13 30.0000000  0  4 17 03 16 23
  20564226.781    -1700192.048 3  -1324821.188 2
  20553781.412     -451758.333 3   -352018.233 2
  24190093.348     9753908.273 2   7600439.790 1
  22078428.426    -6787288.868 2  -5288772.769 2
 91  7 30  1 13 45.0000000  0  4 17 03 16 23
  20564370.082    -1699447.284 3  -1324240.848 2
  20555551.685     -442431.190 3   -344750.334 2
  24200553.402     9808857.003 2   7643256.933 1
  22071620.433    -6823054.484 3  -5316642.008 1
 91  7 30  1 14  0.0000000  0  4 17 03 16 23
  20564524.473    -1698633.766 3  -1323606.933 2
  20557348.045     -432994.800 3   -337397.294 1
  24211015.566     9863840.146 2   7686100.863 1
  22064828.939    -6858735.117 3  -5344445.047 1
 91  7 30  1 14 15.0000000  0  4 17 03 16 23
  20564692.362    -1697748.307 3  -1322916.945 2
  20559167.186     -423445.824 3   -329956.542 2
  24221486.412     9918860.539 2   7728973.836 1
  22058055.428    -6894327.382 2  -5372179.204 2
 91  7 30  1 14 30.0000000  0  4 17 03 16 23
  20564877.927    -1696789.495 3  -1322169.816 2
  20561007.312     -413782.586 3   -322426.757 1
  24231960.862     9973919.380 2   7771876.773 1
  22051299.899    -6929829.653 2  -5399843.229 1
 91  7 30  1 14 45.0000000  0  4 17 03 16 23
  20565070.098    -1695763.091 3  -1321370.019 2
  20562867.523     -404010.452 3   -314812.099 2
  24242441.908    10029011.127 2   7814805.338 1
  22044561.471    -6965247.138 2  -5427441.201 1
 91  7 30  1 15  0.0000000  0  4 17 03 16 23
  20565280.251    -1694664.424 3  -1320513.903 2
  20564745.724     -394124.714 3   -307108.918 2
  24252934.645    10084139.898 2   7857762.760 1
  22037839.525    -7000575.011 2  -5454969.338 2
 91  7 30  1 15 15.0000000  0  4 17 03 16 23
  20565502.095    -1693494.752 3  -1319602.460 2
  20566648.802     -384126.314 3   -299317.964 2
  24263433.377    10139304.125 2   7900747.825 1
  22031135.562    -7035814.493 3  -5482428.602 2
 91  7 30  1 15 30.0000000  0  4 17 03 16 23
  20565738.336    -1692254.930 3  -1318636.353 2
  20568574.075     -374015.974 3   -291439.780 2
  24273941.697    10194502.739 2   7943759.637 1
  22024446.291    -7070966.133 3  -5509819.422 2
 91  7 30  1 15 45.0000000  0  4 17 03 16 23
  20565986.862    -1690940.748 3  -1317612.323 2
  20570518.527     -363789.127 3   -283470.805 2
  24284447.923    10249740.145 2   7986801.776 1
  22017774.715    -7106025.262 3  -5537138.161 2
 91  7 30  1 16  0.0000000  0  4 17 03 16 23
  20566251.277    -1689557.649 3  -1316534.566 2
  20572486.667     -353451.092 3   -275415.187 2
  24294966.147    10305010.409 2   8029869.398 1
  22011118.417    -7140997.197 2  -5564388.951 1
 91  7 30  1 16 15.0000000  0  4 17 03 16 23
  20566525.891    -1688102.827 3  -1315400.931 2
  20574475.486     -342998.971 3   -267270.681 2
  24305486.159    10360315.890 2   8072964.530 1
  22004482.814    -7175879.112 3  -5591569.584 1
 91  7 30  1 16 30.0000000  0  4 17 03 16 23
  20566821.184    -1686571.185 3  -1314207.431 2
  20576486.493     -332427.507 3   -259033.191 2
  24316017.269    10415661.609 2   8116090.915 1
  21997858.302    -7210665.634 2  -5618675.899 2
 91  7 30  1 16 45.0000000  0  4 17 03 16 23
  20567125.472    -1684968.523 3  -1312958.609 2
  20578520.883     -321742.105 3   -250706.898 2
  24326556.477    10471041.212 2   8159243.849 1
  21991260.767    -7245362.064 3  -5645712.003 2
 91  7 30  1 17  0.0000000  0  4 17 03 16 23
  20567442.952    -1683294.424 3  -1311654.112 2
  20580573.866     -310942.233 3   -242291.415 2
  24337109.470    10526455.076 2   8202423.347 1
  21984672.228    -7279968.032 3  -5672677.630 2
 91  7 30  1 17 15.0000000  0  4 17 03 16 23
  20567773.023    -1681549.585 3  -1310294.487 2
  20582650.826     -300028.320 3   -233787.058 2
  24347649.576    10581902.194 2   8245628.895 1
  21978104.376    -7314483.884 2  -5699573.030 2
 91  7 30  1 17 30.0000000  0  4 17 03 16 23
  20568120.788    -1679737.549 3  -1308882.505 2
  20584752.373     -289003.637 3   -225196.414 2
  24358212.463    10637379.015 2   8288857.439 1
  21971551.514    -7348912.856 3  -5726400.735 2
 91  7 30  1 17 45.0000000  0  4 17 03 16 23
  20568477.837    -1677852.909 3  -1307413.953 2
  20586871.606     -277862.846 3   -216515.262 2
  24368775.350    10692890.424 2   8332113.035 1
  21965017.533    -7383249.600 3  -5753156.566 1
 91  7 30  1 18  0.0000000  0  4 17 03 16 23
  20568853.480    -1675900.047 3  -1305892.230 2
  20589009.729     -266609.959 3   -207746.787 2
  24379340.332    10748432.090 2   8375392.250 1
  21958503.646    -7417497.953 3  -5779843.525 2
 91  7 30  1 18 15.0000000  0  3 17 03 23
  20569236.311    -1673878.161 3  -1304316.733 2
  20591174.524     -255243.990 3   -198890.191 2
  21951998.746    -7451657.034 2  -5806460.942 1
 91  7 30  1 18 30.0000000  0  3 17 03 23
  20569631.742    -1671783.049 3  -1302684.179 2
  20593358.812     -243760.475 3   -189942.001 2
  21945519.637    -7485722.469 3  -5833005.351 2
 91  7 30  1 18 45.0000000  0  3 17 03 23
  20570045.452    -1669620.892 3  -1300999.387 2
  20595568.288     -232165.318 3   -180906.808 2
  21939052.508    -7519699.916 3  -5859481.223 2
 91  7 30  1 19  0.0000000  0  3 17 03 23
  20570468.462    -1667391.842 3  -1299262.455 2
  20597793.043     -220458.801 3   -171784.856 2
  21932603.073    -7553589.445 3  -5885888.587 2
 91  7 30  1 19 15.0000000  0  3 17 03 23
  20570907.361    -1665093.753 3  -1297471.728 2
  20600043.589     -208638.554 3   -162574.289 2
  21926171.629    -7587388.793 3  -5912225.669 2
 91  7 30  1 19 30.0000000  0  3 17 03 23
  20571358.842    -1662721.671 3  -1295623.342 2
  20602313.618     -196698.965 3   -153270.709 2
  21919755.167    -7621092.785 3  -5938488.450 2
 91  7 30  1 19 45.0000000  0  3 17 03 23
  20571823.227    -1660277.863 3  -1293719.078 2
  20604610.023     -184642.532 3   -143876.086 2
  21913362.096    -7654703.516 3  -5964678.559 1
 91  7 30  1 20  0.0000000  0  3 17 03 23
  20572300.796    -1657765.639 3  -1291761.498 2
  20606925.326     -172472.271 3   -134392.771 2
  21906981.616    -7688223.916 3  -5990798.291 2
 91  7 30  1 20 15.0000000  0  3 17 03 23
  20572791.549    -1655184.912 3  -1289750.532 2
  20609263.106     -160187.743 3   -124820.411 2
  21900617.321    -7721653.646 2  -6016847.355 1
 91  7 30  1 20 30.0000000  0  3 17 03 23
  20573297.003    -1652537.623 3  -1287687.716 2
  20611622.768     -147791.027 3   -115160.654 2
  21894279.402    -7754994.600 2  -6042827.247 1
 91  7 30  1 20 45.0000000  0  3 17 03 23
  20573812.343    -1649821.345 3  -1285571.132 2
  20614004.321     -135279.628 3   -105411.520 2
  21887947.791    -7788244.230 2  -6068735.994 2
 91  7 30  1 21  0.0000000  0  3 17 03 23
  20574342.376    -1647038.126 3  -1283402.397 2
  20616405.960     -122654.986 3    -95574.136 2
  21881640.454    -7821404.215 3  -6094574.874 1
 91  7 30  1 21 15.0000000  0  3 17 03 23
  20574885.906    -1644188.749 3  -1281182.093 2
  20618827.387     -109917.796 3    -85649.058 2
  21875347.512    -7854475.192 2  -6120344.393 2
 91  7 30  1 21 30.0000000  0  3 17 03 23
  20575440.815    -1641272.691 3  -1278909.835 2
  20621273.087      -97067.468 3    -75635.832 2
  21869068.357    -7887456.365 2  -6146043.955 2
 91  7 30  1 21 45.0000000  0  3 17 03 23
  20576008.322    -1638290.868 4  -1276586.335 3
  20623741.578      -84104.590 3    -65534.878 2
  21862809.592    -7920348.379 3  -6171674.021 2
 91  7 30  1 22  0.0000000  0  3 17 03 23
  20576589.327    -1635238.440 3  -1274207.820 2
  20626231.959      -71024.170 3    -55342.366 2
  21856571.514    -7953146.025 3  -6197230.563 2
 91  7 30  1 22 15.0000000  0  3 17 03 23
  20577180.811    -1632121.025 3  -1271778.655 2
  20628740.620      -57831.743 3    -45062.536 2
  21850346.324    -7985854.984 3  -6222718.007 2
 91  7 30  1 22 30.0000000  0  4 17 03 16 23
  20577789.396    -1628940.280 3  -1269300.149 2
  20631274.165      -44528.762 3    -34696.600 2
  24570552.157      -96973.08212    -75572.659 1
  21844134.622    -8018476.613 2  -6248137.391 2
 91  7 30  1 22 45.0000000  0  4 17 03 16 23
  20578405.170    -1625691.540 3  -1266768.665 2
  20633827.795      -31110.218 3    -24240.604 2
  24581219.972      -40905.241 2    -31883.511 1
  21837947.508    -8051005.985 3  -6273484.899 1
 91  7 30  1 23  0.0000000  0  4 17 03 16 23
  20579031.432    -1622378.579 3  -1264187.139 2
  20636397.016      -17579.646 3    -13697.316 2
  24591884.193       15184.055 2     11822.375 1
  21831775.374    -8083446.655 3  -6298763.274 1
 91  7 30  1 23 15.0000000  0  4 17 03 16 23
  20579680.485    -1618999.455 3  -1261554.042 2
  20638996.218       -3935.146 3     -3065.227 1
  24602572.094       71296.472 2     55546.250 1
  21825619.138    -8115796.483 3  -6323970.841 2
 91  7 30  1 23 30.0000000  0  4 17 03 16 23
  20580335.531    -1615551.761 3  -1258867.514 2
  20641614.012        9825.844 3      7657.616 2
  24613250.999      127434.199 2     99289.845 1
  21819479.986    -8148053.073 3  -6349105.801 1
 91  7 30  1 23 45.0000000  0  4 17 03 16 23
  20581002.871    -1612038.686 3  -1256130.051 2
  20644256.376       23700.419 3     18468.958 2
  24623934.109      183593.720 2    143050.412 1
  21813360.325    -8180219.273 2  -6374170.329 2
 91  7 30  1 24  0.0000000  0  4 17 03 16 23
  20581683.098    -1608459.841 3  -1253341.331 2
  20646917.936       37689.025 3     29369.166 2
  24634625.605      239775.504 2    186828.340 1
  21807254.756    -8212294.550 3  -6399163.968 2
 91  7 30  1 24 15.0000000  0  4 17 03 16 23
  20582380.714    -1604816.380 3  -1250502.265 2
  20649601.675       51790.626 3     40357.418 1
  24645323.400      295977.713 2    230622.227 1
  21801169.568    -8244279.780 2  -6424087.459 2
 91  7 30  1 24 30.0000000  0  4 17 03 16 23
  20583085.528    -1601106.616 3  -1247611.539 2
  20652305.804       66007.366 3     51435.407 2
  24656025.391      352202.176 2    274433.398 1
  21795099.065    -8276172.844 3  -6448939.132 2
 91  7 30  1 24 45.0000000  0  4 17 03 16 23
  20583802.331    -1597330.615 3  -1244669.201 2
  20655034.818       80339.472 3     62603.261 2
  24666735.175      408448.416 2    318261.602 1
  21789044.756    -8307973.566 3  -6473718.860 2
 91  7 30  1 25  0.0000000  0  4 17 03 16 23
  20584535.327    -1593486.711 3  -1241673.942 2
  20657784.509       94788.496 3     73862.238 2
  24677437.166      464717.825 2    362107.845 1
  21783015.932    -8339680.293 3  -6498425.327 2
 91  7 30  1 25 15.0000000  0  4 17 03 16 23
  20585279.404    -1589575.007 3  -1238625.863 2
  20660553.397      109354.580 3     85212.411 2
  24688141.252      521009.826 2    405971.635 1
  21776997.597    -8371293.038 3  -6523058.577 2
 91  7 30  1 25 30.0000000  0  4 17 03 16 23
  20586035.784    -1585596.276 3  -1235525.535 2
  20663348.965      124037.081 3     96653.317 2
  24698862.736      577323.912 2    449852.667 1
  21771002.051    -8402812.302 3  -6547618.991 2
 91  7 30  1 25 45.0000000  0  4 17 03 16 23
  20586803.550    -1581551.665 3  -1232373.891 2
  20666165.509      138834.924 3    108184.105 2
  24709582.116      633658.278 2    493749.495 1
  21765020.291    -8434239.150 3  -6572107.377 2
 91  7 30  1 26  0.0000000  0  4 17 03 16 23
  20587587.510    -1577440.577 3  -1229170.445 2
  20669005.148      153748.965 3    119805.428 2
  24720304.490      690013.433 2    537662.507 1
  21759058.921    -8465572.469 3  -6596522.897 2
 91  7 30  1 26 15.0000000  0  4 17 03 16 23
  20588379.261    -1573264.244 3  -1225916.153 2
  20671864.270      168778.106 3    131516.432 2
  24731046.949      746388.202 2    581590.834 1
  21753110.133    -8496813.448 3  -6620866.466 2
 91  7 30  1 26 30.0000000  0  3 17 03 23
  20589190.801    -1569019.045 3  -1222608.204 2
  20674744.673      183926.114 3    143320.072 2
  21747187.433    -8527958.518 3  -6645135.281 2
 91  7 30  1 26 45.0000000  0  3 17 03 23
  20590005.639    -1564709.940 3  -1219250.454 2
  20677649.663      199188.533 3    155212.857 2
  21741276.425    -8559011.969 3  -6669332.716 1
 91  7 30  1 27  0.0000000  0  3 17 03 23
  20590841.757    -1560335.528 3  -1215841.810 3
  20680577.434      214566.440 3    167195.620 2
  21735385.807    -8589972.392 3  -6693457.672 2
 91  7 30  1 27 15.0000000  0  3 17 03 23
  20591686.575    -1555894.770 3  -1212381.468 2
  20683523.493      230061.392 3    179269.612 1
  21729512.274    -8620838.475 3  -6717509.095 2
 91  7 30  1 27 30.0000000  0  3 17 03 23
  20592543.380    -1551387.500 3  -1208869.302 2
  20686498.031      245673.608 3    191434.936 2
  21723654.628    -8651610.225 3  -6741487.025 2
 91  7 30  1 27 45.0000000  0  3 17 03 23
  20593416.371    -1546816.568 3  -1205307.527 2
  20689487.262      261400.315 3    203689.504 1
  21717819.764    -8682289.858 3  -6765393.192 2
 91  7 30  1 28  0.0000000  0  3 17 03 23
  20594297.162    -1542180.866 3  -1201695.287 2
  20692504.073      277242.847 3    216034.331 2
  21711997.795    -8712876.194 3  -6789226.621 2
 91  7 30  1 28 15.0000000  0  3 17 03 23
  20595192.943    -1537478.697 3  -1198031.250 2
  20695539.774      293203.125 3    228470.905 1
  21706195.310    -8743367.391 3  -6812985.953 2
 91  7 30  1 28 30.0000000  0  3 17 03 23
  20596097.423    -1532708.074 3  -1194313.873 2
  20698599.461      309283.104 3    241000.749 2
  21700409.621    -8773761.177 3  -6836669.367 2
 91  7 30  1 28 45.0000000  0  3 17 03 23
  20597017.782    -1527871.995 3  -1190545.494 2
  20701685.820      325480.116 3    253621.793 1
  21694645.212    -8804060.405 3  -6860279.090 1
 91  7 30  1 29  0.0000000  0  3 17 03 23
  20597951.334    -1522972.732 3  -1186727.872 2
  20704785.380      341792.147 3    266332.458 1
  21688897.886    -8834267.207 3  -6883816.795 1
 91  7 30  1 29 15.0000000  0  3 17 03 23
  20598897.179    -1518008.437 3  -1182859.580 2
  20707912.511      358220.848 3    279134.029 2
  21683169.451    -8864379.725 3  -6907281.051 1
 91  7 30  1 29 30.0000000  0  3 17 03 23
  20599853.215    -1512979.816 3  -1178941.166 2
  20711061.228      374765.840 3    292026.223 1
  21677451.215    -8894398.326 3  -6930672.104 2
 91  7 30  1 29 45.0000000  0  3 17 03 23
  20600822.444    -1507885.016 3  -1174971.181 2
  20714231.837      391429.417 3    305010.804 2
  21671762.052    -8924320.885 3  -6953988.326 1
 91  7 30  1 30  0.0000000  0  3 17 03 23
  20601805.764    -1502726.451 3  -1170951.512 2
  20717424.921      408209.149 3    318085.914 1
  21666082.486    -8954149.553 3  -6977231.392 2
 91  7 30  1 30 15.0000000  0  3 17 03 23
  20602797.783    -1497501.639 3  -1166880.225 3
  20720643.501      425107.519 3    331253.462 2
  21660428.694    -8983881.756 3  -7000399.295 2
 91  7 30  1 30 30.0000000  0  3 17 03 23
  20603805.384    -1492212.978 3  -1162759.183 2
  20723877.357      442122.186 3    344511.637 1
  21654784.508    -9013519.942 3  -7023493.911 2
 91  7 30  1 30 45.0000000  0  3 17 03 23
  20604822.880    -1486860.283 3  -1158588.240 2
  20727140.600      459253.557 3    357860.750 2
  21649162.196    -9043063.602 3  -7046514.891 1
 91  7 30  1 31  0.0000000  0  3 17 03 23
  20605854.467    -1481446.539 3  -1154369.731 2
  20730421.529      476498.852 3    371298.628 1
  21643561.776    -9072515.490 3  -7069464.370 2
 91  7 30  1 31 15.0000000  0  3 17 03 23
  20606895.643    -1475970.110 3  -1150102.363 2
  20733724.637      493859.966 3    384826.765 1
  21637973.640    -9101873.599 2  -7092340.758 2
 91  7 30  1 31 30.0000000  0  3 17 03 23
  20607951.513    -1470428.019 3  -1145783.846 2
  20737051.740      511340.169 3    398447.684 2
  21632402.902    -9131134.860 3  -7115141.690 1
 91  7 30  1 31 45.0000000  0  3 17 03 23
  20609019.370    -1464821.632 3  -1141415.228 2
  20740399.224      528937.970 3    412160.265 2
  21626853.140    -9160300.585 3  -7137868.166 1
 91  7 30  1 32  0.0000000  0  3 17 03 23
  20610097.130    -1459151.593 3  -1136997.006 2
  20743770.990      546652.666 3    425963.920 1
  21621322.573    -9189371.367 3  -7160520.658 1
 91  7 30  1 32 15.0000000  0  3 17 03 23
  20611187.472    -1453411.863 3  -1132524.479 2
  20747164.638      564490.629 3    439863.616 2
  21615811.488    -9218340.968 3  -7183094.332 2
 91  7 30  1 32 30.0000000  0  3 17 03 23
  20612291.905    -1447610.686 3  -1128004.075 2
  20750578.974      582443.949 3    453853.213 2
  21610315.089    -9247217.117 3  -7205595.167 2
 91  7 30  1 32 45.0000000  0  3 17 03 23
  20613408.937    -1441745.502 3  -1123433.801 2
  20754019.694      600515.308 3    467934.787 1
  21604837.579    -9275997.096 3  -7228021.064 2
 91  7 30  1 33  0.0000000  0  3 17 03 23
  20614538.254    -1435815.944 3  -1118813.347 2
  20757479.898      618704.874 3    482108.468 1
  21599381.663    -9304680.660 3  -7250371.836 2
 91  7 30  1 33 15.0000000  0  3 17 03 23
  20615677.762    -1429820.625 3  -1114141.662 2
  20760966.181      637014.463 3    496375.666 2
  21593940.729    -9333266.016 3  -7272646.087 2
 91  7 30  1 33 30.0000000  0  3 17 03 23
  20616832.565    -1423754.806 3  -1109415.046 2
  20764474.652      655448.823 3    510740.100 1
  21588520.779    -9361748.367 3  -7294840.070 2
 91  7 30  1 33 45.0000000  0  3 17 03 23
  20617998.458    -1417626.944 3  -1104640.082 2
  20768006.210      673999.801 3    525195.408 1
  21583117.319    -9390136.064 3  -7316960.315 2
 91  7 30  1 34  0.0000000  0  3 17 03 23
  20619176.941    -1411432.019 3  -1099812.861 2
  20771554.554      692672.256 3    539745.361 2
  21577733.648    -9418424.011 3  -7339002.811 1
 91  7 30  1 34 15.0000000  0  3 17 03 23
  20620368.320    -1405170.546 3  -1094933.786 3
  20775135.575      711466.023 3    554389.845 2
  21572369.756    -9446612.291 3  -7360967.653 2
 91  7 30  1 34 30.0000000  0  3 17 03 23
  20621572.280    -1398843.443 3  -1090003.572 2
  20778731.288      730380.124 3    569128.086 1
  21567025.356    -9474701.681 3  -7382855.430 2
 91  7 30  1 34 45.0000000  0  3 17 03 23
  20622787.339    -1392450.373 3  -1085021.946 2
  20782356.370      749415.349 3    583960.734 2
  21561697.150    -9502691.815 3  -7404665.876 2
 91  7 30  1 35  0.0000000  0  3 17 03 23
  20624015.895    -1385996.784 3  -1079993.164 2
  20785995.857      768566.226 3    598883.477 1
  21556392.616    -9530587.920 3  -7426403.039 2
 91  7 30  1 35 15.0000000  0  3 17 03 23
  20625260.933    -1379479.054 3  -1074914.408 2
  20789667.715      787836.350 3    613899.147 2
  21551103.080    -9558386.266 3  -7448064.021 2
 91  7 30  1 35 30.0000000  0  3 17 03 23
  20626507.167    -1372897.948 3  -1069786.264 2
  20793357.258      807225.499 3    629007.564 1
  21545829.729    -9586087.275 3  -7469649.183 2
 91  7 30  1 35 45.0000000  0  3 17 03 23
  20627772.892    -1366253.840 3  -1064609.046 2
  20797068.090      826732.984 3    644208.199 1
  21540579.464    -9613691.327 3  -7491158.781 2
 91  7 30  1 36  0.0000000  0  3 17 03 23
  20629048.206    -1359550.141 3  -1059385.376 2
  20800802.603      846355.678 3    659498.594 1
  21535341.197    -9641201.546 3  -7512595.269 2
 91  7 30  1 36 15.0000000  0  3 17 03 23
  20630337.315    -1352781.879 3  -1054111.403 2
  20804558.701      866098.640 3    674882.701 1
  21530123.904    -9668612.978 3  -7533954.767 2
 91  7 30  1 36 30.0000000  0  3 17 03 23
  20631638.115    -1345948.453 3  -1048786.654 2
  20808339.989      885962.648 3    690361.138 2
  21524930.004    -9695924.883 3  -7555236.722 2
 91  7 30  1 36 45.0000000  0  3 17 03 23
  20632948.810    -1339052.700 3  -1043413.334 2
  20812141.353      905944.827 3    705931.661 1
  21519748.991    -9723139.623 3  -7576442.972 2
 91  7 30  1 37  0.0000000  0  3 17 03 23
  20634273.290    -1332092.597 3  -1037989.872 2
  20815966.406      926047.451 3    721596.019 2
  21514591.361    -9750255.346 3  -7597572.062 2
 91  7 30  1 37 15.0000000  0  3 17 03 23
  20635609.767    -1325070.917 3  -1032518.434 2
  20819814.240      946268.056 3    737352.351 2
  21509448.119    -9777274.461 3  -7618625.862 2
 91  7 30  1 37 30.0000000  0  3 17 03 23
  20636960.327    -1317989.416 3  -1027000.374 2
  20823684.262      966604.684 3    753199.055 2
  21504318.374    -9804198.478 3  -7639605.564 2
 91  7 30  1 37 45.0000000  0  3 17 03 23
  20638314.193    -1310848.496 3  -1021436.021 2
  20827574.971      987057.319 3    769136.163 1
  21499217.998    -9831027.818 3  -7660511.499 2
 91  7 30  1 38  0.0000000  0  3 17 03 23
  20639689.044    -1303646.690 3  -1015824.223 2
  20831491.760     1007627.176 3    785164.593 1
  21494128.721    -9857760.900 3  -7681342.433 2
 91  7 30  1 38 15.0000000  0  3 17 03 23
  20641068.989    -1296381.769 3  -1010163.245 2
  20835425.632     1028316.737 3    801286.332 1
  21489064.031    -9884395.416 3  -7702096.556 2
 91  7 30  1 38 30.0000000  0  3 17 03 23
  20642462.721    -1289060.405 3  -1004458.275 2
  20839387.390     1049119.766 3    817496.460 2
  21484011.625    -9910937.573 3  -7722778.704 2
 91  7 30  1 38 45.0000000  0  3 17 03 23
  20643870.543    -1281679.266 3   -998706.741 2
  20843368.037     1070039.597 3    833797.601 2
  21478979.611    -9937383.975 3  -7743386.237 2
 91  7 30  1 39  0.0000000  0  3 17 03 23
  20645283.767    -1274238.966 3   -992909.100 2
  20847370.864     1091075.400 3    850189.140 1
  21473962.586    -9963735.180 3  -7763919.607 2
 91  7 30  1 39 15.0000000  0  3 17 03 23
  20646712.582    -1266738.372 3   -987064.479 2
  20851395.583     1112228.683 3    866672.187 1
  21468968.342    -9989989.826 3  -7784377.719 2
 91  7 30  1 39 30.0000000  0  3 17 03 23
  20648150.384    -1259180.113 3   -981174.930 2
  20855442.777     1133497.277 3    883245.120 2
  21463990.293   -10016150.276 3  -7804762.438 2
 91  7 30  1 39 45.0000000  0  3 17 03 23
  20649598.080    -1251561.438 3   -975238.291 2
  20859511.260     1154883.324 3    899909.566 1
  21459030.522   -10042214.022 3  -7825071.804 2
 91  7 30  1 40  0.0000000  0  3 17 03 23
  20651058.672    -1243884.918 3   -969256.593 2
  20863603.127     1176384.603 3    916663.798 1
  21454090.845   -10068183.275 3  -7845307.537 2
 91  7 30  1 40 15.0000000  0  3 17 03 23
  20652534.847    -1236149.920 3   -963229.318 3
  20867719.581     1198001.850 2    933508.380 2
  21449160.757   -10094057.268 2  -7865469.041 2
 91  7 30  1 40 30.0000000  0  3 17 03 23
  20654015.821    -1228353.907 3   -957154.502 2
  20871854.314     1219737.964 3    950445.602 1
  21444261.548   -10119833.209 3  -7885554.153 2
 91  7 30  1 40 45.0000000  0  3 17 03 23
  20655509.987    -1220496.644 3   -951031.959 2
  20876014.236     1241593.096 3    967475.556 2
  21439374.326   -10145510.757 3  -7905562.583 2
 91  7 30  1 41  0.0000000  0  3 17 03 23
  20657019.143    -1212580.590 3   -944863.602 2
  20880196.643     1263564.674 3    984596.256 1
  21434506.300   -10171092.470 3  -7925496.332 2
 91  7 30  1 41 15.0000000  0  3 17 03 23
  20658534.293    -1204607.055 3   -938650.454 2
  20884398.534     1285651.775 3   1001806.977 1
  21429655.358   -10196579.291 3  -7945356.154 2
 91  7 30  1 41 30.0000000  0  3 17 03 23
  20660063.534    -1196574.101 3   -932391.009 2
  20888623.807     1307856.270 3   1019109.160 1
  21424825.399   -10221969.160 3  -7965140.428 2
 91  7 30  1 41 45.0000000  0  3 17 03 23
  20661602.966    -1188481.912 3   -926085.403 2
  20892872.464     1330178.058 3   1036502.743 2
  21420010.736   -10247262.177 3  -7984849.209 2
 91  7 30  1 42  0.0000000  0  3 17 03 23
  20663152.301    -1180330.742 3   -919733.842 2
  20897139.112     1352617.275 3   1053987.838 2
  21415215.852   -10272458.226 3  -8004482.464 2
 91  7 30  1 42 15.0000000  0  4 17 03 16 23
  20664717.516    -1172119.090 3   -913335.159 3
  20901436.935     1375175.327 3   1071565.547 2
  25423009.917      -98550.41312    -76802.845
  21410438.663   -10297555.956 3  -8024039.098 2
 91  7 30  1 42 30.0000000  0  4 17 03 16 23
  20666291.726    -1163846.639 3   -906889.094 2
  20905750.952     1397852.426 3   1089235.995 1
  25433866.605     -109953.83612    -85688.876 1
  21405682.153   -10322554.862 3  -8043518.727 2
 91  7 30  1 42 45.0000000  0  3 17 03 23
  20667876.127    -1155514.098 3   -900396.190 2
  20910085.350     1420648.183 3   1106998.912 2
  21400948.135   -10347455.551 3  -8062921.820 2
 91  7 30  1 43  0.0000000  0  3 17 03 23
  20669475.518    -1147126.287 3   -893860.232 2
  20914447.931     1443557.637 3   1124850.424 1
  21396221.002   -10372262.647 3  -8082251.973 2
 91  7 30  1 43 15.0000000  0  3 17 03 23
  20671078.809    -1138679.209 3   -887278.090 2
  20918825.798     1466585.227 3   1142793.984 2
  21391522.357   -10396971.701 3  -8101505.743 2
 91  7 30  1 43 30.0000000  0  3 17 03 23
  20672700.685    -1130170.230 3   -880647.724 2
  20923231.550     1489733.448 3   1160831.537 2
  21386839.303   -10421580.146 3  -8120681.113 2
 91  7 30  1 43 45.0000000  0  3 17 03 23
  20674330.055    -1121598.415 3   -873968.382 2
  20927661.881     1513003.312 3   1178963.891 2
  21382175.130   -10446087.363 3  -8139777.605 2
 91  7 30  1 44  0.0000000  0  3 17 03 23
  20675972.025    -1112968.865 3   -867244.055 2
  20932111.399     1536389.914 3   1197187.203 1
  21377530.144   -10470498.042 3  -8158798.865 2
 91  7 30  1 44 15.0000000  0  3 17 03 23
  20677623.583    -1104280.781 3   -860474.122 2
  20936584.003     1559894.214 3   1215502.228 2
  21372905.243   -10494810.955 3  -8177743.957 2
 91  7 30  1 44 30.0000000  0  3 17 03 23
  20679291.022    -1095530.405 3   -853655.648 2
  20941082.390     1583519.799 3   1233911.769 2
  21368298.036   -10519022.668 3  -8196610.183 2
 91  7 30  1 44 45.0000000  0  3 17 03 23
  20680971.364    -1086715.779 3   -846787.086 2
  20945598.166     1607268.973 3   1252417.604 1
  21363709.109   -10543130.660 3  -8215395.587 2
 91  7 30  1 45  0.0000000  0  3 17 03 23
  20682658.896    -1077835.999 3   -839867.790 2
  20950144.515     1631142.692 2   1271020.498 1
  21359142.369   -10567133.944 2  -8234099.417 2
 91  7 30  1 45 15.0000000  0  3 17 03 23
  20684359.018    -1068891.572 3   -832898.104 2
  20954710.652     1655140.229 3   1289719.854 1
  21354592.120   -10591033.318 3  -8252722.260 2
 91  7 30  1 45 30.0000000  0  3 17 03 23
  20686075.326    -1059884.654 3   -825879.732 2
  20959298.376     1679259.659 2   1308514.200 2
  21350068.858   -10614830.461 2  -8271265.451 2
 91  7 30  1 45 45.0000000  0  3 17 03 23
  20687799.730    -1050817.922 3   -818814.745 2
  20963913.383     1703498.589 3   1327401.668 2
  21345555.778   -10638528.049 3  -8289731.062 2
 91  7 30  1 46  0.0000000  0  3 17 03 23
  20689534.936    -1041687.230 3   -811699.923 2
  20968544.278     1727861.055 3   1346385.391 2
  21341063.988   -10662121.884 3  -8308115.837 2
 91  7 30  1 46 15.0000000  0  3 17 03 23
  20691288.116    -1032494.072 3   -804536.422 2
  20973206.653     1752345.725 3   1365464.348 1
  21336593.783   -10685613.075 3  -8326420.625 2
 91  7 30  1 46 30.0000000  0  3 17 03 23
  20693047.002    -1023243.116 3   -797327.893 2
  20977887.910     1776947.735 3   1384634.726 1
  21332141.866   -10709006.505 3  -8344649.213 2
 91  7 30  1 46 45.0000000  0  3 17 03 23
  20694819.377    -1013931.357 3   -790071.976 2
  20982592.855     1801670.463 3   1403899.178 1
  21327710.331   -10732298.785 3  -8362799.013 2
 91  7 30  1 47  0.0000000  0  3 17 03 23
  20696601.044    -1004557.127 3   -782767.375 2
  20987319.979     1826515.467 3   1423258.908 2
  21323298.889   -10755488.407 3  -8380868.814 2
 91  7 30  1 47 15.0000000  0  3 17 03 23
  20698398.897     -995117.101 3   -775411.509 2
  20992070.792     1851486.145 3   1442716.566 1
  21318907.830   -10778571.665 3  -8398855.719 2
 91  7 30  1 47 30.0000000  0  3 17 03 23
  20700205.744     -985616.772 3   -768008.652 3
  20996847.388     1876577.327 2   1462268.128 1
  21314532.956   -10801553.968 2  -8416763.974 2
 91  7 30  1 47 45.0000000  0  3 17 03 23
  20702026.081     -976055.498 3   -760558.322 2
  21001646.765     1901789.554 3   1481913.990 1
  21310182.965   -10824434.547 3  -8434592.968 2
 91  7 30  1 48  0.0000000  0  3 17 03 23
  20703856.915     -966435.555 3   -753062.259 2
  21006464.430     1927120.488 3   1501652.369 1
  21305840.470   -10847215.576 3  -8452344.369 2
 91  7 30  1 48 15.0000000  0  3 17 03 23
  20705698.244     -956752.867 3   -745517.311 2
  21011309.675     1952574.563 3   1521486.686 1
  21301530.057   -10869893.076 3  -8470015.105 2
 91  7 30  1 48 30.0000000  0  3 17 03 23
  20707552.164     -947007.856 3   -737923.803 2
  21016178.599     1978150.875 3   1541416.283 2
  21297231.030   -10892467.448 3  -8487605.502 2
 91  7 30  1 48 45.0000000  0  3 17 03 23
  20709420.463     -937201.925 3   -730282.817 2
  21021069.119     2003848.387 3   1561440.301 1
  21292958.091   -10914939.722 3  -8505116.322 2
 91  7 30  1 49  0.0000000  0  3 17 03 23
  20711296.571     -927336.152 3   -722595.202 2
  21025977.316     2029666.312 3   1581558.139 1
  21288701.041   -10937310.695 3  -8522548.199 2
 91  7 30  1 49 15.0000000  0  3 17 03 23
  20713186.455     -917406.175 3   -714857.558 2
  21030918.196     2055608.933 3   1601773.148 1
  21284462.269   -10959575.837 3  -8539897.630 2
 91  7 30  1 49 30.0000000  0  3 17 03 23
  20715087.447     -907413.406 3   -707070.983 3
  21035878.264     2081674.717 2   1622084.125 1
  21280242.397   -10981736.636 3  -8557165.750 2
 91  7 30  1 49 45.0000000  0  3 17 03 23
  20717003.420     -897357.314 3   -699235.072 2
  21040861.714     2107864.344 3   1642491.622 1
  21276047.696   -11003792.785 3  -8574352.310 2
 91  7 30  1 50  0.0000000  0  3 17 03 23
  20718928.685     -887241.597 3   -691352.693 2
  21045864.352     2134174.112 3   1662992.732 1
  21271867.993   -11025747.670 3  -8591459.982 2
 91  7 30  1 50 15.0000000  0  3 17 03 23
  20720859.648     -877064.025 3   -683422.122 2
  21050896.968     2160606.571 3   1683589.433 1
  21267714.065   -11047598.795 3  -8608486.799 2
 91  7 30  1 50 30.0000000  0  3 17 03 23
  20722814.290     -866821.722 3   -675441.111 2
  21055949.373     2187164.397 3   1704283.806 1
  21263572.439   -11069343.371 3  -8625430.588 2
 91  7 30  1 50 45.0000000  0  3 17 03 23
  20724774.639     -856517.172 3   -667411.597 2
  21061027.858     2213845.235 3   1725074.053 1
  21259455.383   -11090983.723 3  -8642293.173 2
 91  7 30  1 51  0.0000000  0  3 17 03 23
  20726745.772     -846148.507 3   -659332.122 2
  21066129.420     2240651.094 3   1745961.703 1
  21255358.718   -11112517.781 3  -8659072.917 2
 91  7 30  1 51 15.0000000  0  3 17 03 23
  20728731.301     -835717.229 3   -651203.844 2
  21071254.977     2267580.516 3   1766945.672 1
  21251276.449   -11133947.045 3  -8675771.017 2
 91  7 30  1 51 30.0000000  0  3 17 03 23
  20730728.514     -825220.440 3   -643024.535 2
  21076398.812     2294636.390 3   1788028.148 1
  21247222.955   -11155268.450 3  -8692385.056 2
 91  7 30  1 51 45.0000000  0  4 17 03 16 23
  20732739.224     -814660.797 3   -634796.250 2
  21081573.831     2321815.794 3   1809206.902 1
  25835193.370     -108056.31712    -84210.056 1
  21243182.950   -11176484.697 3  -8708917.160 2
 91  7 30  1 52  0.0000000  0  3 17 03 23
  20734761.625     -804037.376 3   -626518.261 2
  21086770.733     2349120.377 3   1830483.166 1
  21239168.728   -11197594.399 3  -8725366.246 2
 91  7 30  1 52 15.0000000  0  3 17 03 23
  20736792.421     -793353.576 3   -618193.216 2
  21091987.720     2376545.896 3   1851853.714 1
  21235170.997   -11218601.303 3  -8741735.225 2
 91  7 30  1 52 30.0000000  0  3 17 03 23
  20738838.197     -782603.913 3   -609816.860 2
  21097228.396     2404098.477 3   1873323.219 1
  21231191.553   -11239499.847 3  -8758019.766 2
 91  7 30  1 52 45.0000000  0  3 17 03 23
  20740895.674     -771795.882 3   -601395.019 2
  21102497.245     2431770.336 3   1894885.682 1
  21227232.788   -11260297.539 3  -8774225.731 2
 91  7 30  1 53  0.0000000  0  4 17 03 16 23
  20742963.646     -760930.118 3   -592928.187 2
  21107786.187     2459560.928 3   1916540.656 1
  25889369.464      -96676.200 2    -75342.402 1
  21223297.415   -11280994.513 3  -8790353.201 2
 91  7 30  1 53 15.0000000  0  3 17 03 23
  20745040.004     -750000.279 3   -584411.427 2
  21113094.605     2487476.816 3   1938293.274 1
  21219380.932   -11301584.387 3  -8806397.231 2
 91  7 30  1 53 30.0000000  0  3 17 03 23
  20747132.861     -739010.058 3   -575847.613 2
  21118433.612     2515514.269 3   1960140.628 1
  21215477.929   -11322070.827 3  -8822360.649 2
 91  7 30  1 53 45.0000000  0  3 17 03 23
  20749239.198     -727957.811 3   -567235.474 2
  21123792.103     2543674.799 3   1982083.886 1
  21211603.413   -11342452.061 3  -8838242.101 2
 91  7 30  1 54  0.0000000  0  3 17 03 23
  20751349.741     -716843.548 3   -558575.019 2
  21129172.180     2571958.896 3   2004123.410 1
  21207745.685   -11362727.993 3  -8854041.502 2
 91  7 30  1 54 15.0000000  0  3 17 03 23
  20753478.266     -705667.130 3   -549866.110 2
  21134582.532     2600366.200 3   2026258.970 1
  21203904.438   -11382898.560 3  -8869758.790 2
 91  7 30  1 54 30.0000000  0  3 17 03 23
  20755618.483     -694428.147 3   -541108.462 2
  21140009.079     2628897.768 3   2048491.317 1
  21200086.889   -11402962.906 3  -8885393.303 2
 91  7 30  1 54 45.0000000  0  3 17 03 23
  20757769.493     -683124.787 3   -532300.652 2
  21145463.799     2657554.924 3   2070821.573 1
  21196290.010   -11422919.322 3  -8900943.739 2
 91  7 30  1 55  0.0000000  0  3 17 03 23
  20759932.500     -671758.238 3   -523443.596 2
  21150943.708     2686336.593 3   2093248.820 1
  21192511.732   -11442769.118 3  -8916411.065 2
 91  7 30  1 55 15.0010000  0  3 17 03 23
  20762105.692     -660327.819 3   -514536.768 2
  21156440.704     2715244.686 3   2115774.602 1
  21188753.831   -11462513.509 3  -8931796.278 2
 91  7 30  1 55 30.0010000  0  3 17 03 23
  20764292.981     -648835.142 3   -505581.435 2
  21161963.777     2744275.276 3   2138395.802 1
  21185019.013   -11482149.804 3  -8947097.252 2
 91  7 30  1 55 45.0010000  0  3 17 03 23
  20766490.757     -637281.388 3   -496578.511 2
  21167513.234     2773428.451 3   2161112.537 1
  21181301.593   -11501681.217 3  -8962316.504 2
 91  7 30  1 56  0.0010000  0  3 17 03 23
  20768701.726     -625668.774 3   -487529.720 2
  21173084.583     2802702.090 3   2183923.144 1
  21177603.351   -11521109.833 3  -8977455.648 2
 91  7 30  1 56 15.0010000  0  3 17 03 23
  20770924.387     -613997.300 3   -478435.055 2
  21178678.407     2832095.910 3   2206827.393 1
  21173927.891   -11540435.644 3  -8992514.698 2
 91  7 30  1 56 30.0010000  0  3 17 03 23
  20773153.949     -602263.498 3   -469291.842 2
  21184293.215     2861613.558 3   2229828.148 1
  21170270.430   -11559655.089 3  -9007490.842 2
 91  7 30  1 56 45.0010000  0  3 17 03 23
  20775400.891     -590468.746 3   -460101.125 2
  21189933.815     2891253.614 3   2252924.295 1
  21166628.552   -11578769.607 3  -9022385.245 2
 91  7 30  1 57  0.0010000  0  3 17 03 23
  20777659.525     -578609.593 3   -450860.231 2
  21195600.188     2921019.661 3   2276118.558 1
  21163014.551   -11597775.619 3  -9037195.086 2
 91  7 30  1 57 15.0010000  0  3 17 03 23
  20779927.451     -566689.964 3   -441572.189 2
  21201285.155     2950907.717 3   2299407.955 1
  21159417.336   -11616676.834 3  -9051923.274 2
 91  7 30  1 57 30.0010000  0  3 17 03 23
  20782206.476     -554706.777 3   -432234.641 2
  21206998.601     2980921.040 3   2322794.944 2
  21155839.614   -11635470.013 3  -9066567.284 2
 91  7 30  1 57 45.0010000  0  3 17 03 23
  20784497.489     -542663.853 3   -422850.553 2
  21212731.835     3011055.504 3   2346276.301 1
  21152283.181   -11654159.033 3  -9081130.113 2
 91  7 30  1 58  0.0010000  0  3 17 03 23
  20786799.600     -530562.699 3   -413421.078 2
  21218487.545     3041309.859 3   2369851.119 1
  21148747.130   -11672745.204 3  -9095612.811 2
 91  7 30  1 58 15.0010000  0  3 17 03 23
  20789115.497     -518399.933 3   -403943.591 2
  21224269.343     3071687.276 3   2393521.789 1
  21145231.461   -11691225.337 3  -9110012.889 2
 91  7 30  1 58 30.0010000  0  3 17 03 23
  20791440.389     -506178.465 3   -394420.366 2
  21230071.523     3102185.054 3   2417286.289 1
  21141734.682   -11709602.166 3  -9124332.468 2
 91  7 30  1 58 45.0010000  0  3 17 03 23
  20793778.762     -493896.113 3   -384849.697 2
  21235902.487     3132805.263 3   2441146.173 1
  21138259.192   -11727873.552 3  -9138569.876 2
 91  7 30  1 59  0.0010000  0  3 17 03 23
  20796128.835     -481556.978 3   -375234.784 2
  21241748.144     3163543.832 3   2465098.289 1
  21134800.183   -11746043.326 3  -9152728.104 2
 91  7 30  1 59 15.0010000  0  3 17 03 23
  20798484.606     -469160.115 3   -365574.883 2
  21247622.577     3194401.752 3   2489143.389 1
  21131361.862   -11764110.465 3  -9166806.359 2
 91  7 30  1 59 30.0010000  0  3 17 03 23
  20800855.663     -456702.998 3   -355868.033 2
  21253517.400     3225381.389 3   2513283.355 1
  21127943.330   -11782072.599 3  -9180802.804 2
 91  7 30  1 59 45.0010000  0  3 17 03 23
  20803235.716     -444189.998 3   -346117.643 3
  21259434.402     3256478.697 3   2537515.008 1
  21124547.578   -11799933.895 3  -9194720.655 2
 91  7 30  2  0  0.0010000  0  3 17 03 23
  20805629.266     -431616.367 3   -336320.009 2
  21265377.187     3287698.266 3   2561841.912 1
  21121165.622   -11817689.457 3  -9208556.124 2
 91  7 30  2  0 15.0010000  0  3 17 03 23
  20808031.498     -418985.738 3   -326477.959 2
  21271338.557     3319036.345 3   2586261.168 1
  21117809.447   -11835342.925 3  -9222312.050 2
 91  7 30  2  0 30.0010000  0  3 17 03 23
  20810445.727     -406296.343 3   -316590.116 2
  21277324.217     3350494.780 3   2610774.191 1
  21114468.560   -11852892.576 3  -9235987.077 2
 91  7 30  2  0 45.0010000  0  3 17 03 23
  20812872.546     -393551.180 3   -306658.818 2
  21283332.955     3382070.496 3   2635378.631 1
  21111147.460   -11870341.355 3  -9249583.500 2
 91  7 30  2  1  0.0010000  0  3 17 03 23
  20815308.658     -380748.583 3   -296682.764 2
  21289366.281     3413765.362 3   2660075.902 1
  21107846.446   -11887687.349 3  -9263099.825 2
 91  7 30  2  1 15.0010000  0  3 17 03 23
  20817757.063     -367887.569 3   -286661.192 3
  21295418.784     3445580.247 3   2684866.723 1
  21104565.517   -11904929.485 3  -9276535.213 2
 91  7 30  2  1 30.0010000  0  3 17 03 23
  20820218.067     -354968.655 3   -276594.498 3
  21301496.477     3477514.705 3   2709750.687 1
  21101299.875   -11922068.460 3  -9289890.230 2
 91  7 30  2  1 45.0010000  0  3 17 03 23
  20822682.954     -341989.358 3   -266480.761 2
  21307596.960     3509570.889 2   2734729.524 1
  21098063.619   -11939101.799 3  -9303162.940 2
 91  7 30  2  2  0.0010000  0  3 17 03 23
  20825164.637     -328950.674 3   -256320.745 2
  21313722.614     3541748.033 3   2759802.563 1
  21094842.343   -11956030.480 3  -9316354.087 2
 91  7 30  2  2 15.0010000  0  3 17 03 23
  20827658.613     -315857.811 3   -246118.516 2
  21319863.267     3574040.768 3   2784965.721 1
  21091636.965   -11972859.299 3  -9329467.425 2
 91  7 30  2  2 30.0010000  0  3 17 03 23
  20830159.177     -302705.795 3   -235870.192 2
  21326030.899     3606454.178 3   2810222.923 1
  21088454.368   -11989583.282 3  -9342499.076 2
 91  7 30  2  2 45.0010000  0  3 17 03 23
  20832673.841     -289496.354 3   -225577.120 2
  21332221.014     3638986.470 3   2835572.714 1
  21085292.755   -12006204.234 3  -9355450.426 2
 91  7 30  2  3  0.0010000  0  3 17 03 23
  20835200.789     -276225.132 3   -215235.895 2
  21338436.904     3671642.137 3   2861018.666 1
  21082149.430   -12022717.605 3  -9368317.966 2
 91  7 30  2  3 15.0010000  0  3 17 03 23
  20837734.334     -262895.396 3   -204849.083 2
  21344676.788     3704417.787 3   2886558.111 1
  21079030.090   -12039126.690 3  -9381104.229 2
 91  7 30  2  3 30.0010000  0  3 17 03 23
  20840282.868     -249503.809 3   -194414.081 2
  21350934.654     3737316.678 3   2912193.587 1
  21075924.841   -12055428.262 3  -9393806.715 2
 91  7 30  2  3 45.0010000  0  3 17 03 23
  20842841.899     -236053.145 3   -183933.046 3
  21357219.202     3770336.060 3   2937922.951 1
  21072841.179   -12071624.931 3  -9406427.477 2
 91  7 30  2  4  0.0010000  0  3 17 03 23
  20845415.021     -222542.382 3   -173405.185 2
  21363523.538     3803476.687 3   2963746.791 1
  21069781.798   -12087715.848 3  -9418965.823 2
 91  7 30  2  4 15.0010000  0  3 17 03 23
  20847998.334     -208972.925 3   -162831.569 2
  21369855.157     3836737.500 3   2989664.290 1
  21066738.000   -12103702.090 3  -9431422.611 2
 91  7 30  2  4 30.0010000  0  3 17 03 23
  20850592.134     -195339.923 3   -152208.460 2
  21376209.558     3870123.128 3   3015679.041 1
  21063721.791   -12119578.843 3  -9443794.071 2
 91  7 30  2  4 45.0010000  0  3 17 03 23
  20853193.133     -181648.067 3   -141539.474 2
  21382586.740     3903629.025 3   3041787.510 1
  21060715.171   -12135350.805 3  -9456083.886 2
 91  7 30  2  5  0.0010000  0  3 17 03 23
  20855813.623     -167897.549 3   -130824.784 3
  21388984.313     3937254.823 3   3067989.423 1
  21057735.834   -12151018.086 3  -9468292.134 2
 91  7 30  2  5 15.0010000  0  3 17 03 23
  20858440.099     -154088.695 3   -120064.631 2
  21395405.871     3971000.526 3   3094284.734 1
  21054774.480   -12166580.769 3  -9480418.875 2
 91  7 30  2  5 30.0010000  0  3 17 03 23
  20861079.174     -140222.276 3   -109259.641 3
  21401847.811     4004864.675 3   3120672.355 1
  21051832.024   -12182039.717 3  -9492464.769 2
 91  7 30  2  5 45.0010000  0  3 17 03 23
  20863729.339     -126297.066 3    -98408.826 2
  21408312.235     4038848.922 3   3147153.583 1
  21048911.145   -12197393.810 3  -9504428.987 2
 91  7 30  2  6  0.0010000  0  3 17 03 23
  20866391.500     -112311.541 3    -87511.012 2
  21414807.538     4072954.575 3   3173729.381 1
  21046007.351   -12212641.480 3  -9516310.257 2
 91  7 30  2  6 15.0010000  0  3 17 03 23
  20869062.649      -98268.668 3    -76568.517 2
  21421317.830     4107178.730 3   3200397.521 1
  21043128.745   -12227785.630 3  -9528110.866 2
 91  7 30  2  6 30.0010000  0  3 17 03 23
  20871746.693      -84166.543 3    -65579.854 2
  21427851.811     4141523.146 3   3227159.389 1
  21040267.529   -12242824.181 3  -9539829.199 2
 91  7 30  2  6 45.0010000  0  3 17 03 23
  20874441.521      -70005.655 3    -54545.389 2
  21434410.667     4175987.310 3   3254014.554 1
  21037423.396   -12257757.773 3  -9551465.729 2
 91  7 30  2  7  0.0010000  0  3 17 03 23
  20877147.448      -55784.896 3    -43464.280 2
  21440995.306     4210572.269 3   3280963.851 1
  21034601.749   -12272585.299 3  -9563019.632 2
 91  7 30  2  7 15.0010000  0  3 17 03 23
  20879865.668      -41505.475 3    -32337.451 2
  21447599.734     4245276.698 3   3308006.253 1
  21031802.289   -12287307.921 3  -9574491.773 2
 91  7 30  2  7 30.0010000  0  3 17 03 23
  20882595.580      -27169.929 3    -21166.906 2
  21454221.847     4280098.345 3   3335139.972 1
  21029018.412   -12301927.942 3  -9585883.976 2
 91  7 30  2  7 45.0010000  0  3 17 03 23
  20885335.081      -12778.100 3     -9952.501 2
  21460870.651     4315037.194 3   3362365.027 1
  21026255.528   -12316445.297 3  -9597196.185 2
 91  7 30  2  8  0.0010000  0  3 17 03 23
  20888079.085        1673.091 3      1308.165 2
  21467543.727     4350096.079 3   3389683.610 1
  21023513.924   -12330856.957 3  -9608426.020 2
 91  7 30  2  8 15.0010000  0  3 17 03 23
  20890841.672       16182.116 3     12613.900 2
  21474239.594     4385273.787 3   3417094.797 1
  21020790.006   -12345164.277 3  -9619574.559 2
 91  7 30  2  8 30.0010000  0  3 17 03 23
  20893614.747       30744.648 3     23961.320 2
  21480956.741     4420565.590 3   3444594.868 1
  21018086.479   -12359371.525 3  -9630645.115 2
 91  7 30  2  8 45.0010000  0  3 17 03 23
  20896395.326       45364.877 3     35353.703 2
  21487692.482     4455975.727 3   3472187.150 1
  21015403.037   -12373474.481 3  -9641634.412 2
 91  7 30  2  9  0.0010000  0  3 17 03 23
  20899189.394       60041.835 3     46790.296 2
  21494453.699     4491503.175 3   3499870.839 1
  21012739.680   -12387474.333 3  -9652543.373 2
 91  7 30  2  9 15.0010000  0  3 17 03 23
  20901994.255       74778.370 3     58273.313 2
  21501235.901     4527150.435 3   3527647.896 1
  21010094.017   -12401368.192 3  -9663369.736 2
 91  7 30  2  9 30.0010000  0  3 17 03 23
  20904811.104       89574.756 3     69802.956 2
  21508042.995     4562918.012 3   3555518.742 1
  21007471.433   -12415155.694 3  -9674113.215 2
 91  7 30  2  9 45.0010000  0  3 17 03 23
  20907633.947      104427.603 3     81376.607 2
  21514870.166     4598802.655 3   3583480.751 1
  21004867.433   -12428840.036 3  -9684776.319 2
 91  7 30  2 10  0.0010000  0  3 17 03 23
  20910472.679      119337.575 3     92994.758 2
  21521722.518     4634804.920 3   3611534.452 1
  21002283.823   -12442420.611 3  -9695358.574 2
 91  7 30  2 10 15.0010000  0  3 17 03 23
  20913321.313      134306.052 3    104658.498 2
  21528596.167     4670925.622 3   3639680.438 1
  20999718.196   -12455896.354 3  -9705859.125 2
 91  7 30  2 10 30.0010000  0  3 17 03 23
  20916180.130      149332.857 3    116367.699 2
  21535491.088     4707165.072 3   3667918.953 1
  20997176.555   -12469267.091 3  -9716277.854 2
 91  7 30  2 10 45.0010000  0  3 17 03 23
  20919050.045      164416.720 3    128121.358 2
  21542413.599     4743521.914 2   3696248.934 1
  20994649.004   -12482533.953 3  -9726615.642 2
 91  7 30  2 11  0.0010000  0  3 17 03 23
  20921930.745      179559.209 3    139920.702 2
  21549351.997     4779997.568 2   3724671.468 1
  20992145.142   -12495695.426 3  -9736871.332 2
 91  7 30  2 11 15.0010000  0  3 17 03 23
  20924822.551      194757.748 3    151763.725 3
  21556315.271     4816589.463 3   3753184.611 1
  20989658.957   -12508754.026 3  -9747046.831 2
 91  7 30  2 11 30.0010000  0  3 17 03 23
  20927728.431      210014.213 3    163651.873 2
  21563298.935     4853299.176 3   3781789.531 1
  20987194.664   -12521708.007 3  -9757140.846 2
 91  7 30  2 11 45.0010000  0  3 17 03 23
  20930644.816      225328.893 3    175585.380 3
  21570307.484     4890126.984 3   3810486.528 1
  20984751.057   -12534557.311 3  -9767153.249 2
 91  7 30  2 12  0.0010000  0  3 17 03 23
  20933567.195      240698.209 3    187561.474 2
  21577337.321     4927069.389 3   3839272.778 1
  20982322.441   -12547304.957 3  -9777086.467 2
 91  7 30  2 12 15.0010000  0  3 17 03 23
  20936501.563      256124.671 3    199582.098 2
  21584388.736     4964128.821 3   3868150.228 1
  20979920.505   -12559948.685 3  -9786938.704 2
 91  7 30  2 12 30.0010000  0  3 17 03 23
  20939447.020      271609.444 3    211648.145 2
  21591465.340     5001306.151 2   3897119.558 1
  20977532.652   -12572487.560 3  -9796709.230 2
 91  7 30  2 12 45.0010000  0  3 17 03 23
  20942407.772      287151.094 3    223758.519 2
  21598559.631     5038600.123 2   3926179.770 1
  20975167.895   -12584922.606 3  -9806398.853 2
 91  7 30  2 13  0.0010000  0  3 17 03 23
  20945372.425      302750.849 3    235914.182 2
  21605679.398     5076011.952 2   3955331.826 1
  20972819.916   -12597252.826 3  -9816006.802 2
 91  7 30  2 13 15.0010000  0  3 17 03 23
  20948353.855      318404.656 3    248111.947 2
  21612824.355     5113537.331 3   3984572.348 1
  20970492.633   -12609482.095 3  -9825536.075 2
 91  7 30  2 13 30.0010000  0  3 17 03 23
  20951346.987      334114.817 3    260353.628 2
  21619986.997     5151178.368 2   4013902.972 1
  20968183.629   -12621608.477 3  -9834985.180 2
 91  7 30  2 13 45.0010000  0  3 17 03 23
  20954343.713      349885.283 3    272642.296 2
  21627170.624     5188938.925 3   4043326.769 1
  20965898.610   -12633627.902 3  -9844350.943 2
 91  7 30  2 14  0.0010000  0  3 17 03 23
  20957356.021      365711.242 3    284974.210 2
  21634380.033     5226814.182 3   4072839.912 1
  20963626.783   -12645545.152 3  -9853637.093 2
 91  7 30  2 14 15.0010000  0  3 17 03 23
  20960378.233      381597.451 3    297353.087 2
  21641609.527     5264808.823 2   4102446.088 1
  20961379.536   -12657355.462 3  -9862839.916 2
 91  7 30  2 14 30.0010000  0  3 17 03 23
  20963414.833      397544.170 3    309779.089 2
  21648858.208     5302923.060 3   4132145.468 1
  20959155.374   -12669058.354 3  -9871959.038 2
 91  7 30  2 14 45.0010000  0  3 17 03 23
  20966459.224      413545.877 3    322247.949 2
  21656135.071     5341151.379 2   4161933.733 1
  20956949.205   -12680659.374 3  -9880998.760 2
 91  7 30  2 15  0.0010000  0  3 17 03 23
  20969514.112      429607.303 3    334763.353 2
  21663432.918     5379498.535 2   4191814.595 1
  20954762.823   -12692153.949 3  -9889955.559 2
 91  7 30  2 15 15.0010000  0  3 17 03 23
  20972583.387      445728.034 3    347324.964 2
  21670752.350     5417963.919 3   4221787.616 1
  20952594.721   -12703542.427 3  -9898829.673 2
 91  7 30  2 15 30.0010000  0  3 17 03 23
  20975660.454      461903.176 3    359928.969 2
  21678093.369     5456542.359 2   4251848.672 1
  20950443.711   -12714829.667 3  -9907624.900 2
 91  7 30  2 15 45.0010000  0  3 17 03 23
  20978750.713      478135.315 3    372577.381 2
  21685461.069     5495236.442 2   4281999.896 1
  20948316.381   -12726013.317 3  -9916339.424 2
 91  7 30  2 16  0.0010000  0  3 17 03 23
  20981848.772      494421.752 3    385268.113 2
  21692840.758     5534043.561 2   4312239.189 1
  20946207.339   -12737095.785 3  -9924975.082 2
 91  7 30  2 16 15.0010000  0  3 17 03 23
  20984959.116      510765.821 3    398003.749 2
  21700247.127     5572966.753 2   4342568.922 1
  20944120.485   -12748073.953 3  -9933529.491 2
 91  7 30  2 16 30.0010000  0  3 17 03 23
  20988080.550      527168.025 3    410784.684 2
  21707679.288     5612006.581 3   4372989.533 1
  20942050.121   -12758947.149 3  -9942002.083 2
 91  7 30  2 16 45.0010000  0  3 17 03 23
  20991212.184      543629.056 3    423611.461 2
  21715128.228     5651163.457 3   4403501.329 1
  20940002.836   -12769714.888 3  -9950392.510 2
 91  7 30  2 17  0.0010000  0  3 17 03 23
  20994356.713      560147.323 3    436482.833 2
  21722604.154     5690435.835 3   4434103.122 1
  20937972.346   -12780378.580 3  -9958701.860 2
 91  7 30  2 17 15.0010000  0  3 17 03 23
  20997511.128      576719.869 3    449396.512 2
  21730098.962     5729820.567 3   4464792.512 1
  20935965.230   -12790941.321 3  -9966932.554 2
 91  7 30  2 17 30.0010000  0  3 17 03 23
  21000673.037      593347.653 3    462353.221 2
  21737612.362     5769318.441 2   4495570.038 1
  20933971.011   -12801402.311 3  -9975083.951 2
 91  7 30  2 17 45.0010000  0  3 17 03 23
  21003847.537      610034.150 3    475355.680 2
  21745150.944     5808933.043 3   4526438.499 1
  20932001.073   -12811758.077 3  -9983153.357 2
 91  7 30  2 18  0.0010000  0  3 17 03 23
  21007035.230      626778.984 3    488403.603 2
  21752712.908     5848663.692 2   4557397.445 1
  20930051.230   -12822008.741 3  -9991140.860 2
 91  7 30  2 18 15.0010000  0  3 17 03 23
  21010231.315      643579.629 3    501495.016 2
  21760293.161     5888507.752 3   4588444.730 1
  20928119.063   -12832156.960 3  -9999048.563 2
 91  7 30  2 18 30.0010000  0  3 17 03 23
  21013442.400      660437.589 3    514631.079 2
  21767898.594     5928466.768 3   4619581.604 1
  20926208.185   -12842201.277 3 -10006875.274 2
 91  7 30  2 18 45.0010000  0  3 17 03 23
  21016660.368      677350.743 3    527810.160 2
  21775527.114     5968538.322 3   4650806.112 1
  20924315.901   -12852143.932 3 -10014622.770 2
 91  7 30  2 19  0.0010000  0  3 17 03 23
  21019887.332      694316.937 3    541030.578 2
  21783170.021     6008720.414 3   4682116.803 1
  20922442.498   -12861986.914 3 -10022292.609 2
 91  7 30  2 19 15.0010000  0  3 17 03 23
  21023124.191      711341.774 3    554296.687 2
  21790837.516     6049018.356 2   4713517.788 1
  20920589.774   -12871724.733 3 -10029880.501 2
 91  7 30  2 19 30.0010000  0  3 17 03 23
  21026378.744      728422.475 3    567606.326 2
  21798525.995     6089429.680 2   4745007.070 1
  20918756.245   -12881359.899 3 -10037388.411 2
 91  7 30  2 19 45.0010000  0  3 17 03 23
  21029638.383      745559.338 3    580959.725 2
  21806241.451     6129954.278 3   4776584.640 1
  20916942.504   -12890892.316 3 -10044816.254 2
 91  7 30  2 20  0.0010000  0  3 17 03 23
  21032909.121      762749.737 3    594354.831 2
  21813972.500     6170589.319 3   4808248.261 1
  20915146.449   -12900324.770 3 -10052166.188 2
 91  7 30  2 20 15.0010000  0  3 17 03 23
  21036191.551      779995.908 3    607793.410 2
  21821728.729     6211337.171 2   4839999.803 1
  20913372.870   -12909654.808 3 -10059436.339 2
 91  7 30  2 20 30.0010000  0  3 17 03 23
  21039485.663      797297.474 3    621275.138 2
  21829503.848     6252196.937 2   4871838.549 1
  20911616.689   -12918882.959 3 -10066627.080 2
 91  7 30  2 20 45.0010000  0  3 17 03 23
  21042785.779      814654.371 3    634799.995 2
  21837299.052     6293168.471 2   4903764.374 1
  20909877.591   -12928009.518 3 -10073738.664 2
 91  7 30  2 21  0.0010000  0  3 17 03 23
  21046101.486      832070.879 3    648371.301 2
  21845119.140     6334256.264 2   4935780.808 1
  20908160.682   -12937029.999 3 -10080767.595 2
 91  7 30  2 21 15.0010000  0  3 17 03 23
  21049423.187      849541.184 3    661984.526 2
  21852956.312     6375454.223 2   4967883.088 1
  20906464.756   -12945950.331 3 -10087718.485 2
 91  7 30  2 21 30.0010000  0  3 17 03 23
  21052760.480      867062.747 3    675637.683 2
  21860817.470     6416759.632 2   5000069.062 1
  20904784.422   -12954773.037 3 -10094593.306 2
 91  7 30  2 21 45.0010000  0  3 17 03 23
  21056106.463      884639.968 3    689334.217 2
  21868701.112     6458176.775 2   5032342.111 1
  20903128.362   -12963493.766 3 -10101388.660 2
 91  7 30  2 22  0.0010000  0  3 17 03 23
  21059459.942      902271.108 3    703072.768 2
  21876601.541     6499703.822 2   5064700.782 1
  20901485.206   -12972114.442 3 -10108106.053 2
 91  7 30  2 22 15.0010000  0  3 17 03 23
  21062824.509      919956.410 3    716853.519 2
  21884527.456     6541340.890 2   5097145.232 1
  20899863.923   -12980634.620 3 -10114745.139 2
 91  7 30  2 22 30.0010000  0  3 17 03 23
  21066202.269      937696.734 3    730677.140 2
  21892472.557     6583089.090 2   5129676.263 1
  20898263.032   -12989053.445 3 -10121305.241 2
 91  7 30  2 22 45.0010000  0  3 17 03 23
  21069589.627      955494.279 3    744545.348 2
  21900438.643     6624950.124 2   5162295.189 1
  20896679.529   -12997368.931 3 -10127784.832 2
 91  7 30  2 23  0.0010000  0  3 17 03 23
  21072986.277      973347.595 3    758457.017 2
  21908419.413     6666922.426 2   5195000.852 1
  20895118.808   -13005582.313 3 -10134184.848 2
 91  7 30  2 23 15.0010000  0  3 17 03 23
  21076394.017      991253.937 3    772410.009 2
  21916431.671     6709003.062 2   5227790.900 1
  20893574.280   -13013696.513 3 -10140507.586 2
 91  7 30  2 23 30.0010000  0  3 17 03 23
  21079811.947     1009214.661 3    786405.373 2
  21924461.607     6751193.234 2   5260666.325 1
  20892050.431   -13021710.513 3 -10146752.240 2
 91  7 30  2 23 45.0010000  0  3 17 03 23
  21083237.381     1027230.262 3    800443.493 2
  21932510.442     6793493.495 2   5293627.505 1
  20890541.581   -13029623.328 3 -10152918.063 2
 91  7 30  2 24  0.0010000  0  3 17 03 23
  21086680.493     1045301.299 3    814524.824 2
  21940574.257     6835904.124 2   5326674.718 1
  20889057.902   -13037434.688 3 -10159004.817 2
 91  7 30  2 24 15.0010000  0  3 17 03 23
  21090127.513     1063428.645 3    828650.022 2
  21948668.357     6878426.028 2   5359808.637 1
  20887587.128   -13045143.667 3 -10165011.803 2
 91  7 30  2 24 30.0010000  0  3 17 03 23
  21093589.810     1081612.505 3    842819.257 2
  21956781.932     6921059.218 2   5393029.230 1
  20886142.424   -13052750.194 3 -10170938.951 2
 91  7 30  2 24 45.0010000  0  3 17 03 23
  21097057.212     1099853.294 3    857032.852 2
  21964918.602     6963803.937 2   5426336.753 1
  20884713.016   -13060253.861 3 -10176785.958 2
 91  7 30  2 25  0.0010000  0  3 17 03 23
  21100541.994     1118153.154 3    871292.478 2
  21973073.560     7006662.148 2   5459732.706 1
  20883303.693   -13067652.516 3 -10182551.133 2
 91  7 30  2 25 15.0010000  0  3 17 03 23
  21104035.484     1136510.474 3    885596.887 2
  21981249.196     7049631.941 2   5493215.625 1
  20881915.650   -13074948.071 3 -10188235.963 2
 91  7 30  2 25 30.0010000  0  3 17 03 23
  21107539.157     1154922.643 3    899944.020 2
  21989451.523     7092710.832 2   5526783.569 1
  20880548.295   -13082143.105 3 -10193842.476 2
 91  7 30  2 25 45.0010000  0  3 17 03 23
  21111054.224     1173391.470 3    914335.299 2
  21997670.933     7135900.466 2   5560437.777 1
  20879198.328   -13089235.721 3 -10199369.164 2
 91  7 30  2 26  0.0010000  0  3 17 03 23
  21114578.278     1191917.255 3    928770.967 2
  22005905.927     7179200.939 2   5594178.339 1
  20877869.355   -13096225.626 3 -10204815.848 2
 91  7 30  2 26 15.0010000  0  3 17 03 23
  21118114.634     1210499.788 3    943250.858 2
  22014166.711     7222611.847 2   5628005.012 1
  20876558.957   -13103113.227 3 -10210182.793 2
 91  7 30  2 26 30.0010000  0  3 17 03 23
  21121663.276     1229138.235 3    957774.321 2
  22022452.371     7266132.408 2   5661917.036 1
  20875267.754   -13109899.127 3 -10215470.498 2
 91  7 30  2 26 45.0010000  0  3 17 03 23
  21125218.819     1247826.799 3    972336.828 2
  22030752.131     7309756.634 2   5695909.924 1
  20873992.440   -13116589.374 3 -10220683.667 2
 91  7 30  2 27  0.0010000  0  3 17 03 23
  21128783.348     1266572.262 3    986943.671 2
  22039076.164     7353490.963 2   5729988.562 1
  20872738.999   -13123177.235 3 -10225817.043 2
 91  7 30  2 27 15.0010000  0  3 17 03 23
  21132360.774     1285374.248 3   1001594.574 2
  22047417.892     7397335.157 2   5764152.853 1
  20871503.856   -13129662.990 3 -10230870.871 2
 91  7 30  2 27 30.0010000  0  3 17 03 23
  21135949.586     1304232.957 3   1016289.669 2
  22055780.298     7441289.208 2   5798402.710 1
  20870289.102   -13136046.610 3 -10235845.109 2
 91  7 30  2 27 45.0010000  0  4 17 21 03 23
  21139550.098     1323149.592 3   1031029.894 2
  23791678.766           0.259 2         0.114 1
  22064168.495     7485353.874 2   5832738.752 1
  20869096.825   -13142327.100 3 -10240738.971 2
 91  7 30  2 28  0.0010000  0  4 17 21 03 23
  21143159.893     1342123.746 3   1045814.947 2
  23783748.951      -41652.576 2    -32456.560 1
  22072572.878     7529528.789 2   5867160.718 1
  20867922.539   -13148504.855 3 -10245552.810 2
 91  7 30  2 28 15.0010000  0  4 17 21 03 23
  21146780.185     1361156.600 3   1060645.731 2
  23775834.728      -83256.539 2    -64875.145 1
  22080997.939     7573815.000 2   5901669.407 1
  20866763.242   -13154578.498 3 -10250285.504 2
 91  7 30  2 28 30.0010000  0  4 17 21 03 23
  21150416.069     1380243.425 3   1075518.581 2
  23767926.507     -124816.244 2    -97259.181 1
  22089446.392     7618207.438 2   5936260.875 1
  20865627.329   -13160553.127 3 -10254941.046 2
 91  7 30  2 28 45.0010000  0  4 17 21 03 23
  21154058.549     1399387.738 3   1090436.220 2
  23760023.679     -166328.024 2   -129605.913 1
  22097916.431     7662709.641 2   5970937.851 1
  20864507.601   -13166425.010 3 -10259516.530 2
 91  7 30  2 29  0.0010000  0  4 17 21 03 23
  21157710.618     1418590.632 3   1105399.517 2
  23752130.439     -207790.415 2   -161914.201 1
  22106405.351     7707322.629 2   6005701.170 1
  20863409.459   -13172193.144 3 -10264011.162 2
 91  7 30  2 29 15.0010000  0  4 17 21 03 23
  21161379.483     1437854.678 3   1120410.457 2
  23744249.799     -249200.650 2   -194181.860 1
  22114917.358     7752048.917 2   6040552.764 1
  20862335.005   -13177854.787 3 -10268422.828 2
 91  7 30  2 29 30.0010000  0  4 17 21 03 23
  21165056.435     1457179.254 3   1135468.556 2
  23736383.843     -290559.690 2   -226409.519 1
  22123448.255     7796887.350 2   6075491.765 1
  20861279.136   -13183411.177 3 -10272752.462 2
 91  7 30  2 29 45.0010000  0  4 17 21 03 23
  21168742.087     1476560.403 3   1150570.765 2
  23728514.894     -331871.086 2   -258600.123 1
  22132001.034     7841834.018 2   6110515.111 1
  20860237.655   -13188866.040 3 -10277003.000 2
 91  7 30  2 30  0.0010000  0  4 17 21 03 23
  21172442.423     1496002.730 3   1165720.625 2
  23720667.226     -373130.069 2   -290749.897 1
  22140578.401     7886893.384 2   6145626.199 1
  20859221.363   -13194214.917 3 -10281170.940 2
 91  7 30  2 30 15.0010000  0  4 17 21 03 23
  21176157.749     1515505.228 3   1180917.373 2
  23712824.356     -414337.514 2   -322859.477 1
  22149171.045     7932064.182 2   6180824.255 1
  20858223.053   -13199458.774 3 -10285257.042 2
 91  7 30  2 30 30.0010000  0  4 17 21 03 23
  21179878.179     1535069.229 3   1196162.053 2
  23704996.773     -455492.129 2   -354927.943 1
  22157791.278     7977347.738 2   6216110.087 1
  20857245.431   -13204596.456 3 -10289260.427 2
 91  7 30  2 30 45.0010000  0  4 17 21 03 23
  21183611.793     1554690.287 3   1211451.189 2
  23697173.692     -496598.265 2   -386958.575 1
  22166428.298     8022739.153 2   6251479.980 1
  20856286.393   -13209632.565 3 -10293184.654 2
 91  7 30  2 31  0.0010000  0  4 17 21 03 23
  21187356.496     1574369.304 3   1226785.477 2
  23689359.895     -537654.848 2   -418950.697 1
  22175086.006     8068239.359 2   6286934.583 1
  20855347.746   -13214566.007 3 -10297028.876 2
 91  7 30  2 31 15.0010000  0  4 17 21 03 23
  21191111.102     1594107.951 3   1242166.248 2
  23681563.495     -578659.888 2   -450902.495 1
  22183767.096     8113849.776 2   6322475.162 1
  20854432.473   -13219395.257 3 -10300791.919 2
 91  7 30  2 31 30.0010000  0  4 17 21 03 23
  21194879.791     1613905.744 3   1257593.107 2
  23673769.486     -619613.917 2   -482814.670 1
  22192464.974     8159569.928 2   6358101.188 1
  20853530.698   -13224120.975 3 -10304474.286 2
 91  7 30  2 31 45.0010000  0  4 17 21 03 23
  21198661.375     1633762.939 3   1273066.247 2
  23665986.881     -660516.322 2   -514686.587 1
  22201186.837     8205399.975 2   6393812.872 1
  20852650.806   -13228742.628 3 -10308075.563 2
 91  7 30  2 32  0.0010000  0  4 17 21 03 23
  21202450.446     1653676.442 3   1288583.250 2
  23658212.957     -701370.368 2   -546520.786 1
  22209924.885     8251336.260 2   6429607.369 1
  20851791.008   -13233263.632 3 -10311598.407 2
 91  7 30  2 32 15.0010000  0  4 17 21 03 23
  21206248.817     1673648.976 3   1304146.268 2
  23650439.042     -742173.097 2   -578315.059 1
  22218689.920     8297381.534 2   6465486.735 1
  20850950.989   -13237681.308 3 -10315040.732 2
 91  7 30  2 32 30.0010000  0  4 17 21 03 23
  21210061.882     1693679.990 3   1319754.863 2
  23642687.010     -782924.822 2   -610069.544 1
  22227471.140     8343535.043 2   6501450.464 1
  20850127.156   -13241996.183 3 -10318402.974 2
 91  7 30  2 32 45.0010000  0  4 17 21 03 23
  21213882.738     1713776.175 3   1335414.213 2
  23634943.668     -823618.831 2   -641779.064 1
  22236274.548     8389803.104 2   6537503.468 1
  20849328.206   -13246201.902 3 -10321680.144 2
 91  7 30  2 33  0.0010000  0  4 17 21 03 23
  21217720.381     1733929.696 3   1351118.261 2
  23627208.126     -864262.931 2   -673449.694 1
  22245103.434     8436177.751 2   6573639.481 1
  20848548.452   -13250306.593 3 -10324878.593 2
 91  7 30  2 33 15.0010000  0  4 17 21 03 23
  21221565.519     1754142.760 3   1366868.712 2
  23619487.870     -904854.541 2   -705079.424 1
  22253950.310     8482661.445 2   6609860.510 1
  20847786.977   -13254307.597 3 -10327996.240 2
 91  7 30  2 33 30.0010000  0  4 17 21 03 23
  21225422.043     1774414.891 3   1382665.178 2
  23611772.414     -945393.947 2   -736668.490 1
  22262815.178     8529253.405 2   6646165.864 1
  20847043.493   -13258205.470 3 -10331033.528 2
 91  7 30  2 33 45.0010000  0  4 17 21 03 23
  21229292.964     1794744.617 3   1398506.511 2
  23604062.646     -985882.528 2   -768217.899 1
  22271701.623     8575951.975 2   6682554.325 1
  20846319.797   -13262001.641 3 -10333991.573 2
 91  7 30  2 34  0.0010000  0  4 17 21 03 23
  21233172.584     1815133.924 3   1414394.294 2
  23596371.174    -1026318.340 2   -799726.269 1
  22280606.661     8622758.701 2   6719027.041 1
  20845620.375   -13265694.483 3 -10336869.095 2
 91  7 30  2 34 15.0010000  0  4 17 21 03 23
  21237063.886     1835579.120 3   1430325.605 2
  23588685.392    -1066705.049 2   -831196.320 1
  22289532.377     8669669.902 2   6755581.160 1
  20844934.756   -13269287.921 3 -10339669.167 2
 91  7 30  2 34 30.0010000  0  4 17 21 03 23
  21240964.490     1856082.621 3   1446302.364 2
  23581016.405    -1107039.980 2   -862626.022 1
  22298484.784     8716687.581 2   6792218.260 1
  20844270.409   -13272779.537 3 -10342389.887 2
 91  7 30  2 34 45.0010000  0  4 17 21 03 23
  21244875.581     1876641.904 3   1462322.591 2
  23573341.712    -1147325.565 2   -894017.324 1
  22307448.272     8763809.287 2   6828936.426 1
  20843625.562   -13276171.671 3 -10345033.098 3
 91  7 30  2 35  0.0010000  0  4 17 21 03 23
  21248800.458     1897259.426 3   1478388.183 2
  23565690.411    -1187559.162 2   -925368.099 1
  22316434.558     8811037.276 2   6865737.428 1
  20842999.588   -13279462.058 3 -10347597.024 2
 91  7 30  2 35 15.0010000  0  4 17 21 03 23
  21252734.042     1917935.456 3   1494499.384 2
  23558037.906    -1227740.363 2   -956678.039 1
  22325441.819     8858371.588 2   6902621.231 1
  20842393.708   -13282650.387 3 -10350081.418 2
 91  7 30  2 35 30.0010000  0  4 17 21 03 23
  21256679.606     1938668.401 3   1510654.921 2
  23550405.791    -1267870.616 2   -987948.279 1
  22334472.464     8905810.460 2   6939586.553 1
  20841802.817   -13285738.308 3 -10352487.579 2
 91  7 30  2 35 45.0010000  0  4 17 21 03 23
  21260635.972     1959460.333 3   1526856.415 2
  23542772.482    -1307947.600 2  -1019177.007 1
  22343515.106     8953356.051 2   6976635.005 1
  20841235.912   -13288723.741 3 -10354813.880 2
 91  7 30  2 36  0.0010000  0  4 17 21 03 23
  21264604.317     1980308.560 3   1543101.782 2
  23535158.053    -1347974.052 2  -1050366.379 1
  22352585.031     9001005.149 2   7013764.082 1
  20840685.497   -13291609.798 3 -10357062.741 2
 91  7 30  2 36 15.0010000  0  4 17 21 03 23
  21268583.464     2001213.741 3   1559391.536 2
  23527557.410    -1387949.315 2  -1081515.858 1
  22361667.538     9048758.060 2   7050974.142 1
  20840156.660   -13294395.817 3 -10359233.651 2
 91  7 30  2 36 30.0010000  0  4 17 21 03 23
  21272570.708     2022177.600 3   1575727.010 2
  23519956.776    -1427871.772 2  -1112624.146 1
  22370778.829     9096616.275 2   7088266.165 1
  20839645.813   -13297080.402 3 -10361325.520 2
 91  7 30  2 36 45.0010000  0  4 17 21 03 23
  21276572.034     2043199.262 3   1592107.518 2
  23512371.724    -1467741.806 2  -1143691.646 1
  22379906.916     9144579.084 2   7125639.711 1
  20839156.553   -13299664.224 3 -10363338.870 2
 91  7 30  2 37  0.0010000  0  4 17 21 03 23
  21280584.459     2064281.111 3   1608534.935 2
  23504792.074    -1507556.935 2  -1174716.325 1
  22389057.181     9192648.535 2   7163096.375 1
  20838683.477   -13302144.949 3 -10365271.888 2
 91  7 30  2 37 15.0010000  0  4 17 21 03 23
  21284608.270     2085422.900 3   1625009.054 2
  23497231.601    -1547317.237 2  -1205698.284 1
  22398217.333     9240824.311 2   7200635.905 1
  20838228.995   -13304522.898 3 -10367124.825 2
 91  7 30  2 37 30.0010000  0  4 17 21 03 23
  21288638.982     2106615.244 3   1641522.568 2
  23489671.739    -1587031.949 2  -1236644.735 1
  22407410.771     9289096.872 2   7238250.859 1
  20837794.895   -13306807.432 3 -10368904.971 2
 91  7 30  2 37 45.0010000  0  4 17 21 03 23
  21292683.184     2127869.030 3   1658083.944 2
  23482126.859    -1626690.048 2  -1267547.027 1
  22416613.204     9337476.812 2   7275949.395 1
  20837381.778   -13308987.870 3 -10370603.998 2
 91  7 30  2 38  0.0010000  0  4 17 21 03 23
  21296741.476     2149181.913 3   1674691.375 2
  23474590.380    -1666293.860 2  -1298407.125 1
  22425841.412     9385961.497 2   7313729.606 1
  20836985.152   -13311066.845 3 -10372223.945 2
 91  7 30  2 38 15.0010000  0  4 17 21 03 23
  21300805.763     2170553.943 3   1691344.907 2
  23467061.693    -1705843.138 2  -1329224.641 1
  22435088.814     9434550.950 2   7351591.495 1
  20836610.714   -13313044.045 3 -10373764.613 2
 91  7 30  2 38 30.0010000  0  4 17 21 03 23
  21304884.733     2191981.719 3   1708041.868 2
  23459546.792    -1745341.453 2  -1360002.469 1
  22444352.402     9483241.231 2   7389531.934 1
  20836249.765   -13314923.405 3 -10375229.038 2
 91  7 30  2 38 45.0010000  0  4 17 21 03 23
  21308971.505     2213467.883 3   1724784.333 2
  23452036.994    -1784785.976 2  -1390738.392 1
  22453634.269     9532034.802 2   7427552.813 1
  20835911.894   -13316702.071 3 -10376614.989 2
 91  7 30  2 39  0.0010000  0  4 17 21 03 23
  21313073.266     2235010.169 3   1741570.519 2
  23444543.382    -1824178.402 2  -1421433.724 1
  22462942.529     9580929.751 2   7465652.661 1
  20835594.117   -13318382.132 3 -10377924.118 2
 91  7 30  2 39 15.0010000  0  4 17 21 03 23
  21317181.326     2256611.555 3   1758402.761 2
  23437054.264    -1863516.096 2  -1452086.372 1
  22472261.879     9629928.292 2   7503833.348 1
  20835291.330   -13319961.186 3 -10379154.536 2
 91  7 30  2 39 30.0010000  0  4 17 21 03 23
  21321304.071     2278269.724 3   1775279.257 2
  23429578.041    -1902801.091 2  -1482697.961 1
  22481611.801     9679028.255 2   7542093.038 1
  20835008.322   -13321441.391 3 -10380307.925 2
 91  7 30  2 39 45.0010000  0  4 17 21 03 23
  21325435.506     2299986.303 3   1792201.252 2
  23422122.200    -1942031.470 2  -1513267.005 1
  22490974.925     9728230.935 2   7580432.714 1
  20834749.003   -13322821.127 3 -10381383.035 2
 91  7 30  2 40  0.0010000  0  4 17 21 03 23
  21329579.540     2321762.853 3   1809169.976 2
  23414661.865    -1981205.686 2  -1543792.326 1
  22500356.930     9777537.764 2   7618853.560 1
  20834504.377   -13324099.029 3 -10382378.778 2
 91  7 30  2 40 15.0010000  0  4 17 21 03 23
  21333736.164     2343598.306 3   1826184.615 2
  23407216.817    -2020325.048 2  -1574274.843 1
  22509759.317     9826947.324 2   7657354.454 1
  20834277.428   -13325276.353 3 -10383296.166 2
 91  7 30  2 40 30.0010000  0  4 17 21 03 23
  21337901.479     2365491.133 3   1843243.951 2
  23399784.664    -2059390.808 2  -1604715.636 1
  22519177.601     9876457.860 2   7695934.054 1
  20834075.372   -13326354.856 3 -10384136.545 2
 91  7 30  2 40 45.0010000  0  4 17 21 03 23
  21342081.783     2387440.968 3   1860347.705 2
  23392360.609    -2098403.025 2  -1635114.703 1
  22528619.259     9926068.709 2   7734591.821 1
  20833889.798   -13327334.727 3 -10384900.063 2
 91  7 30  2 41  0.0010000  0  4 17 21 03 23
  21346268.082     2409450.822 3   1877498.240 2
  23384946.736    -2137358.681 2  -1665469.688 1
  22538080.113     9975782.749 2   7773329.923 1
  20833720.714   -13328213.104 3 -10385584.500 2
 91  7 30  2 41 15.0010000  0  4 17 21 03 23
  21350463.079     2431520.083 3   1894695.062 2
  23377546.360    -2176258.214 2  -1695780.891 1
  22547563.748    10025599.356 2   7812148.029 1
  20833575.013   -13328990.692 3 -10386190.388 2
 91  7 30  2 41 30.0010000  0  4 17 21 03 23
  21354677.263     2453647.645 3   1911937.303 2
  23370153.183    -2215102.668 2  -1726049.222 1
  22557064.170    10075517.021 2   7851044.868 1
  20833444.608   -13329668.838 3 -10386718.803 2
 91  7 30  2 41 45.0010000  0  4 17 21 03 23
  21358898.942     2475835.380 3   1929226.433 2
  23362772.892    -2253890.006 2  -1756273.035 1
  22566581.684    10125537.556 2   7890021.809 1
  20833335.186   -13330245.674 3 -10387168.276 2
 91  7 30  2 42  0.0010000  0  4 17 21 03 23
  21363133.813     2498083.552 3   1946562.666 2
  23355397.095    -2292619.932 2  -1786452.129 1
  22576115.681    10175660.826 2   7929078.880 1
  20833243.145   -13330721.024 3 -10387538.656 2
 91  7 30  2 42 15.0010000  0  4 17 21 03 23
  21367377.671     2520388.915 3   1963943.456 2
  23348034.491    -2331295.495 2  -1816588.867 1
  22585674.561    10225883.548 2   7968213.446 1
  20833172.995   -13331098.200 3 -10387832.556 2
 91  7 30  2 42 30.0010000  0  4 17 21 03 23
  21371632.331     2542754.983 3   1981371.551 2
  23340687.478    -2369913.132 2  -1846680.489 1
  22595249.932    10276208.901 2   8007427.938 1
  20833117.835   -13331373.672 3 -10388047.200 2
 91  7 30  2 42 45.0010000  0  4 17 21 03 23
  21375901.073     2565179.201 3   1998844.960 2
  23333352.157    -2408475.154 2  -1876728.709 1
  22604847.490    10326634.327 2   8046720.396 1
  20833086.355   -13331550.129 3 -10388184.689 2
 91  7 30  2 43  0.0010000  0  4 17 21 03 23
  21380180.006     2587666.509 3   2016367.527 2
  23326025.229    -2446976.650 2  -1906729.822 1
  22614462.133    10377164.236 2   8086094.290 1
  20833074.960   -13331622.711 3 -10388241.231 2
 91  7 30  2 43 15.0010000  0  4 17 21 03 23
  21384468.240     2610211.614 3   2033935.135 2
  23318709.993    -2485422.762 2  -1936687.713 1
  22624094.766    10427793.323 2   8125545.484 1
  20833077.961   -13331596.901 3 -10388221.106 2
 91  7 30  2 43 30.0010000  0  4 17 21 03 23
  21388771.464     2632812.108 3   2051545.900 2
  23311399.556    -2523815.583 2  -1966604.143 1
  22633748.078    10478519.013 2   8165071.937 1
  20833098.649   -13331475.124 3 -10388126.203 2
 91  7 30  2 43 45.0010000  0  4 17 21 03 23
  21393083.081     2655473.396 3   2069204.045 2
  23304107.101    -2562149.831 2  -1996474.922 1
  22643422.383    10529346.459 2   8204677.678 1
  20833145.415   -13331252.072 3 -10387952.391 2
 91  7 30  2 44  0.0010000  0  4 17 21 03 23
  21397406.983     2678194.618 3   2086908.879 2
  23296824.541    -2600426.507 2  -2026300.852 1
  22653112.280    10580274.285 2   8244361.696 1
  20833203.271   -13330929.000 3 -10387700.636 2
 91  7 30  2 44 15.0010000  0  4 17 21 03 23
  21401741.984     2700976.806 3   2104661.219 2
  23289559.073    -2638644.276 2  -2056080.863 1
  22662823.753    10631303.407 2   8284124.602 1
  20833287.216   -13330504.986 3 -10387370.218 2
 91  7 30  2 44 30.0010000  0  4 17 21 03 23
  21406089.871     2723813.420 3   2122455.971 2
  23282290.603    -2676809.551 2  -2085819.976 1
  22672551.115    10682427.212 2   8323961.284 1
  20833384.352   -13329986.425 3 -10386966.132 2
 91  7 30  2 44 45.0010000  0  4 17 21 03 23
  21410443.762     2746712.347 3   2140299.288 2
  23275036.530    -2714914.331 2  -2115511.918 1
  22682297.376    10733653.369 2   8363877.693 1
  20833501.269   -13329365.584 3 -10386482.359 2
 91  7 30  2 45  0.0010000  0  4 17 21 03 23
  21414815.635     2769671.518 3   2158189.546 2
  23267799.236    -2752960.664 2  -2145158.369 1
  22692064.612    10784979.440 2   8403871.898 1
  20833638.576   -13328644.868 3 -10385920.756 2
 91  7 30  2 45 15.0010000  0  4 17 21 03 23
  21419196.198     2792685.970 3   2176122.864 2
  23260575.142    -2790953.293 2  -2174762.912 1
  22701852.535    10836400.235 2   8443940.097 1
  20833793.865   -13327829.001 3 -10385285.002 2
 91  7 30  2 45 30.0010000  0  4 17 21 03 23
  21423582.764     2815755.182 3   2194098.849 2
  23253354.042    -2828892.613 2  -2204325.965 1
  22711652.150    10887915.112 2   8484081.460 1
  20833965.942   -13326918.686 3 -10384575.650 2
 91  7 30  2 45 45.0010000  0  4 17 21 03 23
  21427984.616     2838883.045 3   2212120.576 2
  23246142.530    -2866774.676 2  -2233844.410 1
  22721476.352    10939527.757 2   8524299.039 1
  20834157.816   -13325910.298 3 -10383789.891 2
 91  7 30  2 46  0.0010000  0  4 17 21 03 23
  21432398.762     2862070.399 3   2230188.633 2
  23238944.812    -2904598.522 2  -2263317.431 1
  22731315.841    10991238.837 2   8564593.333 1
  20834372.462   -13324802.999 3 -10382927.047 2
 91  7 30  2 46 15.0010000  0  4 17 21 03 23
  21436820.699     2885314.305 3   2248300.756 2
  23231756.989    -2942367.076 2  -2292747.438 1
  22741173.311    11043045.098 2   8604961.757 1
  20834596.410   -13323599.699 3 -10381989.396 2
 91  7 30  2 46 30.0010000  0  4 17 21 03 23
  21441257.025     2908614.187 3   2266456.498 2
  23224582.358    -2980080.708 2  -2322134.582 1
  22751051.775    11094945.688 2   8645403.737 1
  20834847.335   -13322301.187 3 -10380977.561 2
 91  7 30  2 46 45.0010000  0  4 17 21 03 23
  21445701.447     2931971.726 3   2284657.173 2
  23217414.917    -3017737.620 2  -2351477.567 1
  22760942.524    11146941.877 2   8685920.226 1
  20835113.547   -13320906.069 3 -10379890.446 2
 91  7 30  2 47  0.0010000  0  4 17 21 03 23
  21450156.662     2955393.785 3   2302908.120 2
  23210263.067    -3055330.932 2  -2380771.014 1
  22770859.360    11199040.526 2   8726516.459 1
  20835397.156   -13319407.455 3 -10378722.689 2
 91  7 30  2 47 15.0010000  0  4 17 21 03 23
  21454624.476     2978869.283 3   2321200.714 2
  23203112.116    -3092871.548 2  -2410023.391 1
  22780794.485    11251230.284 2   8767183.747 1
  20835699.944   -13317816.402 3 -10377482.892 2
 91  7 30  2 47 30.0010000  0  4 17 21 03 23
  21459103.668     3002400.455 3   2339536.683 2
  23195978.860    -3130357.116 2  -2439232.830 1
  22790738.901    11303513.259 2   8807923.648 1
  20836020.426   -13316130.838 3 -10376169.462 2
 91  7 30  2 47 45.0010000  0  4 17 21 03 23
  21463592.160     3025988.723 3   2357917.152 2
  23188861.483    -3167786.237 2  -2468398.321 1
  22800706.701    11355890.362 2   8848736.934 1
  20836359.492   -13314349.779 3 -10374781.613 2
 91  7 30  2 48  0.0010000  0  4 17 21 03 23
  21468089.649     3049636.930 3   2376344.322 2
  23181748.312    -3205155.798 2  -2497517.400 1
  22810689.491    11408364.567 2   8889625.908 1
  20836717.143   -13312470.208 3 -10373316.996 2
 91  7 30  2 48 15.0010000  0  4 17 21 03 23
  21472601.228     3073343.920 3   2394817.289 2
  23174650.724    -3242466.913 2  -2526590.951 1
  22820697.461    11460934.276 2   8930589.232 1
  20837092.777   -13310493.321 3 -10371776.556 2
 91  7 30  2 48 30.0010000  0  4 17 21 03 23
  21477124.796     3097105.031 3   2413332.438 2
  23167563.929    -3279724.176 2  -2555622.506 1
  22830716.521    11513594.629 2   8971623.187 1
  20837487.309   -13308423.989 3 -10370164.080 2
 91  7 30  2 48 45.0010000  0  4 17 21 03 23
  21481655.858     3120922.199 3   2431891.263 2
  23160481.636    -3316925.427 2  -2584610.444 1
  22840753.276    11566347.403 2   9012729.114 1
  20837899.526   -13306260.224 3 -10368478.017 2
 91  7 30  2 49  0.0010000  0  4 17 21 03 23
  21486198.315     3144796.771 3   2450494.818 2
  23153410.729    -3354069.627 2  -2613553.899 1
  22850816.406    11619193.357 2   9053907.810 1
  20838329.125   -13304001.299 3 -10366717.809 2
 91  7 30  2 49 15.0010000  0  4 17 21 03 23
  21490753.058     3168730.170 3   2469144.217 2
  23146361.111    -3391155.003 2  -2642451.527 1
  22860887.337    11672133.904 2   9095160.126 1
  20838778.817   -13301645.573 3 -10364882.176 2
 91  7 30  2 49 30.0010000  0  4 17 21 03 23
  21495318.000     3192723.339 3   2487840.184 2
  23139313.885    -3428180.460 2  -2671302.455 1
  22870982.550    11725169.709 2   9136486.637 1
  20839244.092   -13299192.118 3 -10362970.377 2
 91  7 30  2 49 45.0010000  0  4 17 21 03 23
  21499894.634     3216776.170 3   2506582.642 2
  23132272.661    -3465146.071 2  -2700106.767 1
  22881087.351    11778300.408 2   9177887.169 1
  20839728.553   -13296641.086 3 -10360982.545 2
 91  7 30  2 50  0.0010000  0  4 17 21 03 23
  21504485.053     3240889.833 3   2525372.509 2
  23125255.117    -3502050.620 2  -2728863.539 1
  22891215.841    11831526.933 2   9219362.209 1
  20840234.906   -13293991.665 3 -10358918.051 2
 91  7 30  2 50 15.0010000  0  4 17 21 03 23
  21509085.367     3265057.794 3   2544204.688 2
  23118239.379    -3538900.379 2  -2757577.563 1
  22901362.620    11884842.780 2   9260907.017 1
  20840755.342   -13291250.408 3 -10356782.002 2
 91  7 30  2 50 30.0010000  0  4 17 21 03 23
  21513695.575     3289286.343 3   2563084.058 2
  23111243.115    -3575689.212 2  -2786244.110 1
  22911525.583    11938253.608 2   9302525.768 1
  20841294.370   -13288411.228 3 -10354569.643 2
 91  7 30  2 50 45.0010000  0  4 17 21 03 23
  21518318.678     3313573.965 3   2582009.467 2
  23104254.059    -3612418.101 2  -2814863.948 1
  22921709.233    11991757.928 2   9344217.375 1
  20841853.484   -13285475.588 3 -10352282.123 2
 91  7 30  2 51  0.0010000  0  4 17 21 03 23
  21522949.573     3337921.266 3   2600981.388 2
  23097267.096    -3649086.632 2  -2843436.792 1
  22931909.671    12045356.021 2   9385982.083 1
  20842429.385   -13282443.150 3 -10349919.180 2
 91  7 30  2 51 15.0010000  0  4 17 21 03 23
  21527591.261     3362327.038 3   2619998.876 2
  23090308.011    -3685695.817 2  -2871963.392 1
  22942127.794    12099046.619 2   9427818.829 1
  20843025.371   -13279315.141 3 -10347481.764 2
 91  7 30  2 51 30.0010000  0  4 17 21 03 23
  21532247.931     3386790.334 3   2639061.181 2
  23083349.230    -3722246.566 2  -2900444.429 1
  22952360.610    12152828.122 2   9469726.436 1
  20843639.950   -13276092.699 3 -10344970.763 2
 91  7 30  2 51 45.0010000  0  4 17 21 03 23
  21536912.705     3411311.525 3   2658168.599 2
  23076403.939    -3758738.333 2  -2928879.496 1
  22962615.615    12206700.974 2   9511705.220
  20844269.816   -13272775.457 3 -10342385.879 2
 91  7 30  2 52  0.0010000  0  4 17 21 03 23
  21541593.063     3435891.174 3   2677321.572 2
  23069473.637    -3795170.430 2  -2957268.081 1
  22972880.208    12260665.507 2   9553755.463 1
  20844920.962   -13269362.925 3 -10339726.755 2
 91  7 30  2 52 15.0010000  0  4 17 21 03 23
  21546280.619     3460525.222 3   2696516.938 2
  23062551.127    -3831547.034 2  -2985613.405 1
  22983164.887    12314717.255 2   9595873.731 1
  20845586.801   -13265859.564 3 -10336996.861 2
 91  7 30  2 52 30.0010000  0  4 17 21 03 23
  21550978.968     3485219.259 3   2715759.016 2
  23055646.608    -3867862.519 2  -3013911.169 1
  22993472.652    12368861.372 2   9638063.812 1
  20846271.827   -13262259.911 3 -10334191.936 2
 91  7 30  2 52 45.0010000  0  4 17 21 03 23
  21555689.009     3509974.960 3   2735049.181 2
  23048745.684    -3904115.155 2  -3042159.903 1
  23003792.702    12423099.409 2   9680327.171 1
  20846975.742   -13258562.359 3 -10331310.720 2
 91  7 30  2 53  0.0010000  0  4 17 21 03 23
  21560413.734     3534792.321 3   2754387.381 2
  23041854.654    -3940304.671 2  -3070359.465 1
  23014130.752    12477431.238 2   9722663.587 1
  20847695.538   -13254766.975 3 -10328353.268 2
 91  7 30  2 53 15.0010000  0  4 17 21 03 23
  21565143.860     3559668.784 3   2773771.630 2
  23034977.113    -3976433.570 2  -3098511.782 1
  23024487.683    12531853.974 2   9765070.836 1
  20848438.725   -13250876.447 3 -10325321.685 2
 91  7 30  2 53 30.0010000  0  4 17 21 03 23
  21569893.477     3584603.582 3   2793201.335 1
  23028116.665    -4012502.579 2  -3126617.462 1
  23034858.399    12586366.538 2   9807548.053 1
  20849196.003   -13246891.780 3 -10322216.731 2
 91  7 30  2 53 45.0010000  0  4 17 21 03 23
  21574644.884     3609598.493 3   2812677.901 2
  23021266.111    -4048509.928 2  -3154675.079 1
  23045253.704    12640970.491 2   9850096.542 1
  20849974.562   -13242811.388 3 -10319037.201 2
 91  7 30  2 54  0.0010000  0  4 17 21 03 23
  21579413.985     3634650.447 3   2832198.902 2
  23014425.748    -4084458.448 2  -3182686.865 1
  23055660.403    12695662.440 2   9892713.593 1
  20850767.212   -13238638.223 3 -10315785.376 2
 91  7 30  2 54 15.0010000  0  4 17 21 03 23
  21584192.971     3659759.993 3   2851764.772 2
  23007594.973    -4120347.415 2  -3210652.262 1
  23066081.481    12750442.804 2   9935399.511 1
  20851580.253   -13234371.832 3 -10312460.913 2
 91  7 30  2 54 30.0010000  0  4 17 21 03 23
  21588981.860     3684927.834 3   2871376.070 2
  23000779.494    -4156175.951 2  -3238570.495 1
  23076522.958    12805312.002 2   9978154.692 1
  20852407.978   -13230011.417 3 -10309063.190 2
 91  7 30  2 54 45.0010000  0  4 17 21 03 23
  21593783.933     3710153.795 3   2891032.647 2
  22993968.203    -4191944.224 2  -3266441.838 1
  23086978.814    12860269.637 2  10020978.759 1
  20853254.889   -13225557.521 3 -10305592.606 2
 91  7 30  2 55  0.0010000  0  4 17 21 03 23
  21598595.901     3735437.868 3   2910734.527 2
  22987173.114    -4227652.030 2  -3294266.074 1
  23097457.164    12915315.717 2  10063871.725 1
  20854122.191   -13221010.172 3 -10302049.214 2
 91  7 30  2 55 15.0010000  0  4 17 21 03 23
  21603417.762     3760778.993 3   2930480.863 2
  22980390.005    -4263300.683 2  -3322044.138 1
  23107947.799    12970448.467 2  10106832.234 1
  20855003.881   -13216370.860 3 -10298434.166 2
 91  7 30  2 55 30.0010000  0  4 17 21 03 23
  21608250.417     3786184.613 3   2950277.439 2
  22973617.096    -4298882.618 2  -3349770.266 1
  23118457.027    13025675.054 2  10149865.877 1
  20855905.054   -13211632.345 3 -10294741.811 2
 91  7 30  2 55 45.0010000  0  4 17 21 03 23
  21613095.069     3811647.925 3   2970118.981 2
  22966854.377    -4334404.417 2  -3377449.551 1
  23128984.534    13080988.656 2  10192967.276 1
  20856827.219   -13206801.325 3 -10290977.374 2
 91  7 30  2 56  0.0010000  0  4 17 21 03 23
  21617949.309     3837165.552 3   2990002.854 2
  22960109.345    -4369869.431 2  -3405084.584 1
  23139524.343    13136385.516 2  10236133.686 1
  20857760.771   -13201881.310 3 -10287143.592 2
 91  7 30  2 56 15.0010000  0  4 17 21 03 23
  21622819.429     3862741.365 3   3009932.033 2
  22953373.011    -4405273.625 2  -3432672.210 1
  23150078.837    13191869.328 2  10279367.665 1
  20858717.409   -13196868.405 3 -10283237.431 2
 91  7 30  2 56 30.0010000  0  4 17 21 03 23
  21627697.358     3888373.795 3   3029905.354 2
  22946648.962    -4440618.543 2  -3460213.657 1
  23160661.207    13247438.168 2  10322668.053 1
  20859687.240   -13191764.446 3 -10279260.322 2
 91  7 30  2 56 45.0010000  0  4 17 21 03 23
  21632584.877     3914064.292 3   3049923.928 2
  22939932.417    -4475902.664 2  -3487707.708 1
  23171254.074    13303093.216 2  10366035.495 1
  20860675.655   -13186568.318 3 -10275211.374 2
 91  7 30  2 57  0.0010000  0  4 17 21 03 23
  21637480.186     3939808.575 3   3069984.400 2
  22933232.650    -4511130.311 2  -3515157.795 1
  23181867.026    13358829.880 2  10409466.421 1
  20861679.959   -13181284.257 3 -10271093.933 2
 91  7 30  2 57 15.0010000  0  4 17 21 03 23
  21642393.181     3965611.746 3   3090090.781 2
  22926538.284    -4546296.059 2  -3542559.595 1
  23192480.283    13414653.345 2  10452965.299 1
  20862704.051   -13175907.296 3 -10266904.087 2
 91  7 30  2 57 30.0010000  0  4 17 21 03 23
  21647317.877     3991474.576 3   3110243.616 2
  22919859.213    -4581399.100 2  -3569912.571 1
  23203118.416    13470563.724 2  10496531.816 1
  20863741.030   -13170436.750 3 -10262641.316 2
 91  7 30  2 57 45.0010000  0  4 17 21 03 23
  21652247.956     4017393.396 3   3130440.100 2
  22913190.028    -4616442.881 2  -3597219.341 1
  23213776.337    13526557.254 2  10540163.114 1
  20864803.496   -13164876.375 3 -10258308.548 2
 91  7 30  2 58  0.0010000  0  4 17 21 03 23
  21657191.237     4043371.403 3   3150682.709 2
  22906537.333    -4651424.366 2  -3624477.583 1
  23224446.246    13582636.710 2  10583861.362 1
  20865878.856   -13159223.399 3 -10253903.634 2
 91  7 30  2 58 15.0010000  0  4 17 21 03 23
  21662149.507     4069412.435 3   3170974.405 2
  22899892.430    -4686339.588 2  -3651684.181 1
  23235136.546    13638805.965 2  10627629.490 1
  20866972.497   -13153473.938 3 -10249423.539 2
 91  7 30  2 58 30.0010000  0  4 17 21 03 23
  21667114.966     4095511.737 3   3191311.514 2
  22893256.226    -4721193.149 2  -3678842.766 1
  23245839.140    13695059.590 2  10671463.455 1
  20868085.925   -13147632.804 3 -10244872.000 2
 91  7 30  2 58 45.0010000  0  4 17 21 03 23
  21672088.226     4121666.947 3   3211692.198 2
  22886635.613    -4755987.308 2  -3705955.046 1
  23256556.724    13751395.262 2  10715361.297 1
  20869211.342   -13141702.450 3 -10240250.939 2
 91  7 30  2 59  0.0010000  0  4 17 21 03 23
  21677079.773     4147879.472 3   3232117.541 2
  22880026.387    -4790720.714 2  -3733019.973 1
  23267297.987    13807814.010 2  10759323.874 1
  20870357.149   -13135681.662 3 -10235559.406 2
 91  7 30  2 59 15.0010000  0  4 17 21 03 23
  21682077.908     4174150.186 3   3252588.218 2
  22873425.554    -4825392.476 2  -3760036.879 1
  23278047.644    13864316.366 2  10803351.632 1
  20871521.847   -13129569.865 3 -10230796.962 2
 91  7 30  2 59 30.0010000  0  4 17 21 03 23
  21687088.642     4200481.859 3   3273106.396 2
  22866840.915    -4859999.651 2  -3787003.440 1
  23288818.590    13920904.802 2  10847446.636 1
  20872703.628   -13123364.324 3 -10225961.475 2
 91  7 30  2 59 45.0010000  0  4 17 21 03 23
  21692114.061     4226872.101 3   3293670.219 2
  22860267.366    -4894544.514 2  -3813921.470 1
  23299606.620    13977576.880 2  10891606.448 1
  20873902.501   -13117067.551 3 -10221054.883 2
 91  7 30  3  0  0.0010000  0  4 17 21 03 23
  21697146.677     4253319.947 3   3314278.935 2
  22853704.609    -4929027.822 2  -3840791.519 1
  23310403.646    14034331.437 2  10935830.717 1
  20875115.754   -13110680.423 3 -10216077.901 2
 91  7 30  3  0 15.0010000  0  4 17 21 03 23
  21702190.689     4279825.245 3   3334932.396 2
  22847161.641    -4963449.683 2  -3867613.702 1
  23321215.356    14091167.693 2  10980118.640
  20876352.102   -13104203.396 3 -10211030.871 2
 91  7 30  3  0 30.0010000  0  4 17 21 03 23
  21707244.289     4306386.938 3   3355629.810 2
  22840617.766    -4997811.387 2  -3894389.000 1
  23332048.660    14148084.447 2  11024469.315 1
  20877599.836   -13097637.927 3 -10205914.914 2
 91  7 30  3  0 45.0010000  0  4 17 21 03 23
  21712306.886     4333007.912 3   3376373.417 2
  22834094.587    -5032109.997 2  -3921115.149 1
  23342893.953    14205084.180 2  11068884.611 1
  20878866.460   -13090981.152 3 -10200727.809 2
 91  7 30  3  1  0.0010000  0  4 17 21 03 23
  21717384.768     4359687.242 3   3397162.505 2
  22827575.299    -5066346.313 2  -3947792.738 1
  23353759.925    14262165.578 2  11113363.511 1
  20880149.269   -13084234.279 3 -10195470.496 2
 91  7 30  3  1 15.0010000  0  4 17 21 03 23
  21722474.046     4386428.174 3   3417999.581 2
  22821071.297    -5100516.699 2  -3974418.947 1
  23364631.602    14319332.031 2  11157908.749 1
  20881452.774   -13077393.782 3 -10190140.233 2
 91  7 30  3  1 30.0010000  0  4 17 21 03 23
  21727569.919     4413221.019 3   3438877.125 2
  22814581.395    -5134630.549 2  -4001001.131 1
  23375528.155    14376573.623 2  11202512.531 1
  20882770.056   -13070469.434 3 -10184744.629 2
 91  7 30  3  1 45.0010000  0  4 17 21 03 23
  21732681.079     4440073.822 3   3459801.381 2
  22808103.177    -5168680.039 2  -4027533.109 1
  23386433.407    14433898.110 2  11247180.873 1
  20884104.134   -13063453.345 3 -10179277.546 2
 91  7 30  3  2  0.0010000  0  4 17 21 03 23
  21737805.135     4466987.188 3   3480772.824 1
  22801635.454    -5202664.774 2  -4054014.676 1
  23397359.948    14491305.456 2  11291913.794 1
  20885457.695   -13056345.428 3 -10173738.896 2
 91  7 30  3  2 15.0010000  0  4 17 21 03 23
  21742934.880     4493959.198 3   3501789.961 2
  22795176.125    -5236586.401 2  -4080447.032 1
  23408294.577    14548793.617 2  11336709.679 1
  20886826.848   -13049147.560 3 -10168130.170 2
 91  7 30  3  2 30.0010000  0  4 17 21 03 23
  21748081.717     4520988.216 3   3522851.523 2
  22788735.389    -5270446.555 2  -4106831.510 1
  23419256.185    14606360.554 2  11381567.054 1
  20888213.094   -13041861.763 3 -10162452.920 2
 91  7 30  3  2 45.0010000  0  4 17 21 03 23
  21753231.852     4548074.535 3   3543957.745 2
  22782306.040    -5304244.837 2  -4133167.800 1
  23430221.099    14664006.228 2  11426485.610 1
  20889613.718   -13034487.713 3 -10156706.892 2
 91  7 30  3  3  0.0010000  0  4 17 21 03 23
  21758399.969     4575218.586 3   3565108.948 2
  22775886.585    -5337980.411 2  -4159455.204 1
  23441209.387    14721731.026 2  11471465.912 1
  20891035.335   -13027025.074 3 -10150891.856 2
 91  7 30  3  3 15.0010000  0  4 17 21 03 23
  21763575.590     4602419.171 3   3586304.192 2
  22769477.015    -5371654.365 2  -4185694.595 1
  23452207.570    14779533.719 2  11516507.050 1
  20892473.145   -13019475.047 3 -10145008.705 2
 91  7 30  3  3 30.0010000  0  4 17 21 03 23
  21768762.903     4629680.674 3   3607546.928 2
  22763083.944    -5405262.451 2  -4211882.640 1
  23463222.846    14837418.129 2  11561611.612 1
  20893926.234   -13011833.406 3 -10139054.173 2
 91  7 30  3  3 45.0010000  0  4 17 21 03 23
  21773961.297     4656999.871 3   3628834.608 2
  22756694.172    -5438808.105 2  -4238022.027 1
  23474254.315    14895380.658 2  11606777.259 1
  20895396.720   -13004103.896 3 -10133031.166 2
 91  7 30  3  4  0.0010000  0  4 17 21 03 23
  21779173.188     4684379.662 3   3650169.502 2
  22750320.585    -5472288.029 2  -4264110.275 1
  23485299.265    14953423.965 2  11652005.650 1
  20896886.087   -12996283.302 3 -10126937.198 2
 91  7 30  3  4 15.0010000  0  4 17 21 03 23
  21784391.083     4711818.048 3   3671550.049 2
  22743967.379    -5505704.290 2  -4290148.843 1
  23496361.909    15011545.774 2  11697295.367 1
  20898389.842   -12988373.913 3 -10120774.027 2
 91  7 30  3  4 30.0010000  0  4 17 21 03 23
  21789625.459     4739314.162 3   3692975.573 2
  22737618.371    -5539057.662 2  -4316138.401 1
  23507433.243    15069745.023 2  11742645.355 1
  20899912.191   -12980376.840 3 -10114542.541 2
 91  7 30  3  4 45.0010000  0  4 17 21 03 23
  21794870.628     4766869.029 2   3714446.900 2
  22731285.861    -5572346.888 2  -4342078.023 1
  23518521.966    15128022.359 2  11788056.131 1
  20901451.029   -12972291.119 3 -10108241.970 2
 91  7 30  3  5  0.0010000  0  4 17 21 03 23
  21800120.290     4794459.706 3   3735946.123 2
  22724962.635    -5605594.847 2  -4367985.488 1
  23529620.279    15186354.821 2  11833510.022 1
  20903000.958   -12964139.694 3 -10101890.210 2
 91  7 30  3  5 15.0010000  0  4 17 21 03 23
  21805383.450     4822114.211 3   3757495.078 2
  22718646.607    -5638773.613 2  -4393838.999 1
  23540739.287    15244769.909 2  11879028.083 1
  20904571.870   -12955894.773 3 -10095465.585 2
 91  7 30  3  5 30.0010000  0  4 17 21 03 23
  21810653.198     4849827.014 3   3779089.461 1
  22712341.372    -5671888.839 2  -4419642.996 1
  23551869.681    15303261.637 2  11924606.298 1
  20906154.168   -12947562.217 3 -10088972.677 2
 91  7 30  3  5 45.0010000  0  4 17 21 03 23
  21815942.141     4877599.656 3   3800730.468 2
  22706053.527    -5704938.835 2  -4445396.189 1
  23563016.566    15361831.264 2  11970245.209 1
  20907759.562   -12939140.750 3 -10082410.479 2
 91  7 30  3  6  0.0010000  0  4 17 21 03 23
  21821236.476     4905431.393 3   3822417.546 2
  22699776.169    -5737923.978 2  -4471098.856 1
  23574179.331    15420477.905 2  12015943.829 1
  20909378.742   -12930631.094 3 -10075779.582 2
 91  7 30  3  6 15.0010000  0  4 17 21 03 23
  21826542.197     4933323.845 3   3844151.918 2
  22693512.308    -5770842.531 2  -4496749.591 1
  23585354.101    15479203.110 2  12061703.690 1
  20911015.302   -12922031.472 3 -10069078.565 2
 91  7 30  3  6 30.0010000  0  4 17 21 03 23
  21831863.815     4961276.726 3   3865933.368 2
  22687258.639    -5803694.898 2  -4522348.804 1
  23596545.354    15538006.059 2  12107524.067 1
  20912668.361   -12913342.451 3 -10062307.891 2
 91  7 30  3  6 45.0010000  0  4 17 21 03 23
  21837198.321     4989292.382 3   3887763.735 2
  22681022.359    -5836478.741 2  -4547894.574 1
  23607746.797    15596888.813 2  12153406.685 1
  20914339.106   -12904562.021 3 -10055466.000 2
 91  7 30  3  7  0.0010000  0  4 17 21 03 23
  21842538.227     5017366.423 3   3909639.607 2
  22674790.868    -5869198.462 2  -4573390.395 1
  23618962.933    15655846.528 2  12199347.604 1
  20916026.036   -12895694.809 3 -10048556.471 2
 91  7 30  3  7 15.0010000  0  4 17 21 03 23
  21847891.919     5045499.058 3   3931561.137 2
  22668582.168    -5901853.531 2  -4598835.888 1
  23630202.749    15714879.410 2  12245347.216 1
  20917730.660   -12886740.502 3 -10041579.076 2
 91  7 30  3  7 30.0010000  0  4 17 21 03 23
  21853253.106     5073686.426 3   3953525.322 2
  22662378.563    -5934447.953 2  -4624234.049 1
  23641440.174    15773983.235 2  12291402.076 1
  20919449.664   -12877703.050 3 -10034536.898 2
 91  7 30  3  7 45.0010000  0  4 17 21 03 23
  21858628.689     5101932.453 3   3975535.214 2
  22656190.245    -5966977.485 2  -4649581.698 1
  23652709.970    15833161.749 2  12337515.140 1
  20921186.065   -12868578.697 3 -10027427.011 2
 91  7 30  3  8  0.0010000  0  4 17 21 03 23
  21864013.556     5130235.443 3   3997589.479 2
  22650010.922    -5999443.838 2  -4674880.096 1
  23663987.261    15892412.952 2  12383684.855 1
  20922937.753   -12859369.307 3 -10020250.848 2
 91  7 30  3  8 15.0010000  0  4 17 21 03 23
  21869413.717     5158596.292 3   4019688.829 2
  22643848.090    -6031846.174 2  -4700128.591 1
  23675276.845    15951737.273 2  12429911.549 1
  20924708.924   -12850074.357 3 -10013008.024 2
 91  7 30  3  8 30.0010000  0  4 17 21 03 23
  21874822.875     5187016.154 3   4041834.159 2
  22637689.454    -6064183.000 2  -4725326.081 1
  23686571.524    16011135.945 2  12476196.076 1
  20926490.888   -12840692.430 3 -10005697.429 2
 91  7 30  3  8 45.0010000  0  4 17 21 03 23
  21880241.028     5215493.169 3   4064024.047 1
  22631552.099    -6096456.550 2  -4750474.248 1
  23697894.386    16070606.210 2  12522536.440 1
  20928295.040   -12831225.920 3  -9998320.914 2
 91  7 30  3  9  0.0010000  0  4 17 21 03 23
  21885667.871     5244028.607 3   4086259.438 2
  22625420.451    -6128665.149 2  -4775571.791 1
  23709228.346    16130149.166 2  12568933.525 1
  20930114.487   -12821673.723 3  -9990877.632 2
 91  7 30  3  9 15.0010000  0  4 17 21 03 23
  21891110.297     5272622.343 3   4108540.265 2
  22619303.783    -6160808.881 2  -4800618.773 1
  23720566.494    16189764.630 2  12615387.043 1
  20931946.515   -12812036.042 3  -9983367.739 2
 91  7 30  3  9 30.0010000  0  4 17 21 03 23
  21896561.728     5301274.475 3   4130866.614 2
  22613200.307    -6192887.648 2  -4825615.190 1
  23731920.836    16249452.359 2  12661896.902 1
  20933794.432   -12802312.832 3  -9975791.208 2
 91  7 30  3  9 45.0010000  0  4 17 21 03 23
  21902024.248     5329983.994 3   4153237.652 1
  22607109.728    -6224902.263 2  -4850561.585 1
  23743296.755    16309211.200 2  12708462.158 1
  20935661.544   -12792505.260 3  -9968148.935 2
 91  7 30  3 10  0.0010000  0  4 17 21 03 23
  21907497.858     5358750.112 3   4175652.799 1
  22601025.735    -6256853.504 2  -4875458.618 1
  23754684.977    16369039.938 2  12755081.876 1
  20937546.936   -12782614.187 3  -9960441.595 2
 91  7 30  3 10 15.0010000  0  4 17 21 03 23
  21912985.559     5387573.794 3   4198112.798 2
  22594958.836    -6288740.295 2  -4900305.406 1
  23766089.375    16428939.310 2  12801756.603 1
  20939444.324   -12772638.759 3  -9952668.523 2
 91  7 30  3 10 30.0010000  0  4 17 21 03 23
  21918482.552     5416456.149 3   4220618.523 2
  22588906.926    -6320561.569 2  -4925101.119 1
  23777497.385    16488910.061 2  12848487.245 1
  20941357.897   -12762578.007 3  -9944828.964 2
 91  7 30  3 10 45.0010000  0  4 17 21 03 23
  21923988.235     5445397.531 3   4243170.243 2
  22582858.610    -6352317.016 2  -4949845.586 1
  23788915.577    16548952.047 2  12895273.440 1
  20943289.462   -12752431.979 3  -9936922.961 2
 91  7 30  3 11  0.0010000  0  4 17 21 03 23
  21929507.722     5474397.095 3   4265767.282 2
  22576829.490    -6384007.383 2  -4974539.326 1
  23800356.856    16609064.267 2  12942114.042 1
  20945234.219   -12742201.471 3  -9928951.122 2
 91  7 30  3 11 15.0010000  0  4 17 21 03 23
  21935034.991     5503459.469 3   4288413.297 1
  22570816.852    -6415627.991 2  -4999178.671 1
  23811817.618    16669251.077 2  12989012.770 1
  20947199.358   -12731882.154 3  -9920910.084 2
 91  7 30  3 11 30.0010000  0  4 17 21 03 23
  21940579.954     5532581.082 3   4311105.449 1
  22564803.612    -6447182.508 2  -5023766.592 1
  23823281.687    16729508.499 2  13035966.538 1
  20949177.087   -12721477.951 3  -9912802.916 2
 91  7 30  3 11 45.0010000  0  4 17 21 03 23
  21946132.404     5561762.908 3   4333844.526 1
  22558817.358    -6478669.557 2  -5048301.885 1
  23834752.343    16789837.414 2  13082975.993 1
  20951173.401   -12710987.646 3  -9904628.644 2
 91  7 30  3 12  0.0010000  0  4 17 21 03 23
  21951699.853     5591003.086 3   4356629.075 1
  22552843.390    -6510090.773 2  -5072785.918 1
  23846255.082    16850235.762 2  13130039.593 1
  20953184.713   -12700413.147 3  -9896388.760 2
 91  7 30  3 12 15.0010000  0  4 17 21 03 23
  21957274.194     5620304.101 3   4379461.022 2
  22546875.720    -6541443.977 2  -5097216.933 1
  23857765.612    16910705.276 2  13177158.509 1
  20955217.009   -12689752.319 3  -9888081.620 2
 91  7 30  3 12 30.0010000  0  4 17 21 03 23
  21962856.929     5649664.181 3   4402338.984 2
  22540916.148    -6572730.743 2  -5121596.169 1
  23869282.441    16971244.246 2  13224331.811 1
  20957263.387   -12679007.232 3  -9879708.814 2
 91  7 30  3 12 45.0010000  0  4 17 21 03 23
  21968458.850     5679081.248 3   4425261.365 1
  22534972.761    -6603953.046 2  -5145925.162 1
  23880813.955    17031850.264 2  13271557.115 1
  20959321.762   -12668179.930 3  -9871271.945 2
 91  7 30  3 13  0.0010000  0  4 17 21 03 23
  21974065.867     5708558.023 3   4448230.262 2
  22529045.262    -6635108.169 2  -5170201.863 1
  23892350.870    17092525.748 2  13318836.624 1
  20961400.528   -12657267.831 3  -9862769.000 2
 91  7 30  3 13 15.0010000  0  4 17 21 03 23
  21979689.374     5738093.841 3   4471245.188 1
  22523130.965    -6666196.640 2  -5194426.580 1
  23903918.358    17153269.668 2  13366169.602 1
  20963490.078   -12646271.711 3  -9854200.602 2
 91  7 30  3 13 30.0010000  0  4 17 21 03 23
  21985318.282     5767688.558 3   4494306.000 2
  22517227.748    -6697218.589 2  -5218599.469 1
  23915493.349    17214081.644 2  13413555.660 1
  20965599.714   -12635191.879 3  -9845566.951 2
 91  7 30  3 13 45.0010000  0  4 17 21 03 23
  21990959.475     5797340.973 3   4517411.751 1
  22511335.630    -6728175.235 2  -5242721.513 1
  23927071.333    17274960.021 2  13460993.501 1
  20967722.550   -12624029.938 3  -9836869.337 2
 91  7 30  3 14  0.0010000  0  4 17 21 03 23
  21996613.860     5827052.342 3   4540563.468 1
  22505456.093    -6759065.242 2  -5266791.591 1
  23938670.004    17335905.945 2  13508483.780 1
  20969862.470   -12612784.567 3  -9828106.697 2
 91  7 30  3 14 15.0010000  0  4 17 21 03 23
  22002280.539     5856825.714 3   4563763.479 1
  22499594.853    -6789885.422 2  -5290807.234 1
  23950284.860    17396922.045 2  13556028.961 1
  20972019.771   -12601452.822 3  -9819276.765 2
 91  7 30  3 14 30.0010000  0  4 17 21 03 23
  22007958.910     5886661.090 3   4587011.811 1
  22493744.109    -6820635.639 2  -5314768.402 1
  23961911.111    17458008.155 2  13603628.760 1
  20974190.273   -12590034.745 3  -9810379.556 2
 91  7 30  3 14 45.0010000  0  4 17 21 03 23
  22013648.065     5916556.578 3   4610306.981 1
  22487902.945    -6851317.913 2  -5338676.623 1
  23973546.061    17519162.005 2  13651281.003 1
  20976381.453   -12578532.692 3  -9801416.903 2
 91  7 30  3 15  0.0010000  0  4 17 21 03 23
  22019346.224     5946510.818 3   4633647.938 2
  22482075.881    -6881933.454 3  -5362532.831 1
  23985192.101    17580381.815 2  13698984.734 1
  20978583.129   -12566947.960 3  -9792389.848 2
 91  7 30  3 15 15.0010000  0  4 17 21 03 23
  22025056.668     5976524.719 3   4657035.386 2
  22476265.002    -6912481.467 2  -5386336.421 1
  23996849.230    17641668.208 2  13746740.279 1
  20980805.188   -12555279.979 3  -9783297.913 2
 91  7 30  3 15 30.0010000  0  4 17 21 03 23
  22030781.509     6006600.900 3   4680471.369 2
  22470465.222    -6942959.191 2  -5410085.268 1
  24008532.736    17703023.520 2  13794549.392 1
  20983044.339   -12543526.322 3  -9774139.210 2
 91  7 30  3 15 45.0010000  0  5 17 21 03 23 11
  22036516.235     6036733.975 3   4703951.668 2
  22464679.227    -6973372.066 2  -5433783.540 1
  24020217.445    17764442.033 2  13842408.035 1
  20985293.986   -12531692.637 3  -9764918.153 2
  25354989.408           0.429 2         0.080
 91  7 30  3 16  0.0010000  0  5 17 21 03 23 11
  22042261.160     6066927.546 3   4727479.128 1
  22458902.524    -7003716.097 2  -5457428.196 1
  24031920.748    17825927.174 2  13890318.443 1
  20987563.116   -12519774.929 3  -9755631.632 2
  25345067.179      -52146.027 2    -40633.655 1
 91  7 30  3 16 15.0010000  0  5 17 21 03 23 11
  22048015.972     6097181.322 3   4751053.505 2
  22453140.811    -7033991.453 2  -5481019.347 1
  24043638.133    17887478.558 2  13938280.477 1
  20989846.931   -12507773.915 3  -9746280.177 2
  25335144.043     -104286.020 2    -81262.125 1
 91  7 30  3 16 30.0010000  0  5 17 21 03 23 11
  22053788.783     6127495.738 3   4774675.120 2
  22447393.495    -7064197.850 2  -5504556.732 1
  24055357.620    17949095.807 2  13986293.841 1
  20992145.142   -12495689.542 3  -9736863.777 2
  25325218.219     -156418.996 2   -121885.265 1
 91  7 30  3 16 45.0010000  0  5 17 21 03 23 11
  22059567.876     6157870.220 3   4798343.513 2
  22441657.861    -7094335.996 2  -5528040.952 1
  24067096.897    18010778.174 2  14034357.905 1
  20994459.538   -12483522.433 3  -9727382.914 2
  25315304.079     -208545.359 2   -162503.296 1
 91  7 30  3 17  0.0010000  0  5 17 21 03 23 11
  22065358.967     6188305.655 3   4822059.446 1
  22435934.522    -7124404.544 2  -5551470.940 1
  24078847.865    18072526.584 2  14082473.412 1
  20996791.926   -12471271.354 3  -9717836.620 2
  25305395.042     -260663.443 2   -203114.669 1
 91  7 30  3 17 15.0010000  0  5 17 21 03 23 11
  22071166.547     6218805.196 3   4845825.303 1
  22430227.375    -7154400.530 2  -5574844.373 1
  24090604.521    18134343.655 2  14130642.659 1
  20999141.397   -12458933.651 3  -9708222.827 2
  25295470.711     -312769.996 2   -243717.187 1
 91  7 30  3 17 30.0010000  0  5 17 21 03 23 11
  22076974.730     6249362.774 3   4869636.394 1
  22424534.914    -7184330.109 2  -5598166.077 1
  24102380.373    18196222.885 2  14178860.087 1
  21001503.458   -12446515.683 3  -9698546.479 2
  25285560.471     -364870.796 2   -284315.418 1
 91  7 30  3 17 45.0010000  0  5 17 21 03 23 11
  22082807.186     6279980.059 3   4893494.020 1
  22418852.948    -7214191.281 2  -5621434.492 1
  24114168.807    18258165.956 2  14227127.308 1
  21003882.612   -12434015.683 3  -9688806.225 2
  25275652.028     -416963.780 2   -324907.355 1
 91  7 30  3 18  0.0010000  0  5 17 21 03 23 11
  22088643.848     6310660.592 3   4917400.931 1
  22413182.073    -7243980.763 2  -5644646.992 1
  24125975.833    18320175.647 2  14275446.401 1
  21006275.857   -12421430.597 3  -9678999.658 2
  25265739.396     -469045.377 2   -365490.483 1
 91  7 30  3 18 15.0010000  0  5 17 21 03 23 11
  22094489.505     6341402.097 3   4941355.343 1
  22407526.789    -7273700.619 2  -5667805.288 1
  24137780.461    18382249.513 2  14323815.678 1
  21008687.687   -12408762.748 3  -9669128.602 2
  25255840.542     -521117.483 2   -406066.019 1
 91  7 30  3 18 30.0010000  0  4 17 21 03 23
  22100357.638     6372207.083 3   4965359.221 2
  22401885.901    -7303348.239 2  -5690907.280 1
  24149612.668    18444389.850 2  14372236.552 1
  21011113.311   -12396009.725 3  -9659191.175 2
 91  7 30  3 18 45.0010000  0  4 17 21 03 23
  22106225.475     6403069.970 3   4989408.199 2
  22396258.197    -7332928.789 2  -5713957.003 1
  24161441.281    18506591.200 2  14420705.094 1
  21013555.120   -12383176.657 3  -9649191.380 2
 91  7 30  3 19  0.0010000  0  4 17 21 03 23
  22112112.201     6433994.567 3   5013505.276 1
  22390640.379    -7362438.750 2  -5736951.717 1
  24173301.670    18568856.719 2  14469223.662 1
  21016013.114   -12370260.465 3  -9639126.824 2
 91  7 30  3 19 15.0010000  0  4 17 21 03 23
  22118007.024     6464983.431 3   5037652.456 1
  22385041.459    -7391875.526 2  -5759889.428 1
  24185156.066    18631188.558 2  14517793.783 1
  21018488.200   -12357258.692 3  -9628995.568 2
 91  7 30  3 19 30.0010000  0  4 17 21 03 23
  22123916.828     6496030.310 3   5061844.822 1
  22379450.933    -7421245.482 2  -5782775.053 1
  24197032.640    18693579.956 2  14566410.537 1
  21020975.580   -12344178.140 3  -9618802.923 2
 91  7 30  3 19 45.0010000  0  4 17 21 03 23
  22129836.230     6527136.683 3   5086083.569 1
  22373875.091    -7450546.921 2  -5805607.277 1
  24208914.319    18756032.403 2  14615074.958 1
  21023480.646   -12331017.247 3  -9608547.683 2
 91  7 30  3 20  0.0010000  0  4 17 21 03 23
  22135768.527     6558305.285 3   5110370.779 2
  22368312.136    -7479777.021 2  -5828383.946 1
  24220808.283    18818548.218 2  14663788.579 1
  21026000.999   -12317773.470 3  -9598227.860 2
 91  7 30  3 20 15.0010000  0  4 17 21 03 23
  22141708.014     6589536.814 3   5134707.028 1
  22362765.383    -7508935.097 2  -5851104.482 1
  24232723.832    18881127.810 2  14712551.815 1
  21028537.545   -12304446.345 3  -9587843.078 2
 91  7 30  3 20 30.0010000  0  4 17 21 03 23
  22147668.189     6620828.423 3   5159090.097 1
  22357229.712    -7538023.997 2  -5873771.114 1
  24244640.281    18943767.887 2  14761362.193 1
  21031087.283   -12291038.633 3  -9577395.507 2
 91  7 30  3 20 45.0010000  0  4 17 21 03 23
  22153632.560     6652181.521 3   5183521.065 2
  22351704.240    -7567042.108 2  -5896382.601 1
  24256569.328    19006469.799 2  14810220.715 1
  21033657.099   -12277548.881 3  -9566884.017 2
 91  7 30  3 21  0.0010000  0  4 17 21 03 23
  22159610.420     6683590.774 3   5207995.828 1
  22346196.751    -7595994.703 2  -5918942.991 1
  24268508.558    19069227.933 2  14859123.106 1
  21036237.113   -12263982.746 3  -9556313.005 2
 91  7 30  3 21 15.0010000  0  4 17 21 03 23
  22165595.478     6715058.863 3   5232516.405 2
  22340698.553    -7624879.061 2  -5941450.248 1
  24280463.684    19132044.373 2  14908070.960 1
  21038833.322   -12250337.739 3  -9545680.529 2
 91  7 30  3 21 30.0010000  0  4 17 21 03 23
  22171598.519     6746585.828 3   5257082.861 2
  22335213.854    -7653695.193 2  -5963904.330 1
  24292435.598    19194919.023 2  14957064.036 1
  21041444.808   -12236614.072 3  -9534986.758 2
 91  7 30  3 21 45.0010000  0  4 17 21 03 23
  22177606.367     6778173.188 3   5281696.395 1
  22329745.043    -7682441.368 2  -5986303.915 1
  24304407.512    19257853.273 2  15006103.490 1
  21044071.292   -12222809.967 3  -9524230.313 2
 91  7 30  3 22  0.0010000  0  4 17 21 03 23
  22183631.892     6809816.709 3   5306353.681 1
  22324284.024    -7711122.104 2  -6008652.473 1
  24316403.106    19320842.310 2  15055185.894 1
  21046716.362   -12208930.147 3  -9513414.872 2
 91  7 30  3 22 15.0010000  0  4 17 21 03 23
  22189664.014     6841518.499 3   5331056.361 1
  22318841.885    -7739734.742 3  -6030948.011 2
  24328393.002    19383888.102 2  15104312.487 1
  21049365.627   -12194972.400 3  -9502538.698 2
 91  7 30  3 22 30.0010000  0  4 17 21 03 23
  22195705.436     6873281.259 3   5355806.567 2
  22313413.541    -7768276.770 2  -6053188.507 1
  24340400.593    19446992.984 2  15153484.912
  21052041.575   -12180934.451 3  -9491600.036 2
 91  7 30  3 22 45.0010000  0  5 17 21 03 23 11
  22201762.738     6905105.237 3   5380604.462 1
  22307992.396    -7796747.875 3  -6075373.744 1
  24352420.172    19510156.889 2  15202703.506 1
  21054728.315   -12166816.005 3  -9480598.653 2
  25077840.573      146200.25212    113921.908 1
 91  7 30  3 23  0.0010000  0  4 17 21 03 23
  22207828.137     6936986.250 3   5405446.797 1
  22302585.341    -7825152.212 2  -6097506.936 1
  24364454.741    19573375.213 2  15251964.423 1
  21057428.248   -12152621.477 3  -9469537.984 2
 91  7 30  3 23 15.0010000  0  4 17 21 03 23
  22213907.933     6968928.329 3   5430336.736 1
  22297197.167    -7853485.849 2  -6119585.036 1
  24376496.804    19636651.775 2  15301270.766 1
  21060146.468   -12138347.325 3  -9458415.272 2
 91  7 30  3 23 30.0010000  0  4 17 21 03 23
  22219995.214     7000929.814 3   5455272.966 1
  22291818.592    -7881750.350 2  -6141609.302 1
  24388544.566    19699984.303 2  15350620.649 1
  21062877.270   -12123995.217 3  -9447231.803 2
 91  7 30  3 23 45.0010000  0  4 17 21 03 23
  22226096.596     7032988.370 3   5480253.669 1
  22286451.114    -7909947.940 2  -6163581.411 1
  24400606.409    19763370.530 2  15400012.474 1
  21065623.673   -12109567.453 3  -9435989.393 2
 91  7 30  3 24  0.0010000  0  4 17 21 03 23
  22232208.159     7065103.825 3   5505278.668 1
  22281101.017    -7938078.391 2  -6185501.179 2
  24412677.554    19826810.091 2  15449445.762 1
  21068380.859   -12095064.025 3  -9424688.021 2
 91  7 30  3 24 15.0010000  0  3 17 21 23
  22238332.322     7097279.271 3   5530350.440 1
  22275763.510    -7966138.900 2  -6207366.476 1
  21071153.647   -12080482.428 3  -9413325.727 2
 91  7 30  3 24 30.0010000  0  4 17 21 23 11
  22244468.473     7129511.901 3   5555466.784 1
  22270432.303    -7994132.242 2  -6229179.430 1
  21073944.713   -12065825.684 3  -9401904.885 2
  25008842.735      156607.79712    122031.543 1
 91  7 30  3 24 45.0010000  0  4 17 21 23 11
  22250609.422     7161804.191 3   5580629.607 2
  22265117.577    -8022055.792 3  -6250937.983 1
  21076748.666   -12051091.368 3  -9390423.606 2
  24998989.461      104869.642 2     81716.284 1
 91  7 30  3 25  0.0010000  0  4 17 21 23 11
  22256762.361     7194155.624 3   5605838.504 1
  22259814.552    -8049910.274 2  -6272642.746 1
  21079566.719   -12036280.262 3  -9378882.486 2
  24989153.567       53148.120 2     41413.847 1
 91  7 30  3 25 15.0010000  0  4 17 21 23 11
  22262936.893     7226566.590 3   5631093.819 1
  22254531.010    -8077695.066 2  -6294293.178 1
  21082399.160   -12021391.955 3  -9367281.212 2
  24979311.985        1444.250 2      1125.012 1
 91  7 30  3 25 30.0010000  0  4 17 21 23 11
  22269113.817     7259039.575 3   5656397.437 2
  22249256.158    -8105407.595 2  -6315887.320 1
  21085248.388   -12006424.019 3  -9355617.883 2
  24969481.789      -50239.044 2    -39147.451 1
 91  7 30  3 25 45.0010000  0  4 17 21 23 11
  22275303.932     7291574.197 3   5681749.083 1
  22243998.102    -8133048.284 2  -6337425.469 1
  21088112.902   -11991377.240 3  -9343893.123 2
  24959649.795     -101901.970 2    -79404.248 1
 91  7 30  3 26  0.0010000  0  4 17 21 23 11
  22281505.138     7324168.823 2   5707147.488 1
  22238751.136    -8160618.586 2  -6358908.787 1
  21090992.712   -11976253.330 3  -9332108.246 2
  24949816.903     -153545.613 2   -119645.974 1
 91  7 30  3 26 15.0010000  0  4 17 21 23 11
  22287721.935     7356823.746 3   5732592.863 2
  22233519.456    -8188118.122 2  -6380336.945 1
  21093883.009   -11961052.047 3  -9320263.092 2
  24939998.695     -205169.337 2   -159872.198 1
 91  7 30  3 26 30.0010000  0  4 17 21 23 11
  22293951.916     7389538.184 3   5758084.627 1
  22228298.272    -8215547.822 2  -6401710.692 1
  21096791.594   -11945774.546 3  -9308358.543 2
  24930179.597     -256773.860 2   -200083.465 1
 91  7 30  3 26 45.0010000  0  4 17 21 23 11
  22300179.506     7422307.908 3   5783619.484 1
  22223092.977    -8242911.679 2  -6423033.148 1
  21099710.971   -11930424.840 3  -9296397.736 2
  24920354.199     -308362.743 2   -240282.581 1
 91  7 30  3 27  0.0010000  0  4 17 21 23 11
  22306429.877     7455135.331 2   5809199.282 1
  22217893.972    -8270207.179 2  -6444302.302 1
  21102643.847   -11915000.620 3  -9284378.867 2
  24910547.683     -359933.105 2   -280467.174 1
 91  7 30  3 27 15.0010000  0  4 17 21 23 11
  22312689.846     7488024.704 3   5834827.370 1
  22212715.359    -8297430.335 2  -6465515.119 1
  21105597.994   -11899498.150 3  -9272299.016 2
  24900739.378     -411480.846 2   -320634.203 1
 91  7 30  3 27 30.0010000  0  4 17 21 23 11
  22318960.608     7520971.464 2   5860500.172 2
  22207550.234    -8324585.448 2  -6486674.906 1
  21108559.951   -11883922.082 3  -9260161.815 2
  24890923.875     -463009.683 2   -360786.467 1
 91  7 30  3 27 45.0010000  0  4 17 21 23 11
  22325239.755     7553978.888 3   5886220.231 2
  22202391.408    -8351669.263 2  -6507779.130 1
  21111539.287   -11868269.291 3  -9247964.834 2
  24881128.152     -514516.109 2   -400921.293 1
 91  7 30  3 28  0.0010000  0  4 17 21 23 11
  22331534.196     7587049.276 3   5911989.344 1
  22197252.965    -8378679.359 2  -6528825.900 1
  21114533.309   -11852537.565 3  -9235706.353 2
  24871335.735     -565997.602 2   -441036.659 1
 91  7 30  3 28 15.0010000  0  4 17 21 23 11
  22337837.634     7620176.451 2   5937802.725 1
  22192130.410    -8405621.751 2  -6549819.922 1
  21117537.233   -11836732.915 3  -9223391.025 2
  24861543.912     -617459.821 2   -481137.141 1
 91  7 30  3 28 30.0010000  0  4 17 21 23 11
  22344156.663     7653364.766 2   5963663.766 1
  22187004.557    -8432492.243 2  -6570757.928 1
  21120563.336   -11820851.446 3  -9211015.853 2
  24851762.279     -668898.049 2   -521218.949 1
 91  7 30  3 28 45.0010000  0  4 17 21 23 11
  22350478.388     7686608.135 2   5989567.664 1
  22181914.983    -8459296.889 2  -6591644.605 1
  21123594.840   -11804899.424 3  -9198585.708 2
  24841968.066     -720318.068 2   -561286.653 1
 91  7 30  3 29  0.0010000  0  4 17 21 23 11
  22356813.603     7719912.405 2   6015519.051 1
  22176827.206    -8486029.798 2  -6612475.421 1
  21126647.023   -11788871.203 3  -9186096.187 2
  24832176.242     -771713.664 2   -601335.197 1
 91  7 30  3 29 15.0010000  0  4 17 21 23 11
  22363161.704     7753273.923 2   6041515.037 1
  22171749.620    -8512694.489 2  -6633253.033 1
  21129713.000   -11772770.679 3  -9173550.323 2
  24822407.802     -823088.202 2   -641367.238 1
 91  7 30  3 29 30.0010000  0  4 17 21 23 11
  22369523.905     7786692.264 2   6067555.270 1
  22166688.219    -8539291.271 2  -6653977.777 1
  21132788.278   -11756598.182 3  -9160948.370 2
  24812643.568     -874441.607 2   -681382.802 1
 91  7 30  3 29 45.0010000  0  4 17 21 23 11
  22375894.194     7820172.324 2   6093643.639 1
  22161644.513    -8565815.669 2  -6674646.111 1
  21135881.530   -11740349.295 3  -9148286.896 2
  24802866.132     -925768.985 2   -721378.153 1
 91  7 30  3 30  0.0010000  0  4 17 21 23 11
  22382274.674     7853713.276 3   6119779.420 1
  22156608.895    -8592268.140 3  -6695258.380 1
  21138986.482   -11724024.650 3  -9135566.388 2
  24793108.189     -977070.593 2   -761353.221 1
 91  7 30  3 30 15.0010000  0  4 17 21 23 11
  22388665.346     7887310.728 2   6145959.236 1
  22151590.675    -8618652.872 2  -6715817.851 1
  21142108.221   -11707628.829 3  -9122790.421 2
  24783346.345    -1028350.336 2   -801311.509 1
 91  7 30  3 30 30.0010000  0  4 17 21 23 11
  22395075.509     7920966.128 2   6172184.225 1
  22146582.637    -8644968.528 2  -6736323.521 1
  21145240.457   -11691160.450 3  -9109957.918 2
  24773593.200    -1079606.487 2   -841251.356 1
 91  7 30  3 30 45.0010000  0  4 17 21 23 11
  22401488.376     7954677.333 2   6198452.704 1
  22141587.800    -8671217.313 2  -6756777.091 1
  21148389.776   -11674622.136 3  -9097070.926 2
  24763843.345    -1130840.895 2   -881174.118 1
 91  7 30  3 31  0.0010000  0  4 17 21 23 11
  22407918.022     7988451.097 2   6224769.928 1
  22136603.451    -8697392.189 2  -6777173.035 1
  21151551.686   -11658007.075 3  -9084124.126 2
  24754102.494    -1182046.182 2   -921074.306 1
 91  7 30  3 31 15.0010000  0  4 17 21 23 11
  22414353.663     8022281.590 2   6251131.333 1
  22131633.786    -8723499.042 2  -6797516.004 1
  21154726.186   -11641321.217 3  -9071122.157 2
  24744361.634    -1233228.056 2   -960956.210 1
 91  7 30  3 31 30.0010000  0  4 17 21 23 11
  22420807.896     8056170.578 2   6277538.311 1
  22126684.511    -8749536.128 2  -6817804.585 1
  21157916.277   -11624563.038 3  -9058063.834 2
  24734633.068    -1284384.334 2  -1000818.205 1
 91  7 30  3 31 45.0010000  0  4 17 21 23 11
  22427259.730     8090120.401 2   6303992.700 1
  22121741.240    -8775500.793 3  -6838036.759 1
  21161118.960   -11607730.085 3  -9044947.245 2
  24724896.108    -1335512.132 2  -1040657.951 1
 91  7 30  3 32  0.0010000  0  4 17 21 23 11
  22433732.252     8124126.794 2   6330491.166 1
  22116811.152    -8801397.367 2  -6858215.872 2
  21164335.436   -11590826.921 3  -9031775.945 2
  24715170.840    -1386615.357 2  -1080478.683 1
 91  7 30  3 32 15.0020000  0  4 17 21 23 11
  22440217.663     8158193.391 2   6357036.559 1
  22111898.151    -8827226.137 2  -6878342.158 1
  21167562.098   -11573851.184 3  -9018548.097 2
  24705450.670    -1437695.551 2  -1120281.327 1
 91  7 30  3 32 30.0020000  0  3 17 21 23
  22446707.565     8192317.596 2   6383626.846 1
  22106995.346    -8852981.844 2  -6898411.481 1
  21170810.657   -11556803.451 3  -9005264.141 2
 91  7 30  3 32 45.0020000  0  3 17 21 23
  22453219.061     8226500.734 2   6410263.056 1
  22102108.727    -8878667.161 2  -6918425.991 1
  21174068.499   -11539683.669 3  -8991924.064 2
 91  7 30  3 33  0.0020000  0  3 17 21 23
  22459732.948     8260741.475 2   6436944.153 1
  22097235.902    -8904283.217 2  -6938386.506 2
  21177337.431   -11522493.265 3  -8978528.937 2
 91  7 30  3 33 15.0020000  0  3 17 21 23
  22466262.131     8295041.672 2   6463671.541 1
  22092372.971    -8929828.455 2  -6958291.866 1
  21180624.057   -11505230.690 3  -8965077.590 2
 91  7 30  3 33 30.0020000  0  3 17 21 23
  22472796.408     8329398.937 2   6490443.438 1
  22087527.124    -8955304.715 2  -6978143.461 1
  21183920.874   -11487898.281 3  -8951571.809 2
 91  7 30  3 33 45.0020000  0  3 17 21 23
  22479343.573     8363815.115 2   6517261.227 2
  22082691.468    -8980710.160 2  -6997939.865 1
  21187234.784   -11470494.272 3  -8938010.245 2
 91  7 30  3 34  0.0020000  0  4 17 21 23 11
  22485909.331     8398289.246 2   6544124.154 1
  22077872.303    -9006045.817 2  -7017681.905 1
  21190560.377   -11453019.748 3  -8924393.729 2
  24637565.667      156900.85912    122261.427 1
 91  7 30  3 34 15.0020000  0  4 17 21 23 11
  22492479.582     8432824.513 2   6571034.735 2
  22073059.437    -9031308.553 3  -7037367.111 1
  21193897.373   -11435471.855 3  -8910720.047 2
  24627890.769      106054.464 2     82640.719 1
 91  7 30  3 34 30.0020000  0  4 17 21 23 11
  22499065.425     8467416.540 2   6597989.566 1
  22068270.251    -9056502.638 3  -7056998.845 2
  21197250.546   -11417855.207 3  -8896992.785 2
  24618211.963       55236.558 2     43042.383 1
 91  7 30  3 34 45.0020000  0  4 17 21 23 11
  22505655.456     8502064.200 2   6624987.725 1
  22063488.263    -9081629.087 3  -7076577.863 2
  21200616.021   -11400170.855 3  -8883212.772 2
  24608555.954        4446.435 2      3465.706
 91  7 30  3 35  0.0020000  0  4 17 21 23 11
  22512258.086     8536771.743 2   6652032.564 1
  22058721.561    -9106683.744 2  -7096100.951 1
  21203993.485   -11382414.773 3  -8869376.872 2
  24598892.739      -46311.407 2    -36085.831 1
 91  7 30  3 35 15.0020000  0  4 17 21 23 11
  22518876.902     8571536.210 2   6679121.729 1
  22053962.364    -9131669.556 3  -7115570.371 1
  21207384.734   -11364590.220 3  -8855487.593 2
  24589240.326      -97039.556 2    -75614.174 1
 91  7 30  3 35 30.0020000  0  4 17 21 23 11
  22525500.821     8606354.305 2   6706252.704 1
  22049222.640    -9156589.731 3  -7134988.654 2
  21210788.573   -11346700.369 3  -8841547.455 2
  24579594.796     -147740.958 2   -115121.644 1
 91  7 30  3 35 45.0020000  0  4 17 21 23 11
  22532131.930     8641232.523 2   6733430.535 1
  22044493.718    -9181437.878 3  -7154350.811 1
  21214208.013   -11328739.215 3  -8827551.738 2
  24569942.985     -198408.873 2   -154603.060 1
 91  7 30  3 36  0.0020000  0  4 17 21 23 11
  22538784.922     8676167.169 2   6760652.318 1
  22039781.278    -9206217.434 3  -7173659.525 2
  21217639.136   -11310710.300 3  -8813503.234 2
  24560316.049     -249046.280 2   -194060.791 1
 91  7 30  3 36 15.0020000  0  4 17 21 23 11
  22545440.914     8711158.748 2   6787918.456 1
  22035072.738    -9230927.920 2  -7192914.428 1
  21221082.247   -11292613.282 3  -8799401.661 2
  24550693.606     -299652.423 2   -233494.030 1
 91  7 30  3 36 30.0020000  0  4 17 21 23 11
  22552112.499     8746207.373 2   6815229.053 1
  22030386.980    -9255569.157 3  -7212115.336 2
  21224538.254   -11274448.055 3  -8785246.942 2
  24541054.978     -350226.667 2   -272902.535 1
 91  7 30  3 36 45.0020000  0  4 17 21 23 11
  22558792.774     8781312.271 2   6842583.505 1
  22025709.615    -9280141.936 3  -7231262.964 1
  21228008.055   -11256215.692 3  -8771039.901 2
  24531440.336     -400769.460 2   -312286.507 1
 91  7 30  3 37  0.0020000  0  4 17 21 23 11
  22565482.045     8816473.164 2   6869981.607 1
  22021050.241    -9304646.228 3  -7250357.176 1
  21231490.744   -11237916.645 3  -8756780.910 2
  24521827.788     -451280.570 2   -351645.697 1
 91  7 30  3 37 15.0020000  0  4 17 21 23 11
  22572185.703     8851688.785 2   6897422.334 1
  22016398.362    -9329083.592 3  -7269399.250 2
  21234986.022   -11219552.530 3  -8742471.208 2
  24512222.743     -501761.149 2   -390981.233 1
 91  7 30  3 37 30.0020000  0  4 17 21 23 11
  22578896.254     8886962.365 2   6924908.230 1
  22011760.574    -9353450.634 3  -7288386.509 2
  21238492.094   -11201120.072 3  -8728108.250 2
  24502627.287     -552207.505 2   -430290.073 1
 91  7 30  3 37 45.0020000  0  4 17 21 23 11
  22585621.201     8922295.582 2   6952440.602 1
  22007135.376    -9377745.476 3  -7307317.522 2
  21242015.860   -11182617.402 3  -8713690.579 2
  24493030.627     -602617.463 2   -469570.504 1
 91  7 30  3 38  0.0020000  0  4 17 21 23 11
  22592353.940     8957689.846 2   6980020.522 1
  22002527.568    -9401966.604 3  -7326191.078 1
  21245550.114   -11164043.442 3  -8699217.356 2
  24483443.861     -652989.081 2   -508821.056 1
 91  7 30  3 38 15.0020000  0  4 17 21 23 11
  22599103.763     8993140.159 2   7007644.121 1
  21997932.053    -9426119.432 3  -7345011.439 1
  21249094.558   -11145403.789 3  -8684692.957 2
  24473869.991     -703327.365 2   -548045.546 1
 91  7 30  3 38 30.0020000  0  4 17 21 23 11
  22605858.690     9028649.964 2   7035314.090 2
  21993347.924    -9450200.234 3  -7363775.675 1
  21252657.893   -11126694.913 3  -8670114.613 2
  24464294.620     -753628.275 2   -587241.100 1
 91  7 30  3 38 45.0020000  0  4 17 21 23 11
  22612630.404     9064220.002 2   7063030.988 1
  21988781.185    -9474208.170 3  -7382483.125 1
  21256229.621   -11107916.064 3  -8655481.743 2
  24454729.746     -803890.713 2   -626406.607 1
 91  7 30  3 39  0.0020000  0  4 17 21 23 11
  22619406.611     9099847.012 2   7090792.273 1
  21984224.034    -9498146.569 3  -7401136.394 2
  21259815.440   -11089070.647 3  -8640797.004 2
  24445172.960     -854117.506 2   -665544.388 1
 91  7 30  3 39 15.0020000  0  4 17 21 23 11
  22626201.709     9135530.575 2   7118597.664 1
  21979683.985    -9522015.814 3  -7419735.773 1
  21263412.942   -11070159.078 3  -8626060.702 2
  24435624.872     -904308.748 2   -704654.417 1
 91  7 30  3 39 30.0020000  0  4 17 21 23 11
  22632997.399     9171270.854 2   7146447.213 1
  21975156.814    -9545815.614 3  -7438281.037 1
  21267024.849   -11051181.438 3  -8611272.940 2
  24426079.176     -954463.806 2   -743736.287 1
 91  7 30  3 39 45.0020000  0  4 17 21 23 11
  22639813.184     9207071.472 2   7174343.779 1
  21970638.944    -9569542.355 2  -7456769.390 1
  21270651.135   -11032134.488 3  -8596431.136 2
  24416537.379    -1004578.730 2   -782786.806 1
 91  7 30  3 40  0.0020000  0  4 17 21 23 11
  22646635.861     9242932.346 2   7202287.319 1
  21966136.962    -9593195.969 3  -7475200.715 1
  21274286.713   -11013018.252 3  -8581535.374 2
  24407015.371    -1054652.986 2   -821805.645 1
 91  7 30  3 40 15.0020000  0  4 17 21 23 11
  22653473.825     9278850.869 2   7230275.772 1
  21961648.469    -9616779.223 3  -7493577.239 1
  21277937.290   -10993835.670 3  -8566587.906 2
  24397489.167    -1104689.102 2   -860794.829 1
 91  7 30  3 40 30.0020000  0  4 17 21 23 11
  22660312.993     9314828.885 2   7258310.568 1
  21957176.467    -9640289.863 3  -7511897.185 1
  21281602.551   -10974584.680 3  -8551587.130 2
  24387981.250    -1154684.425 2   -899752.204 1
 91  7 30  3 40 45.0020000  0  4 17 21 23 11
  22667175.544     9350864.364 2   7286390.145 1
  21952717.649    -9663730.091 3  -7530162.280 1
  21285278.309   -10955267.643 3  -8536534.896 2
  24378470.340    -1204640.711 2   -938679.192 1
 91  7 30  3 41  0.0020000  0  4 17 21 23 11
  22674045.285     9386956.054 2   7314513.525 1
  21948268.733    -9687101.248 3  -7548373.526 1
  21288964.554   -10935886.146 3  -8521432.418 2
  24368977.404    -1254559.021 2   -977576.510 1
 91  7 30  3 41 15.0020000  0  4 17 21 23 11
  22680925.225     9423107.090 2   7342683.186 1
  21943835.697    -9710399.881 3  -7566528.275 1
  21292666.993   -10916436.848 3  -8506277.113 2
  24359473.684    -1304435.671 2  -1016441.391 1
 91  7 30  3 41 30.0020000  0  4 17 21 23 11
  22687812.058     9459314.205 2   7370896.502 1
  21939413.463    -9733629.390 3  -7584629.146 1
  21296379.326   -10896923.215 3  -8491071.682 2
  24349999.045    -1354273.650 2  -1055276.092 1
 91  7 30  3 41 45.0020000  0  4 17 21 23 11
  22694714.474     9495580.014 2   7399155.577 1
  21935008.906    -9756787.162 3  -7602674.143 2
  21300106.344   -10877342.979 3  -8475814.350 2
  24340523.210    -1404069.965 2  -1094078.423 1
 91  7 30  3 42  0.0020000  0  4 17 21 23 11
  22701627.387     9531903.306 2   7427459.413 1
  21930615.447    -9779874.278 3  -7620664.045 1
  21303843.857   -10857697.155 3  -8460505.909 2
  24331056.955    -1453825.209 2  -1132848.718 1
 91  7 30  3 42 15.0020000  0  4 17 21 23 11
  22708548.396     9568284.737 2   7455808.581 1
  21926231.883    -9802890.002 3  -7638598.339 1
  21307595.462   -10837985.368 3  -8445146.074 2
  24321591.015    -1503538.316 2  -1171586.190 1
 91  7 30  3 42 30.0020000  0  4 17 21 23 11
  22715479.902     9604723.969 2   7484202.766 1
  21921868.403    -9825834.687 3  -7656477.280 2
  21311359.055   -10818208.165 3  -8429735.262 2
  24312141.853    -1553209.446 2  -1210290.938 1
 91  7 30  3 42 45.0020000  0  4 17 21 23 11
  22722427.593     9641222.159 2   7512642.916 1
  21917514.522    -9848707.143 3  -7674299.918 1
  21315135.239   -10798364.396 3  -8414272.581 2
  24302702.289    -1602836.855 2  -1248961.604 1
 91  7 30  3 43  0.0020000  0  4 17 21 23 11
  22729387.272     9677778.632 2   7541128.479 1
  21913176.520    -9871508.175 3  -7692066.924 2
  21318923.114   -10778455.161 3  -8398758.880 2
  24293262.122    -1652421.003 2  -1287598.546 1
 91  7 30  3 43 15.0020000  0  4 17 21 23 11
  22736355.946     9714395.166 2   7569660.804 1
  21908849.023    -9894235.775 3  -7709776.719 2
  21322724.487   -10758478.646 3  -8383192.755 2
  24283833.656    -1701959.470 2  -1326199.933 1
 91  7 30  3 43 30.0020000  0  4 17 21 23 11
  22743336.618     9751071.313 2   7598239.635 1
  21904541.306    -9916890.530 3  -7727429.720 1
  21326539.645   -10738435.539 3  -8367574.738 2
  24274417.772    -1751452.448 2  -1364765.861 1
 91  7 30  3 43 45.0020000  0  4 17 21 23 11
  22750320.579     9787804.906 2   7626863.203 1
  21900244.076    -9939474.442 3  -7745027.547 2
  21330364.096   -10718327.872 3  -8351906.427 2
  24265003.091    -1800901.613 2  -1403297.626 1
 91  7 30  3 44  0.0020000  0  4 17 21 23 11
  22757325.227     9824594.946 2   7655530.760 1
  21895956.741    -9961988.613 3  -7762571.001 2
  21334205.334   -10698157.070 3  -8336188.913 2
  24255598.602    -1850307.682 2  -1441795.814 1
 91  7 30  3 44 15.0020000  0  4 17 21 23 11
  22764336.175     9861443.212 2   7684243.671 1
  21891692.798    -9984430.898 3  -7780058.473 1
  21338056.170   -10677921.307 3  -8320420.774 2
  24246210.594    -1899668.169 2  -1480258.484 1
 91  7 30  3 44 30.0020000  0  4 17 21 23 11
  22771360.315     9898351.569 2   7713003.403 1
  21887434.848   -10006799.484 3  -7797488.506 1
  21341918.400   -10657618.581 3  -8304600.468 2
  24236829.488    -1948980.742 2  -1518683.830 1
 91  7 30  3 44 45.0020000  0  4 17 21 23 11
  22778393.748     9935319.090 2   7741809.254 1
  21883190.380   -10029095.579 3  -7814862.053 2
  21345795.612   -10637250.600 3  -8288729.304 2
  24227454.681    -1998246.440 2  -1557072.628 1
 91  7 30  3 45  0.0020000  0  4 17 21 23 11
  22785443.967     9972349.107 2   7770663.816 1
  21878960.909   -10051315.502 3  -7832176.238 2
  21349683.922   -10616813.690 3  -8272804.428 2
  24218084.368    -2047461.143 2  -1595421.718 1
 91  7 30  3 45 15.0020000  0  4 17 21 23 11
  22792491.788    10009434.073 2   7799561.164 1
  21874742.529   -10073466.962 3  -7849437.069 1
  21353583.024   -10596315.722 3  -8256831.974 2
  24208731.444    -2096632.114 2  -1633736.745 1
 91  7 30  3 45 30.0020000  0  4 17 21 23 11
  22799564.492    10046572.934 2   7828500.579 1
  21870540.944   -10095550.771 3  -7866645.196 1
  21357494.412   -10575757.746 3  -8240812.775 2
  24199375.222    -2145759.801 2  -1672017.987 1
 91  7 30  3 45 45.0020000  0  4 17 21 23 11
  22806643.487    10083775.370 2   7857489.468 1
  21866356.434   -10117557.377 3  -7883793.162 2
  21361420.493   -10555130.387 3  -8224739.503 2
  24190039.983    -2194834.363 2  -1710257.861 1
 91  7 30  3 46  0.0020000  0  4 17 21 23 11
  22813733.876    10121034.506 2   7886522.519 1
  21862178.825   -10139493.535 3  -7900886.250 1
  21365357.969   -10534440.499 3  -8208617.502 2
  24180716.140    -2243862.188 2  -1748461.348 1
 91  7 30  3 46 15.0020000  0  4 17 21 23 11
  22820832.965    10158353.330 2   7915602.126 1
  21858023.108   -10161356.090 3  -7917921.952 1
  21369307.433   -10513685.359 3  -8192444.667 2
  24171391.398    -2292839.900 2  -1786625.770 1
 91  7 30  3 46 30.0020000  0  4 17 21 23 11
  22827946.739    10195729.202 2   7944726.138 1
  21853873.682   -10183147.719 3  -7934902.405 1
  21373267.996   -10492867.692 3  -8176223.088 2
  24162081.943    -2341769.607 2  -1824752.716 1
 91  7 30  3 46 45.0020000  0  4 17 21 23 11
  22835070.711    10233164.144 2   7973896.259 1
  21849741.340   -10204866.411 3  -7951826.039 2
  21377244.141   -10471985.357 3  -8159951.147 2
  24152776.378    -2390648.802 2  -1862840.389 1
 91  7 30  3 47  0.0020000  0  4 17 21 23 11
  22842203.671    10270658.569 2   8003112.683 1
  21845622.190   -10226511.815 3  -7968692.543 1
  21381228.680   -10451038.472 3  -8143628.896 2
  24143490.611    -2439476.917 2  -1900888.245 1
 91  7 30  3 47 15.0020000  0  4 17 21 23 11
  22849350.722    10308207.886 2   8032371.870 1
  21841515.037   -10248088.534 3  -7985505.546 1
  21385227.616   -10430031.746 3  -8127260.019 2
  24134207.532    -2488258.109 2  -1938899.476 1
 91  7 30  3 47 30.0020000  0  4 17 21 23 11
  22856508.566    10345812.619 2   8061674.245 1
  21837421.364   -10269595.906 2  -8002264.501 2
  21389235.844   -10408964.611 3  -8110844.060 2
  24124928.963    -2536991.363 2  -1976873.440 1
 91  7 30  3 47 45.0020000  0  4 17 21 23 11
  22863673.904    10383475.467 2   8091021.919 1
  21833341.189   -10291031.057 3  -8018967.196 2
  21393256.060   -10387834.155 3  -8094378.754 2
  24115666.274    -2585673.385 2  -2014807.398 1
 91  7 30  3 48  0.0020000  0  4 17 21 23 11
  22870853.334    10421195.359 2   8120414.009 1
  21829279.302   -10312395.012 3  -8035614.390 1
  21397285.271   -10366641.928 3  -8077865.338 2
  24106414.378    -2634304.844 2  -2052702.027 1
 91  7 30  3 48 15.0020000  0  4 17 21 23 11
  22878041.166    10458973.261 2   8149851.346 1
  21825226.113   -10333686.648 3  -8052205.239 2
  21401332.169   -10345386.804 3  -8061302.903 2
  24097169.078    -2682884.238 2  -2090556.080 1
 91  7 30  3 48 30.0020000  0  4 17 21 23 11
  22885240.079    10496811.793 2   8179335.884 1
  21821189.704   -10354903.588 3  -8068737.883 1
  21405392.852   -10324066.746 3  -8044689.860 2
  24087932.469    -2731408.834 2  -2128367.385 1
 91  7 30  3 48 45.0020000  0  4 17 21 23 11
  22892451.285    10534703.920 2   8208862.210 1
  21817167.987   -10376052.745 3  -8085217.720 2
  21409457.138   -10302688.673 3  -8028031.615 2
  24078709.959    -2779885.040 2  -2166141.005 1
 91  7 30  3 49  0.0020000  0  4 17 21 23 11
  22899676.879    10572655.052 2   8238434.520 1
  21813153.172   -10397128.535 3  -8101640.363 1
  21413538.212   -10281247.195 3  -8011323.976 2
  24069494.638    -2828307.072 2  -2203872.430 1
 91  7 30  3 49 15.0020000  0  4 17 21 23 11
  22906911.173    10610662.182 2   8268050.421 1
  21809158.730   -10418133.990 3  -8118008.207 1
  21417629.782   -10259745.603 3  -7994569.474 2
  24060288.610    -2876677.563 2  -2241563.676 1
 91  7 30  3 49 30.0020000  0  4 17 21 23 11
  22914148.764    10648727.560 2   8297711.796 1
  21805170.892   -10439066.840 3  -8134319.496 2
  21421733.942   -10238181.694 3  -7977766.430 2
  24051095.172    -2924993.814 2  -2279212.645 1
 91  7 30  3 49 45.0020000  0  4 17 21 23 11
  22921401.048    10686848.041 2   8327416.066 1
  21801202.242   -10459930.308 3  -8150576.726 1
  21425847.692   -10216558.937 3  -7960917.526 2
  24041911.036    -2973258.551 2  -2316821.526 1
 91  7 30  3 50  0.0020000  0  4 17 21 23 11
  22928669.509    10725028.961 2   8357167.372 1
  21797248.581   -10480718.932 3  -8166775.618 1
  21429976.439   -10194872.006 3  -7944018.599 2
  24032739.777    -3021465.898 2  -2354385.641 1
 91  7 30  3 50 15.0020000  0  4 17 21 23 11
  22935947.576    10763267.323 2   8386963.502 1
  21793302.109   -10501435.688 3  -8182918.519 1
  21434114.767   -10173124.022 3  -7927072.115 2
  24023576.327    -3069618.465 2  -2391907.039 1
 91  7 30  3 50 30.0020000  0  4 17 21 23 11
  22943235.232    10801562.488 2   8416803.859 1
  21789376.325   -10522081.277 3  -8199005.962 2
  21438264.795   -10151315.853 3  -7910078.742 2
  24014422.763    -3117716.608 2  -2429386.074 1
 91  7 30  3 50 45.0020000  0  4 17 21 23 11
  22950537.572    10839914.297 2   8446688.393 1
  21785461.343   -10542655.727 3  -8215037.973 1
  21442426.515   -10129447.562 3  -7893038.515 2
  24005279.687    -3165759.978 2  -2466822.493 1
 91  7 30  3 51  0.0020000  0  4 17 21 23 11
  22957841.718    10878322.410 2   8476616.767 1
  21781558.645   -10563159.389 3  -8231014.837 2
  21446599.630   -10107519.830 3  -7875951.977 2
  23996148.616    -3213748.509 2  -2504216.146 1
 91  7 30  3 51 15.0020000  0  4 17 21 23 11
  22965159.354    10916787.477 2   8506589.555 1
  21777672.429   -10583591.552 3  -8246935.966 2
  21450782.029   -10085531.951 3  -7858818.555 2
  23987027.125    -3261681.095 2  -2541566.120 1
 91  7 30  3 51 30.0020000  0  4 17 21 23 11
  22972492.572    10955312.351 2   8536608.954 1
  21773796.116   -10603949.252 3  -8262799.085 2
  21454978.230   -10063481.303 3  -7841636.230 2
  23977919.133    -3309554.460 2  -2578870.015 1
 91  7 30  3 51 45.0020000  0  4 17 21 23 11
  22979829.996    10993895.345 2   8566673.600 1
  21769936.285   -10624234.105 3  -8278605.426 2
  21459187.013   -10041369.467 3  -7824406.229 2
  23968820.729    -3357369.678 2  -2616128.619 1
 91  7 30  3 52  0.0020000  0  4 17 21 23 11
  22987185.699    11032537.528 2   8596784.369 1
  21766093.843   -10644445.233 3  -8294354.324 2
  21463408.395   -10019195.641 3  -7807127.910 2
  23959735.517    -3405125.488 2  -2653340.918 1
 91  7 30  3 52 15.0020000  0  4 17 21 23 11
  22994550.101    11071236.762 2   8626939.594 1
  21762254.403   -10664584.741 3  -8310047.424 1
  21467638.459    -9996962.089 3  -7789803.069 2
  23950653.909    -3452823.569 2  -2690508.175 1
 91  7 30  3 52 30.0020000  0  4 17 21 23 11
  23001927.093    11109991.424 2   8657138.027 1
  21758440.448   -10684653.955 3  -8325685.755 2
  21471881.427    -9974670.452 3  -7772432.965 2
  23941589.681    -3500464.902 2  -2727631.312 1
 91  7 30  3 52 45.0020000  0  4 17 21 23 11
  23009313.387    11148806.743 2   8687383.730 1
  21754634.879   -10704647.683 3  -8341265.264 2
  21476131.881    -9952315.985 3  -7755013.911 2
  23932537.747    -3548044.016 2  -2764705.868 1
 91  7 30  3 53  0.0020000  0  4 17 21 23 11
  23016708.361    11187680.693 2   8717675.086 1
  21750845.206   -10724568.124 3  -8356787.647 1
  21480398.233    -9929900.771 3  -7737547.511 2
  23923494.207    -3595562.641 2  -2801733.348 1
 91  7 30  3 53 15.0020000  0  4 17 21 23 11
  23024113.536    11226611.303 2   8748010.598 1
  21747066.920   -10744416.940 3  -8372254.236 2
  21484674.766    -9907426.611 3  -7720035.168 2
  23914462.062    -3643021.991 2  -2838714.638 1
 91  7 30  3 53 30.0020000  0  4 17 21 23 11
  23031542.399    11265602.211 2   8778393.178 1
  21743304.225   -10764190.369 3  -8387662.076 2
  21488963.602    -9884889.952 3  -7702474.144 2
  23905442.210    -3690417.933 2  -2875646.506 1
 91  7 30  3 53 45.0020000  0  4 17 21 23 11
  23038967.056    11304644.584 2   8808815.784 1
  21739552.620   -10783897.300 3  -8403018.097 2
  21493261.425    -9862299.777 3  -7684871.407 2
  23896434.940    -3737759.090 2  -2912535.686 1
 91  7 30  3 54  0.0020000  0  4 17 21 23 11
  23046406.704    11343743.995 2   8839282.813 1
  21735817.506   -10803532.007 3  -8418317.861 1
  21497573.941    -9839650.650 3  -7667222.727 2
  23887438.174    -3785039.309 2  -2949377.370 1
 91  7 30  3 54 15.0020000  0  4 17 21 23 11
  23053858.348    11382901.855 2   8869795.416 1
  21732095.584   -10823093.319 3  -8433560.406 2
  21501894.545    -9816941.389 3  -7649527.204 2
  23878454.890    -3832256.985 2  -2986170.331 1
 91  7 30  3 54 30.0020000  0  4 17 21 23 11
  23061318.081    11422113.660 2   8900350.062 1
  21728386.549   -10842585.521 3  -8448749.131 2
  21506225.951    -9794176.565 3  -7631788.384 2
  23869474.903    -3879416.030 2  -3022917.613 1
 91  7 30  3 54 45.0020000  0  4 17 21 23 11
  23068794.609    11461381.360 2   8930948.256 1
  21724690.410   -10862006.809 3  -8463882.586 1
  21510569.938    -9771354.562 3  -7614005.004 2
  23860512.009    -3926514.061 2  -3059617.358 1
 91  7 30  3 55  0.0020000  0  4 17 21 23 11
  23076278.327    11500710.431 2   8961594.308 1
  21721008.955   -10881351.588 3  -8478956.408 2
  21514925.024    -9748469.861 3  -7596172.775 2
  23851563.502    -3973545.135 2  -3096264.912 1
 91  7 30  3 55 15.0020000  0  4 17 21 23 11
  23083776.136    11540095.213 2   8992283.724 1
  21717340.099   -10900625.476 3  -8493975.005 2
  21519290.903    -9725528.066 3  -7578296.048 2
  23842626.696    -4020514.442 2  -3132864.370 1
 91  7 30  3 55 30.0020000  0  4 17 21 23 11
  23091275.445    11579539.668 2   9023019.659 1
  21713691.921   -10919824.558 3  -8508935.300 2
  21523666.379    -9702525.604 3  -7560372.059 2
  23833697.376    -4067417.748 2  -3169412.369 1
 91  7 30  3 55 45.0020000  0  4 17 21 23 11
  23098798.731    11619041.290 2   9053800.113 1
  21710047.949   -10938951.230 3  -8523839.185 2
  21528055.641    -9679464.996 3  -7542402.747 2
  23824788.743    -4114257.039 2  -3205910.458 1
 91  7 30  3 56  0.0020000  0  4 17 21 23 11
  23106324.722    11658598.767 2   9084624.082 1
  21706423.452   -10958006.815 3  -8538687.670 2
  21532454.195    -9656347.697 3  -7524389.269 2
  23815884.307    -4161033.230 2  -3242359.424 1
 91  7 30  3 56 15.0020000  0  4 17 21 23 11
  23113858.505    11698211.530 2   9115491.131 1
  21702808.255   -10976991.474 3  -8553480.891 2
  21536865.942    -9633174.150 3  -7506331.957 2
  23806995.463    -4207746.124 2  -3278759.034 1
 91  7 30  3 56 30.0020000  0  4 17 21 23 11
  23121407.879    11737883.597 2   9146404.442 1
  21699211.347   -10995901.290 3  -8568215.805 2
  21541285.480    -9609940.414 3  -7488227.754 2
  23798121.599    -4254391.275 2  -3315105.878 1
 91  7 30  3 56 45.0020000  0  4 17 21 23 11
  23128971.947    11777614.208 2   9177363.346 1
  21695626.426   -11014737.117 3  -8582893.062 2
  21545715.811    -9586647.569 3  -7470077.485 2
  23789257.936    -4300969.146 2  -3351400.285 1
 91  7 30  3 57  0.0020000  0  4 17 21 23 11
  23136546.501    11817400.494 2   9208365.643 1
  21692057.098   -11033501.856 3  -8597514.902 2
  21550159.335    -9563298.490 3  -7451883.400 2
  23780407.465    -4347482.367 2  -3387644.329 1
 91  7 30  3 57 15.0020000  0  4 17 21 23 11
  23144124.354    11857243.146 2   9239411.833 1
  21688498.867   -11052194.801 3  -8612080.817 2
  21554614.550    -9539892.906 3  -7433645.282 2
  23771568.685    -4393929.727 2  -3423837.032 1
 91  7 30  3 57 30.0020000  0  4 17 21 23 11
  23151711.203    11897146.060 2   9270505.006 1
  21684955.618   -11070811.546 3  -8626587.349 2
  21559079.057    -9516426.535 3  -7415359.789 2
  23762740.698    -4440306.468 2  -3459974.716 1
 91  7 30  3 57 45.0020000  0  4 17 21 23 11
  23159320.833    11937103.725 2   9301640.864 1
  21681427.961   -11089357.782 3  -8641038.945 2
  21563554.959    -9492905.160 3  -7397031.452 2
  23753932.797    -4486617.924 2  -3496061.582 1
 91  7 30  3 58  0.0020000  0  4 17 21 23 11
  23166933.770    11977117.831 2   9332820.649 1
  21677909.299   -11107832.012 3  -8655434.427 1
  21568042.859    -9469327.258 3  -7378659.054 2
  23745132.085    -4532862.060 2  -3532095.936 1
 91  7 30  3 58 15.0020000  0  4 17 21 23 11
  23174556.889    12017183.623 2   9364040.709 1
  21674408.323   -11126239.059 3  -8669777.559 2
  21572537.939    -9445698.031 3  -7360246.678 2
  23736342.768    -4579043.312 2  -3568081.283 1
 91  7 30  3 58 30.0020000  0  4 17 21 23 11
  23182192.598    12057304.097 2   9395303.418 1
  21670919.937   -11144575.727 3  -8684065.848 1
  21577045.923    -9422014.193 3  -7341791.738 2
  23727567.551    -4625158.076 2  -3604014.822 1
 91  7 30  3 58 45.0020000  0  4 17 21 23 11
  23189837.913    12097482.807 2   9426611.449 1
  21667443.539   -11162838.427 3  -8698296.497 2
  21581563.794    -9398272.221 3  -7323291.498 2
  23718806.111    -4671202.331 2  -3639893.442 1
 91  7 30  3 59  0.0020000  0  4 17 21 23 11
  23197495.505    12137718.000 2   9457963.579 1
  21663985.735   -11181028.779 3  -8712470.784 2
  21586092.762    -9374474.038 3  -7304747.445 2
  23710055.769    -4717177.324 2  -3675718.098 1
 91  7 30  3 59 15.0020000  0  4 17 21 23 11
  23205162.101    12178008.641 2   9489358.863 1
  21660533.628   -11199147.824 3  -8726589.511 1
  21590630.115    -9350620.895 3  -7286160.585 2
  23701323.113    -4763083.706 2  -3711489.290 1
 91  7 30  3 59 30.0020000  0  4 17 21 23 11
  23212843.382    12218356.871 2   9520799.037 1
  21657101.005   -11217193.350 3  -8740650.929 1
  21595181.865    -9326710.779 3  -7267529.322 2
  23692595.561    -4808918.958 2  -3747205.021 1
 91  7 30  3 59 45.0020000  0  4 17 21 23 11
  23220533.056    12258760.825 2   9552282.628 1
  21653677.970   -11235167.044 3  -8754656.378 2
  21599742.008    -9302745.544 3  -7248855.111 2
  23683892.282    -4854684.258 2  -3782866.264 1
 91  7 30  4  0  0.0020000  0  4 17 21 23 11
  23228226.333    12299221.067 2   9583810.068 1
  21650274.131   -11253068.563 3  -8768605.593 2
  21604312.944    -9278724.884 3  -7230137.710 2
  23675192.904    -4900378.792 2  -3818472.392 1
 91  7 30  4  0 15.0020000  0  4 17 21 23 11
  23235937.593    12339737.973 2   9615381.664 1
  21646879.880   -11270897.405 3  -8782498.184 2
  21608894.970    -9254648.574 3  -7211376.949 2
  23666510.312    -4946001.737 2  -3854022.711 1
 91  7 30  4  0 30.0020000  0  4 17 21 23 11
  23243656.653    12380308.524 2   9646995.075 1
  21643501.518   -11288656.667 3  -8796336.544 2
  21613485.398    -9230519.718 3  -7192575.244 2
  23657843.915    -4991555.664 2  -3889519.210 1
 91  7 30  4  0 45.0020000  0  4 17 21 23 11
  23251391.000    12420934.826 2   9678651.924 1
  21640136.941   -11306343.907 3  -8810118.777 2
  21618087.213    -9206336.217 3  -7173730.945 2
  23649189.811    -5037037.755 2  -3924959.834 1
 91  7 30  4  1  0.0020000  0  4 17 21 23 11
  23259132.536    12461617.537 2   9710352.690 1
  21636785.269   -11323958.519 3  -8823844.440 2
  21622699.820    -9182097.325 3  -7154843.493 2
  23640548.585    -5082446.942 2  -3960343.592 1
 91  7 30  4  1 15.0020000  0  4 17 21 23 11
  23266885.467    12502355.064 2   9742096.202 1
  21633444.076   -11341502.059 3  -8837514.718 2
  21627322.313    -9157804.830 3  -7135914.271 2
  23631917.864    -5127784.427 2  -3995671.477 1
 91  7 30  4  1 30.0020000  0  4 17 21 23 11
  23274646.198    12543148.617 2   9773883.371 1
  21630121.476   -11358973.421 3  -8851128.741 2
  21631955.913    -9133457.836 3  -7116942.578 2
  23623308.128    -5173048.616 2  -4030942.216 1
 91  7 30  4  1 45.0020000  0  4 17 21 23 11
  23282421.012    12583997.835 2   9805713.956 1
  21626806.676   -11376372.829 3  -8864686.703 2
  21636598.491    -9109056.533 3  -7097928.579 2
  23614710.074    -5218239.384 2  -4066155.785 1
 91  7 30  4  2  0.0020000  0  4 17 21 23 11
  23290201.532    12624903.012 2   9837588.086 1
  21623514.353   -11393699.901 3  -8878188.295 2
  21641253.668    -9084600.688 3  -7078872.076 2
  23606121.923    -5263356.029 2  -4101311.597 1
 91  7 30  4  2 15.0020000  0  4 17 21 23 11
  23297999.729    12665862.461 2   9869504.516 1
  21620225.632   -11410956.553 3  -8891635.002 2
  21645918.146    -9060092.483 3  -7059774.765 2
  23597545.455    -5308400.071 2  -4136410.776 1
 91  7 30  4  2 30.0020000  0  4 17 21 23 11
  23305805.429    12706878.022 2   9901464.656 1
  21616957.294   -11428140.826 3  -8905025.324 2
  21650592.806    -9035530.136 3  -7040635.268 2
  23588992.082    -5353368.881 2  -4171451.459 1
 91  7 30  4  2 45.0020000  0  4 17 21 23 11
  23313616.819    12747946.207 2   9933465.845 1
  21613700.647   -11445256.047 3  -8918361.829 2
  21655277.064    -9010917.111 3  -7021456.275 2
  23580446.196    -5398265.461 2  -4206435.741 1
 91  7 30  4  3  0.0020000  0  4 17 21 23 11
  23321442.901    12789070.113 2   9965510.394 1
  21610457.192   -11462298.977 3  -8931641.995 2
  21659969.114    -8986250.212 3  -7002235.315 2
  23571920.700    -5443086.137 2  -4241360.906 1
 91  7 30  4  3 15.0020000  0  4 17 21 23 11
  23329286.373    12830249.482 2   9997598.236 1
  21607227.227   -11479269.902 3  -8944866.084 2
  21664671.660    -8961529.974 3  -6982972.787 2
  23563402.097    -5487830.779 2  -4276226.865 1
 91  7 30  4  3 30.0020000  0  4 17 21 23 11
  23337125.342    12871482.043 2  10029727.483 1
  21604013.455   -11496171.012 3  -8958035.746 2
  21669387.092    -8936758.497 3  -6963670.331 2
  23554903.579    -5532501.177 2  -4311034.923 1
 91  7 30  4  3 45.0020000  0  4 17 21 23 11
  23344980.505    12912770.734 2  10061900.479 1
  21600810.773   -11512999.303 3  -8971148.679 2
  21674111.826    -8911932.932 3  -6944325.736 2
  23546416.151    -5577093.889 2  -4345782.461 1
 91  7 30  4  4  0.0020000  0  4 17 21 23 11
  23352859.052    12954116.458 2  10094117.924 1
  21597617.976   -11529754.076 3  -8984204.326 2
  21678844.648    -8887052.796 3  -6924938.604 2
  23537948.817    -5621607.915 2  -4380468.686 1
 91  7 30  4  4 15.0020000  0  4 17 21 23 11
  23360728.000    12995517.629 2  10126378.513 1
  21594446.774   -11546436.793 3  -8997203.831 2
  21683589.763    -8862119.763 3  -6905510.266 2
  23529491.970    -5666044.272 2  -4415094.405 1
 91  7 30  4  4 30.0020000  0  4 17 21 23 11
  23368619.443    13036973.591 2  10158681.881 1
  21591287.561   -11563047.743 3  -9010147.400 2
  21688344.773    -8837134.248 3  -6886041.027 2
  23521051.012    -5710402.748 2  -4449659.416 1
 91  7 30  4  4 45.0020000  0  4 17 21 23 11
  23376516.277    13078483.878 2  10191027.532 1
  21588138.844   -11579587.761 3  -9023035.699 2
  21693108.177    -8812097.274 3  -6866531.691 2
  23512623.552    -5754683.834 2  -4484164.097 1
 91  7 30  4  5  0.0020000  0  4 17 21 23 11
  23384433.790    13120047.904 2  10223415.044 1
  21585003.615   -11596056.957 3  -9035868.820 2
  21697882.364    -8787009.183 3  -6846982.519 2
  23504213.471    -5798887.283 2  -4518608.337 1
 91  7 30  4  5 15.0020000  0  4 17 21 23 11
  23392346.216    13161667.688 2  10255846.059 1
  21581886.675   -11612453.577 3  -9048645.392 2
  21702666.158    -8761868.193 3  -6827392.136 2
  23495816.584    -5843010.914 2  -4552990.358 1
 91  7 30  4  5 30.0020000  0  4 17 21 23 11
  23400279.922    13203344.974 2  10288321.881 1
  21578776.322   -11628775.656 3  -9061363.870 2
  21707461.941    -8736672.523 3  -6807759.146 2
  23487434.991    -5887052.217 2  -4587308.228 1
 91  7 30  4  5 45.0020000  0  4 17 21 23 11
  23408219.928    13245077.721 2  10320840.879 1
  21575687.258   -11645025.288 3  -9074025.902 2
  21712265.514    -8711424.337 3  -6788085.228 2
  23479068.982    -5931012.911 2  -4621563.266 1
 91  7 30  4  6  0.0020000  0  4 17 21 23 11
  23416172.822    13286866.710 2  10353403.699 1
  21572608.394   -11661201.825 3  -9086630.968 2
  21717082.577    -8686123.180 3  -6768370.037 2
  23470720.954    -5974891.935 2  -4655754.696 1
 91  7 30  4  6 15.0020000  0  4 17 21 23 11
  23424133.210    13328711.890 2  10386010.342 1
  21569540.916   -11677305.187 3  -9099179.024 2
  21721906.236    -8660769.122 3  -6748613.625 2
  23462387.027    -6018688.586 2  -4689881.904 1
 91  7 30  4  6 30.0020000  0  4 17 21 23 11
  23432106.493    13370615.428 2  10418662.394 1
  21566491.430   -11693333.147 3  -9111668.312 2
  21726740.391    -8635360.030 3  -6728814.326 2
  23454063.291    -6062400.367 2  -4723943.019 1
 91  7 30  4  6 45.0020000  0  4 17 21 23 11
  23440094.165    13412572.762 2  10451356.422 1
  21563457.229   -11709290.139 3  -9124102.324 2
  21731585.034    -8609900.437 3  -6708975.678 2
  23445763.540    -6106031.270 2  -4757941.082 1
 91  7 30  4  7  0.0020000  0  4 17 21 23 11
  23448090.526    13454584.461 2  10484092.731 1
  21560435.018   -11725175.428 3  -9136480.439 2
  21736441.072    -8584389.663 3  -6689097.158 2
  23437474.276    -6149580.248 2  -4791875.335 1
 91  7 30  4  7 15.0020000  0  4 17 21 23 11
  23456090.788    13496648.019 2  10516869.558 1
  21557421.505   -11740991.653 3  -9148804.753 2
  21741307.004    -8558830.470 3  -6669180.911 2
  23429204.801    -6193049.549 2  -4825747.474 1
 91  7 30  4  7 30.0020000  0  4 17 21 23 11
  23464101.843    13538766.715 2  10549689.308 1
  21554430.781   -11756735.254 3  -9161072.472 2
  21746178.032    -8533219.655 3  -6649224.422 2
  23420950.316    -6236435.164 2  -4859554.413 1
 91  7 30  4  7 45.0020000  0  4 17 21 23 11
  23472137.476    13580939.812 2  10582551.417 1
  21551446.341   -11772407.220 3  -9173284.375 2
  21751061.650    -8507558.122 3  -6629228.427 2
  23412706.624    -6279737.592 2  -4893296.533 1
 91  7 30  4  8  0.0020000  0  4 17 21 23 11
  23480169.820    13623166.105 2  10615455.053 1
  21548479.594   -11788008.658 3  -9185441.321 2
  21755952.466    -8481847.189 3  -6609193.927 2
  23404489.909    -6322957.439 2  -4926974.288 1
 91  7 30  4  8 15.0020000  0  4 17 21 23 11
  23488216.848    13665444.652 2  10648399.348 1
  21545522.445   -11803540.371 3  -9197543.931 2
  21760854.677    -8456087.695 3  -6589121.604 2
  23396279.189    -6366095.086 2  -4960588.030 1
 91  7 30  4  8 30.0020000  0  4 17 21 23 11
  23496266.573    13707780.734 2  10681388.478 1
  21542579.981   -11818997.227 3  -9209588.211 2
  21765765.570    -8430274.753 3  -6569007.606 2
  23388081.365    -6409145.041 2  -4994133.409 1
 91  7 30  4  8 45.0020000  0  4 17 21 23 11
  23504337.883    13750166.171 2  10714416.030 1
  21539650.412   -11834387.216 3  -9221580.378 2
  21770686.671    -8404416.317 3  -6548858.182 2
  23379907.229    -6452114.777 2  -5027616.272 1
 91  7 30  4  9  0.0020000  0  4 17 21 23 11
  23512412.797    13792604.009 2  10747484.513 1
  21536735.231   -11849707.266 3  -9233518.074 2
  21775618.251    -8378509.704 3  -6528671.213 2
  23371743.581    -6495000.860 2  -5061033.974 1
 91  7 30  4  9 15.0020000  0  4 17 21 23 11
  23520498.800    13835094.761 2  10780594.160 1
  21533833.539   -11864957.002 3  -9245400.950 2
  21780554.036    -8352554.605 3  -6508446.469 2
  23363596.415    -6537802.521 2  -5094385.850 1
 91  7 30  4  9 30.0020000  0  4 17 21 23 11
  23528592.891    13877639.855 2  10813746.132 1
  21530946.837   -11880134.657 3  -9257227.685 2
  21785506.006    -8326549.275 3  -6488182.572 2
  23355473.243    -6580517.655 2  -5127670.333 1
 91  7 30  4  9 45.0020000  0  4 17 21 23 11
  23536701.982    13920241.659 2  10846942.338 1
  21528071.224   -11895237.937 3  -9268996.449 2
  21790464.878    -8300491.511 3  -6467877.808 2
  23347361.160    -6623143.434 2  -5160885.203 1
 91  7 30  4 10  0.0020000  0  4 17 21 23 11
  23544819.160    13962894.562 2  10880178.408 1
  21525211.509   -11910272.321 3  -9280711.555 2
  21795431.237    -8274387.054 3  -6447536.692 2
  23339264.965    -6665685.025 2  -5194034.463 1
 91  7 30  4 10 15.0020000  0  4 17 21 23 11
  23552943.833    14005600.535 2  10913455.736 1
  21522361.077   -11925236.049 3  -9292371.556 2
  21800408.990    -8248234.081 3  -6427157.733 2
  23331187.356    -6708140.030 2  -5227116.239 1
 91  7 30  4 10 30.0020000  0  4 17 21 23 11
  23561083.504    14048356.897 2  10946772.347 1
  21519530.739   -11940131.521 3  -9303978.403 2
  21805397.239    -8222035.160 3  -6406742.999 2
  23323123.235    -6750510.428 2  -5260132.106 1
 91  7 30  4 10 45.0020000  0  4 17 21 23 11
  23569223.464    14091164.388 2  10980128.832 1
  21516706.997   -11954957.869 3  -9315531.374 2
  21810390.584    -8195789.681 3  -6386291.983 2
  23315077.707    -6792795.101 2  -5293081.153 1
 91  7 30  4 11  0.0020000  0  4 17 21 23 11
  23577382.618    14134025.862 2  11013527.361 1
  21513900.635   -11969712.594 3  -9327028.540 2
  21815391.720    -8169495.217 3  -6365802.785 2
  23307048.365    -6834990.895 2  -5325960.973 1
 91  7 30  4 11 15.0020000  0  4 17 21 23 11
  23585546.869    14176940.638 2  11046967.448 1
  21511105.669   -11984395.927 3  -9338470.087 2
  21820405.744    -8143151.966 3  -6345275.578 2
  23299035.216    -6877097.788 2  -5358771.512 1
 91  7 30  4 11 30.0020000  0  4 17 21 23 11
  23593726.100    14219909.031 2  11080449.264 1
  21508326.294   -11999007.551 3  -9349855.748 2
  21825427.873    -8116760.055 3  -6324710.452 2
  23291040.050    -6919115.063 2  -5391512.202 1
 91  7 30  4 11 45.0020000  0  4 17 21 23 11
  23601915.836    14262931.918 2  11113973.601 1
  21505559.806   -12013546.476 3  -9361184.760 2
  21830458.387    -8090318.658 3  -6304106.771 2
  23283058.373    -6961041.299 2  -5424181.964 1
 91  7 30  4 12  0.0020000  0  4 17 21 23 11
  23610107.666    14306010.426 2  11147541.274 1
  21502805.019   -12028011.698 3  -9372456.324 2
  21835501.796    -8063826.541 3  -6283463.555 2
  23275100.681    -7002874.921 2  -5456779.573 1
 91  7 30  4 12 15.0020000  0  4 17 21 23 11
  23618317.479    14349144.510 2  11181152.202 1
  21500066.713   -12042403.234 3  -9383670.485 2
  21840551.497    -8037283.990 3  -6262781.054 2
  23267156.783    -7044615.627 2  -5489304.759 1
 91  7 30  4 12 30.0020000  0  4 17 21 23 11
  23626535.694    14392333.991 2  11214806.300 1
  21497343.703   -12056721.054 3  -9394827.217 2
  21845611.397    -8010691.021 3  -6242059.264 2
  23259231.767    -7086262.953 2  -5521757.215 1
 91  7 30  4 12 45.0020000  0  4 17 21 23 11
  23634765.888    14435575.248 2  11248500.776 1
  21494631.773   -12070968.914 3  -9405929.434 2
  21850680.589    -7984051.499 3  -6221301.187 2
  23251324.445    -7127820.180 2  -5554139.413 1
 91  7 30  4 13  0.0020000  0  4 17 21 23 11
  23643002.391    14478867.373 2  11282234.866 1
  21491934.842   -12085147.699 3  -9416977.824 2
  21855759.972    -7957366.433 3  -6200507.627 2
  23243435.105    -7169287.892 2  -5586451.871 1
 91  7 30  4 13 15.0020000  0  4 17 21 23 11
  23651252.976    14522213.343 2  11316010.893 1
  21489249.603   -12099254.393 3  -9427970.028 2
  21860846.248    -7930633.109 3  -6179676.462 2
  23235560.154    -7210662.567 2  -5618691.839 1
 91  7 30  4 13 30.0020000  0  4 17 21 23 11
  23659504.765    14565614.886 2  11349830.301 1
  21486578.454   -12113287.098 3  -9438904.585 2
  21865942.427    -7903849.595 3  -6158806.207 2
  23227702.897    -7251942.029 2  -5650857.637 1
 91  7 30  4 13 45.0020000  0  4 17 21 23 11
  23667774.842    14609073.409 2  11383694.079 1
  21483927.086   -12127244.257 3  -9449780.270 2
  21871050.586    -7877014.531 3  -6137895.749 2
  23219869.023    -7293124.263 2  -5682947.645 1
 91  7 30  4 14  0.0020000  0  4 17 21 23 11
  23676061.401    14652584.598 2  11417598.812 1
  21481276.921   -12141130.095 3  -9460600.387 2
  21876162.645    -7850132.167 3  -6116948.447 2
  23212049.833    -7334213.007 2  -5714964.833 1
 91  7 30  4 14 15.0020000  0  4 17 21 23 11
  23684351.267    14696148.963 2  11451545.083 1
  21478650.436   -12154944.270 3  -9471364.653 2
  21881290.897    -7823202.278 3  -6095964.127 2
  23204252.832    -7375207.521 2  -5746908.560 1
 91  7 30  4 14 30.0020000  0  4 17 21 23 11
  23692647.423    14739766.569 2  11485532.837 1
  21476035.347   -12168686.275 3  -9482072.691 2
  21886423.940    -7796224.637 3  -6074942.600 2
  23196466.318    -7416106.731 2  -5778778.040 1
 91  7 30  4 14 45.0020000  0  3 21 23 11
  21473435.552   -12182358.672 2  -9492726.485 2
  21891564.486    -7769201.823 2  -6053885.859 2
  23188699.295    -7456912.656 2  -5810574.884 1
 91  7 30  4 15  0.0020000  0  3 21 23 11
  21470846.542   -12195959.241 3  -9503324.337 2
  21896717.614    -7742131.784 3  -6032792.305 2
  23180953.257    -7497622.838 2  -5842297.065 1
 91  7 30  4 15 15.0020000  0  3 21 23 11
  21468271.326   -12209488.086 2  -9513866.255 1
  21901878.245    -7715014.694 2  -6011662.111 2
  23173225.210    -7538237.014 2  -5873944.422 1
 91  7 30  4 15 30.0020000  0  3 21 23 11
  21465711.999   -12222945.031 3  -9524352.176 2
  21907047.864    -7687850.302 3  -5990495.049 2
  23165510.652    -7578754.519 2  -5905516.495 1
 91  7 30  4 15 45.0020000  0  3 21 23 11
  21463166.160   -12236328.758 2  -9534781.049 2
  21912221.687    -7660637.616 2  -5969290.355 2
  23157823.674    -7619173.600 2  -5937011.816 1
 91  7 30  4 16  0.0020000  0  3 21 23 11
  21460632.013   -12249644.001 2  -9545156.540 2
  21917411.993    -7633381.442 2  -5948051.775 2
  23150151.084    -7659498.416 2  -5968433.741 1
 91  7 30  4 16 15.0020000  0  3 21 23 11
  21458108.956   -12262886.465 2  -9555475.330 2
  21922606.199    -7606077.542 2  -5926776.032 2
  23142494.085    -7699724.335 2  -5999778.602 1
 91  7 30  4 16 30.0020000  0  3 21 23 11
  21455604.798   -12276059.779 2  -9565740.239 2
  21927811.790    -7578729.542 2  -5905465.899 2
  23134858.367    -7739854.623 2  -6031048.899 1
 91  7 30  4 16 45.0020000  0  3 21 23 11
  21453112.619   -12289160.601 2  -9575948.645 2
  21933023.385    -7551334.338 2  -5884118.972 2
  23127240.946    -7779885.474 2  -6062241.758 1
 91  7 30  4 17  0.0020000  0  3 21 23 11
  21450630.639   -12302189.110 3  -9586100.715 2
  21938247.265    -7523892.360 2  -5862735.626 2
  23119640.303    -7819816.721 2  -6093356.953 1
 91  7 30  4 17 15.0020000  0  3 21 23 11
  21448166.346   -12315148.910 3  -9596199.242 2
  21943479.547    -7496407.308 2  -5841318.691 2
  23112059.152    -7859651.595 2  -6124397.111 1
 91  7 30  4 17 30.0020000  0  3 21 23 11
  21445712.845   -12328040.678 3  -9606244.756 2
  21948717.518    -7468880.086 2  -5819868.907 1
  23104501.384    -7899390.264 2  -6155362.297 1
 91  7 30  4 17 45.0020000  0  3 21 23 11
  21443275.529   -12340857.087 2  -9616231.553 2
  21953965.086    -7441303.223 2  -5798380.432 2
  23096960.107    -7939024.846 2  -6186246.352 1
 91  7 30  4 18  0.0020000  0  3 21 23 11
  21440849.312   -12353605.972 2  -9626165.746 2
  21959217.453    -7413684.623 2  -5776859.452 2
  23089435.320    -7978562.883 2  -6217055.179 1
 91  7 30  4 18 15.0020000  0  3 21 23 11
  21438432.684   -12366285.077 3  -9636045.551 2
  21964483.004    -7386022.277 3  -5755304.387 1
  23081924.912    -8018001.491 2  -6247786.548 1
 91  7 30  4 18 30.0020000  0  3 21 23 11
  21436033.139   -12378895.683 2  -9645871.976 1
  21969754.253    -7358317.485 2  -5733716.226 1
  23074442.695    -8057341.535 2  -6278441.067 1
 91  7 30  4 18 45.0020000  0  3 21 23 11
  21433649.492   -12391437.887 3  -9655645.114 2
  21975033.301    -7330570.583 3  -5712095.259 1
  23066976.663    -8096582.928 2  -6309018.766 1
 91  7 30  4 19  0.0020000  0  3 21 23 11
  21431276.036   -12403906.259 3  -9665360.699 2
  21980322.235    -7302776.155 2  -5690437.253 1
  23059526.824    -8135719.720 2  -6339514.922 1
 91  7 30  4 19 15.0020000  0  3 21 23 11
  21428917.569   -12416303.045 3  -9675020.521 2
  21985622.573    -7274936.507 2  -5668744.024 2
  23052096.469    -8174753.789 2  -6369931.051 1
 91  7 30  4 19 30.0020000  0  3 21 23 11
  21426571.692   -12428629.300 3  -9684625.393 2
  21990926.497    -7247052.876 3  -5647016.514 2
  23044690.693    -8213685.720 2  -6400267.587 1
 91  7 30  4 19 45.0020000  0  3 21 23 11
  21424238.712   -12440884.004 3  -9694174.488 2
  21996243.020    -7219124.392 2  -5625254.061 2
  23037300.212    -8252514.101 2  -6430523.445 1
 91  7 30  4 20  0.0020000  0  3 21 23 11
  21421925.206   -12453066.841 2  -9703667.584 2
  22001566.436    -7191150.830 2  -5603456.479 2
  23029933.105    -8291238.218 2  -6460698.072 1
 91  7 30  4 20 15.0020000  0  3 21 23 11
  21419615.311   -12465179.546 3  -9713106.040 2
  22006897.643    -7163134.020 2  -5581625.195 1
  23022580.098    -8329859.305 2  -6490792.400 1
 91  7 30  4 20 30.0020000  0  3 21 23 11
  21417324.299   -12477222.350 2  -9722490.041 2
  22012240.245    -7135074.297 2  -5559760.477 1
  23015254.069    -8368377.168 2  -6520806.278 1
 91  7 30  4 20 45.0020000  0  3 21 23 11
  21415045.274   -12489195.494 2  -9731819.742 2
  22017586.146    -7106971.900 2  -5537862.485 2
  23007943.030    -8406791.630 2  -6550739.597 1
 91  7 30  4 21  0.0020000  0  3 21 23 11
  21412782.138   -12501096.018 2  -9741092.856 2
  22022940.440    -7078824.047 2  -5515929.101 2
  23000652.983    -8445099.335 2  -6580589.721 1
 91  7 30  4 21 15.0020000  0  3 21 23 11
  21410529.498   -12512926.727 2  -9750311.583 2
  22028301.923    -7050633.705 2  -5493962.605 2
  22993387.812    -8483302.551 2  -6610358.433 1
 91  7 30  4 21 30.0020000  0  3 21 23 11
  21408292.450   -12524684.858 2  -9759473.753 2
  22033678.405    -7022398.175 2  -5471960.903 2
  22986134.332    -8521398.080 2  -6640043.217 1
 91  7 30  4 21 45.0020000  0  3 21 23 11
  21406068.289   -12536370.854 2  -9768579.700 2
  22039058.176    -6994117.952 2  -5449924.355 1
  22978901.836    -8559386.079 2  -6669644.229 1
 91  7 30  4 22  0.0020000  0  3 21 23 11
  21403858.219   -12547985.995 2  -9777630.447 2
  22044446.646    -6965794.399 2  -5427854.043 2
  22971699.320    -8597267.335 2  -6699162.075 1
 91  7 30  4 22 15.0020000  0  3 21 23 11
  21401660.739   -12559530.345 3  -9786626.046 2
  22049848.309    -6937427.435 2  -5405749.919 2
  22964509.996    -8635041.454 2  -6728596.401 1
 91  7 30  4 22 30.0020000  0  3 21 23 11
  21399477.647   -12571003.685 3  -9795566.272 2
  22055255.364    -6909017.275 2  -5383612.119 1
  22957340.766    -8672707.809 2  -6757946.789 1
 91  7 30  4 22 45.0020000  0  3 21 23 11
  21397311.647   -12582407.787 3  -9804452.585 2
  22060667.819    -6880565.809 3  -5361442.136 1
  22950192.215    -8710267.762 2  -6787214.255 1
 91  7 30  4 23  0.0020000  0  3 21 23 11
  21395150.150   -12593737.147 2  -9813280.635 2
  22066091.966    -6852067.636 2  -5339235.783 2
  22943064.350    -8747715.443 2  -6816394.236 1
 91  7 30  4 23 15.0020000  0  3 21 23 11
  21393010.823   -12604993.572 2  -9822051.867 2
  22071519.708    -6823524.381 2  -5316994.278 1
  22935961.361    -8785051.957 2  -6845487.592 1
 91  7 30  4 23 30.0020000  0  3 21 23 11
  21390881.399   -12616184.523 3  -9830772.061 2
  22076963.339    -6794943.936 3  -5294723.810 2
  22928875.770    -8822284.584 2  -6874499.997 1
 91  7 30  4 23 45.0020000  0  3 21 23 11
  21388765.770   -12627304.812 3  -9839437.213 2
  22082406.969    -6766321.182 2  -5272420.366 1
  22921810.561    -8859407.696 2  -6903427.067 1
 91  7 30  4 24  0.0020000  0  3 21 23 11
  21386659.424   -12638354.690 2  -9848047.486 2
  22087863.189    -6737656.415 2  -5250084.173 2
  22914770.532    -8896421.261 2  -6932268.783 1
 91  7 30  4 24 15.0020000  0  3 21 23 11
  21384573.765   -12649333.902 3  -9856602.686 2
  22093325.108    -6708949.483 3  -5227715.146 2
  22907746.096    -8933324.562 2  -6961024.563 1
 91  7 30  4 24 30.0020000  0  3 21 23 11
  21382497.704   -12660238.530 2  -9865099.792 2
  22098797.819    -6680196.588 2  -5205310.279 2
  22900746.246    -8970113.132 2  -6989690.939 1
 91  7 30  4 24 45.0020000  0  3 21 23 11
  21380435.734   -12671073.539 3  -9873542.634 1
  22104276.829    -6651402.666 3  -5182873.467 1
  22893770.975    -9006791.466 2  -7018271.457 1
 91  7 30  4 25  0.0020000  0  3 21 23 11
  21378384.853   -12681836.988 3  -9881929.729 2
  22109763.632    -6622565.990 3  -5160403.337 2
  22886808.295    -9043357.298 2  -7046764.279 1
 91  7 30  4 25 15.0020000  0  3 21 23 11
  21376349.564   -12692532.984 3  -9890264.247 2
  22115259.421    -6593690.609 2  -5137903.048 1
  22879871.092    -9079814.288 2  -7075172.300 1
 91  7 30  4 25 30.0020000  0  3 21 23 11
  21374328.061   -12703158.722 3  -9898544.033 1
  22120761.212    -6564773.922 3  -5115370.560 1
  22872958.179    -9116159.194 2  -7103492.988 1
 91  7 30  4 25 45.0020000  0  3 21 23 11
  21372320.047   -12713712.468 3  -9906767.709 2
  22126270.805    -6535814.273 2  -5092804.596 2
  22866065.055    -9152389.804 2  -7131724.603 1
 91  7 30  4 26  0.0020000  0  3 21 23 11
  21370324.030   -12724196.800 3  -9914937.311 2
  22131789.680    -6506814.345 3  -5070207.257 1
  22859188.413    -9188508.377 2  -7159868.901 2
 91  7 30  4 26 15.0020000  0  3 21 23 11
  21368344.504   -12734610.335 3  -9923051.737 2
  22137319.654    -6477772.980 3  -5047577.603 2
  22852334.561    -9224513.220 2  -7187924.608 1
 91  7 30  4 26 30.0020000  0  3 21 23 11
  21366376.669   -12744952.760 3  -9931110.755 2
  22142851.120    -6448689.957 3  -5024915.505 2
  22845504.389    -9260403.524 2  -7215891.041 1
 91  7 30  4 26 45.0020000  0  3 21 23 11
  21364422.916   -12755224.151 3  -9939114.424 2
  22148393.685    -6419565.257 3  -5002220.944 1
  22838696.701    -9296178.847 2  -7243767.865 1
 91  7 30  4 27  0.0020000  0  3 21 23 11
  21362482.365   -12765420.681 2  -9947059.752 2
  22153943.447    -6390395.143 2  -4979490.979 1
  22831916.297    -9331834.975 2  -7271551.853 1
 91  7 30  4 27 15.0020000  0  3 21 23 11
  21360556.193   -12775548.190 3  -9954951.311 2
  22159500.696    -6361185.633 2  -4956730.314 1
  22825146.982    -9367377.405 2  -7299247.236 1
 91  7 30  4 27 30.0020000  0  3 21 23 11
  21358641.424   -12785602.824 3  -9962786.063 2
  22165068.746    -6331933.059 3  -4933936.090 2
  22818408.546    -9402801.899 2  -7326850.708 1
 91  7 30  4 27 45.0020000  0  3 21 23 11
  21356741.933   -12795585.767 3  -9970564.971 2
  22170644.283    -6302638.659 3  -4911109.287 2
  22811688.397    -9438109.140 2  -7354362.810 1
 91  7 30  4 28  0.0020000  0  3 21 23 11
  21354853.845   -12805499.192 3  -9978289.692 2
  22176226.415    -6273304.669 3  -4888251.623 1
  22804986.239    -9473300.962 2  -7381784.979 1
 91  7 30  4 28 15.0020000  0  3 21 23 11
  21352978.636   -12815341.521 2  -9985959.032 2
  22181818.442    -6243929.618 2  -4865361.993 2
  22798316.757    -9508375.235 2  -7409115.576 1
 91  7 30  4 28 30.0020000  0  3 21 23 11
  21351123.224   -12825112.905 3  -9993573.075 2
  22187414.073    -6214513.835 3  -4842440.595 2
  22791667.954    -9543331.783 2  -7436354.418 1
 91  7 30  4 28 45.0020000  0  3 21 23 11
  21349278.300   -12834813.796 3 -10001132.210 2
  22193018.097    -6185057.742 3  -4819487.799 1
  22785037.744    -9578170.663 2  -7463501.556 1
 91  7 30  4 29  0.0020000  0  3 21 23 11
  21347446.271   -12844441.638 3 -10008634.407 2
  22198634.406    -6155558.694 3  -4796501.520 1
  22778428.221    -9612888.824 2  -7490554.646 1
 91  7 30  4 29 15.0020000  0  3 21 23 11
  21345625.935   -12853997.387 3 -10016080.430 2
  22204253.114    -6126017.841 2  -4773482.668 1
  22771849.873    -9647486.924 2  -7517514.179 1
 91  7 30  4 29 30.0020000  0  3 21 23 11
  21343822.978   -12863480.816 3 -10023470.081 2
  22209882.319    -6096435.283 3  -4750431.333 2
  22765286.217    -9681964.351 2  -7544379.694 1
 91  7 30  4 29 45.0020000  0  3 21 23 11
  21342030.823   -12872894.135 3 -10030805.134 2
  22215517.518    -6066813.137 2  -4727349.127 2
  22758746.844    -9716322.785 2  -7571152.492 1
 91  7 30  4 30  0.0020000  0  3 21 23 11
  21340250.953   -12882234.384 3 -10038083.241 2
  22221164.111    -6037148.520 2  -4704233.838 1
  22752233.559    -9750558.748 2  -7597829.842 1
 91  7 30  4 30 15.0020000  0  3 21 23 11
  21338488.473   -12891503.168 2 -10045305.636 2
  22226815.199    -6007443.119 2  -4681086.779 2
  22745738.850    -9784673.546 2  -7624412.761 1
 91  7 30  4 30 30.0020000  0  3 21 23 11
  21336738.879   -12900699.465 3 -10052471.579 2
  22232478.274    -5977696.010 2  -4657907.220 1
  22739272.332    -9818665.673 2  -7650900.133 1
 91  7 30  4 30 45.0020000  0  3 21 23 11
  21334999.188   -12909825.914 3 -10059583.079 2
  22238144.657    -5947909.899 2  -4634697.258 2
  22732827.687    -9852537.406 2  -7677293.666 1
 91  7 30  4 31  0.0020000  0  3 21 23 11
  21333279.574   -12918882.204 3 -10066639.921 2
  22243820.026    -5918084.511 2  -4611456.688 2
  22726405.832    -9886288.016 2  -7703592.825 1
 91  7 30  4 31 15.0020000  0  3 21 23 11
  21331572.262   -12927869.832 2 -10073643.247 2
  22249501.695    -5888221.403 2  -4588186.740 1
  22720007.666    -9919918.452 2  -7729798.346 1
 91  7 30  4 31 30.0020000  0  3 21 23 11
  21329870.639   -12936784.607 3 -10080589.798 2
  22255195.352    -5858316.590 3  -4564884.285 2
  22713627.483    -9953424.243 2  -7755906.727 1
 91  7 30  4 31 45.0020000  0  3 21 23 11
  21328189.398   -12945627.325 3 -10087480.216 2
  22260895.003    -5828370.786 3  -4541549.888 1
  22707275.481    -9986805.892 2  -7781918.365 1
 91  7 30  4 32  0.0020000  0  3 21 23 11
  21326519.255   -12954398.408 3 -10094314.817 2
  22266597.952    -5798384.692 3  -4518184.114 2
  22700949.559   -10020063.334 2  -7807833.264 1
 91  7 30  4 32 15.0020000  0  3 21 23 11
  21324868.901   -12963098.660 3 -10101094.221 2
  22272309.600    -5768359.225 2  -4494787.648 1
  22694641.026   -10053196.966 2  -7833651.646 1
 91  7 30  4 32 30.0020000  0  3 21 23 11
  21323222.743   -12971729.011 3 -10107819.144 2
  22278032.635    -5738295.228 2  -4471361.150 1
  22688362.473   -10086207.267 2  -7859373.946 1
 91  7 30  4 32 45.0020000  0  3 21 23 11
  21321594.271   -12980290.012 3 -10114490.043 2
  22283763.470    -5708193.523 2  -4447905.266 2
  22682100.105   -10119094.371 2  -7885000.234 1
 91  7 30  4 33  0.0020000  0  3 21 23 11
  21319975.990   -12988778.946 3 -10121104.787 2
  22289499.696    -5678051.399 2  -4424417.902 1
  22675868.623   -10151855.270 2  -7910528.194 1
 91  7 30  4 33 15.0020000  0  3 21 23 11
  21318373.301   -12997198.396 3 -10127665.366 2
  22295239.527    -5647871.745 2  -4400901.284 1
  22669654.827   -10184492.184 2  -7935959.543 1
 91  7 30  4 33 30.0020000  0  3 21 23 11
  21316785.297   -13005545.597 3 -10134169.671 2
  22300988.946    -5617651.430 3  -4377352.971 2
  22663471.003   -10217001.611 2  -7961291.530 1
 91  7 30  4 33 45.0020000  0  3 21 23 11
  21315210.188   -13013822.035 3 -10140618.823 2
  22306747.963    -5587392.290 2  -4353774.445 2
  22657309.968   -10249384.943 2  -7986525.278 1
 91  7 30  4 34  0.0020000  0  3 21 23 11
  21313650.365   -13022027.962 3 -10147013.042 2
  22312517.162    -5557094.602 2  -4330165.852 2
  22651169.018   -10281641.926 2  -8011660.561 1
 91  7 30  4 34 15.0020000  0  3 21 23 11
  21312103.438   -13030161.095 3 -10153350.526 2
  22318289.074    -5526756.164 2  -4306525.511 1
  22645058.955   -10313769.878 2  -8036695.323 1
 91  7 30  4 34 30.0020000  0  3 21 23 11
  21310568.796   -13038223.775 3 -10159633.126 2
  22324074.162    -5496379.501 2  -4282855.377 2
  22638966.866   -10345770.871 2  -8061631.133 1
 91  7 30  4 34 45.0020000  0  3 21 23 11
  21309047.355   -13046218.070 3 -10165862.411 2
  22329855.367    -5465966.515 2  -4259156.921 1
  22632903.264   -10377646.429 2  -8086469.214 1
 91  7 30  4 35  0.0020000  0  3 21 23 11
  21307539.098   -13054140.774 3 -10172035.946 2
  22335653.350    -5435514.126 2  -4235427.796 2
  22626858.256   -10409392.946 2  -8111206.745 1
 91  7 30  4 35 15.0020000  0  3 21 23 11
  21306043.135   -13061992.558 3 -10178154.191 2
  22341456.734    -5405023.330 2  -4211668.722 2
  22620843.811   -10441010.765 2  -8135843.959 1
 91  7 30  4 35 30.0020000  0  3 21 23 11
  21304560.957   -13069779.860 3 -10184222.193 2
  22347262.814    -5374500.450 2  -4187884.676 1
  22614851.267   -10472505.915 2  -8160385.623 1
 91  7 30  4 35 45.0020000  0  3 21 23 11
  21303094.973   -13077493.827 3 -10190233.069 2
  22353080.280    -5343936.730 2  -4164068.770 1
  22608881.801   -10503869.087 2  -8184824.445 1
 91  7 30  4 36  0.0020000  0  3 21 23 11
  21301641.282   -13085137.804 3 -10196189.383 2
  22358901.053    -5313335.597 2  -4140223.734 2
  22602940.211   -10535103.206 2  -8209162.708 1
 91  7 30  4 36 15.0020000  0  3 21 23 11
  21300199.275   -13092712.669 3 -10202091.876 2
  22364729.321    -5282698.246 2  -4116350.468 1
  22597016.010   -10566208.944 2  -8233400.912 1
 91  7 30  4 36 30.0020000  0  3 21 23 11
  21298768.671   -13100219.722 3 -10207941.506 2
  22370570.180    -5252025.834 2  -4092449.883 1
  22591126.885   -10597187.118 2  -8257539.740 1
 91  7 30  4 36 45.0020000  0  3 21 23 11
  21297353.947   -13107656.911 3 -10213736.694 2
  22376411.631    -5221316.260 2  -4068520.322 2
  22585253.054   -10628035.207 2  -8281577.172 1
 91  7 30  4 37  0.0020000  0  3 21 23 11
  21295953.916   -13115024.688 3 -10219477.805 2
  22382264.478    -5190570.249 2  -4044562.406 1
  22579406.804   -10658753.209 2  -8305513.248 1
 91  7 30  4 37 15.0020000  0  3 21 23 11
  21294564.076   -13122319.088 3 -10225161.729 2
  22388122.429    -5159783.693 2  -4020572.878 2
  22573585.428   -10689336.694 2  -8329344.523 1
 91  7 30  4 37 30.0020000  0  3 21 23 11
  21293193.126   -13129542.986 3 -10230790.729 2
  22393986.365    -5128959.790 2  -3996554.255 1
  22567794.338   -10719788.353 2  -8353073.071 1
 91  7 30  4 37 45.0020000  0  3 21 23 11
  21291828.772   -13136697.624 3 -10236365.753 2
  22399855.406    -5098099.911 3  -3972507.606 1
  22562022.434   -10750108.928 3  -8376699.461 1
 91  7 30  4 38  0.0020000  0  3 21 23 11
  21290479.704   -13143783.588 3 -10241887.266 2
  22405737.028    -5067204.341 2  -3948433.126 1
  22556280.815   -10780298.620 2  -8400223.889 1
 91  7 30  4 38 15.0020000  0  3 21 23 11
  21289145.330   -13150802.633 3 -10247356.636 2
  22411623.457    -5036275.075 2  -3924332.378 2
  22550558.976   -10810358.841 2  -8423647.415 1
 91  7 30  4 38 30.0020000  0  3 21 23 11
  21287820.849   -13157751.401 3 -10252771.240 2
  22417518.272    -5005308.826 2  -3900202.845 1
  22544859.622   -10840285.900 2  -8446967.183 1
 91  7 30  4 38 45.0020000  0  3 21 23 11
  21286509.858   -13164634.844 3 -10258134.934 2
  22423414.892    -4974310.648 2  -3876048.414 1
  22539194.740   -10870084.284 2  -8470186.667 2
 91  7 30  4 39  0.0020000  0  3 21 23 11
  21285216.247   -13171447.368 3 -10263443.385 2
  22429319.304    -4943274.970 2  -3851864.778 1
  22533551.750   -10899747.997 2  -8493301.243 1
 91  7 30  4 39 15.0020000  0  3 21 23 11
  21283937.338   -13178191.917 3 -10268698.865 2
  22435234.806    -4912204.702 2  -3827654.175 1
  22527928.539   -10929279.524 2  -8516312.790 1
 91  7 30  4 39 30.0020000  0  3 21 23 11
  21282662.923   -13184864.519 3 -10273898.275 2
  22441155.412    -4881096.290 2  -3803413.818 1
  22522336.512   -10958674.555 2  -8539217.991 1
 91  7 30  4 39 45.0020000  0  3 21 23 11
  21281408.287   -13191467.402 2 -10279043.349 2
  22447078.112    -4849952.057 2  -3779145.600 1
  22516766.664   -10987935.054 2  -8562018.360 1
 91  7 30  4 40  0.0020000  0  3 21 23 11
  21280165.648   -13198000.507 3 -10284134.069 2
  22453014.004    -4818771.769 2  -3754849.266 1
  22511225.906   -11017060.480 2  -8584713.457 1
 91  7 30  4 40 15.0020000  0  3 21 23 11
  21278931.700   -13204460.890 2 -10289168.120 2
  22458953.491    -4787552.746 2  -3730522.773 1
  22505705.521   -11046047.585 2  -8607300.798 2
 91  7 30  4 40 30.0020000  0  3 21 23 11
  21277718.744   -13210853.163 2 -10294149.099 2
  22464902.575    -4756299.665 2  -3706169.705 1
  22500221.118   -11074900.646 2  -8629783.687 1
 91  7 30  4 40 45.0020000  0  3 21 23 11
  21276516.275   -13217176.339 3 -10299076.236 2
  22470855.552    -4725011.419 2  -3681789.252 1
  22494752.604   -11103618.148 2  -8652160.953 1
 91  7 30  4 41  0.0020000  0  3 21 23 11
  21275325.499   -13223431.223 3 -10303950.143 2
  22476815.124    -4693688.938 2  -3657382.136 1
  22489314.374   -11132200.502 2  -8674432.889 1
 91  7 30  4 41 15.0020000  0  3 21 23 11
  21274146.710   -13229615.488 3 -10308769.039 2
  22482781.292    -4662329.892 2  -3632946.486 1
  22483906.116   -11160645.073 2  -8696597.446 1
 91  7 30  4 41 30.0020000  0  3 21 23 11
  21272984.116   -13235729.238 3 -10313532.989 2
  22488759.152    -4630934.547 3  -3608482.604 1
  22478514.347   -11188951.671 3  -8718654.532 1
 91  7 30  4 41 45.0020000  0  3 21 23 11
  21271832.620   -13241775.824 3 -10318244.608 2
  22494739.115    -4599506.443 2  -3583993.138 1
  22473149.566   -11217123.215 2  -8740606.366 1
 91  7 30  4 42  0.0020000  0  3 21 23 11
  21270697.003   -13247751.524 3 -10322900.964 2
  22500727.768    -4568041.836 2  -3559475.266 2
  22467819.851   -11245155.613 2  -8762449.769 1
 91  7 30  4 42 15.0020000  0  3 21 23 11
  21269571.281   -13253658.461 3 -10327503.772 2
  22506714.929    -4536542.898 2  -3534930.639 2
  22462507.228   -11273050.542 2  -8784186.046 1
 91  7 30  4 42 30.0020000  0  3 21 23 11
  21268460.854   -13259494.532 3 -10332051.343 2
  22512719.767    -4505007.539 2  -3510357.627 1
  22457229.985   -11300805.424 2  -8805813.213 1
 91  7 30  4 42 45.0020000  0  3 21 23 11
  21267362.109   -13265262.497 3 -10336545.853 2
  22518727.013    -4473438.579 2  -3485758.433 1
  22451979.119   -11328422.855 2  -8827333.279 2
 91  7 30  4 43  0.0020000  0  3 21 23 11
  21266276.261   -13270960.055 3 -10340985.476 2
  22524742.042    -4441833.858 2  -3461131.368 1
  22446741.741   -11355900.141 2  -8848744.125 1
 91  7 30  4 43 15.0020000  0  3 21 23 11
  21265207.801   -13276588.700 3 -10345371.432 2
  22530764.278    -4410195.025 2  -3436477.718 1
  22441542.440   -11383238.445 2  -8870046.693 1
 91  7 30  4 43 30.0020000  0  3 21 23 11
  21264148.634   -13282147.694 3 -10349703.104 2
  22536791.304    -4378521.322 2  -3411796.894 1
  22436365.624   -11410436.504 2  -8891239.959 1
 91  7 30  4 43 45.0020000  0  3 21 23 11
  21263109.256   -13287638.479 3 -10353981.618 2
  22542828.521    -4346814.151 2  -3387090.016 1
  22431219.389   -11437495.371 2  -8912324.764 1
 91  7 30  4 44  0.0020000  0  3 21 23 11
  21262073.769   -13293058.087 3 -10358204.665 2
  22548864.848    -4315070.789 2  -3362354.945 1
  22426096.537   -11464411.831 2  -8933298.616 2
 91  7 30  4 44 15.0020000  0  3 21 23 11
  21261055.374   -13298405.335 3 -10362371.345 2
  22554913.756    -4283289.957 2  -3337590.649 1
  22421001.265   -11491184.190 2  -8954160.173 1
 91  7 30  4 44 30.0020000  0  3 21 23 11
  21260049.578   -13303683.257 3 -10366483.993 2
  22560965.666    -4251474.673 2  -3312799.502 1
  22415935.371   -11517815.265 2  -8974911.654 1
 91  7 30  4 44 45.0020000  0  3 21 23 11
  21259060.561   -13308893.691 3 -10370544.052 2
  22567027.174    -4219627.061 2  -3287983.176 1
  22410892.564   -11544306.489 3  -8995554.139 1
 91  7 30  4 45  0.0020000  0  3 21 23 11
  21258082.040   -13314035.853 3 -10374550.923 2
  22573096.770    -4187746.467 2  -3263141.173 1
  22405877.336   -11570656.907 2  -9016086.935 1
 91  7 30  4 45 15.0020000  0  3 21 23 11
  21257119.399   -13319107.329 3 -10378502.702 2
  22579167.264    -4155830.243 2  -3238271.370 2
  22400891.486   -11596863.456 2  -9036507.583 1
 91  7 30  4 45 30.0020000  0  3 21 23 11
  21256163.362   -13324110.514 3 -10382401.275 2
  22585249.154    -4123880.902 2  -3213375.804 1
  22395928.417   -11622928.206 2  -9056817.770 1
 91  7 30  4 45 45.0020000  0  3 21 23 11
  21255228.912   -13329044.686 3 -10386246.082 2
  22591332.849    -4091897.891 2  -3188453.986 1
  22391000.136   -11648850.108 2  -9077016.625 1
 91  7 30  4 46  0.0020000  0  3 21 23 11
  21254301.651   -13333911.412 3 -10390038.315 2
  22597425.532    -4059882.837 2  -3163507.197 1
  22386091.032   -11674630.342 2  -9097105.110 1
 91  7 30  4 46 15.0020000  0  3 21 23 11
  21253388.184   -13338705.465 3 -10393773.924 2
  22603524.802    -4027830.767 2  -3138531.541 1
  22381215.807   -11700263.414 2  -9117078.902 1
 91  7 30  4 46 30.0020000  0  3 21 23 11
  21252491.505   -13343430.872 3 -10397456.045 2
  22609630.380    -3995745.438 2  -3113530.012 1
  22376363.067   -11725752.965 2  -9136940.883 1
 91  7 30  4 46 45.0020000  0  3 21 23 11
  21251605.322   -13348089.302 3 -10401085.984 2
  22615740.452    -3963628.738 2  -3088504.007 1
  22371540.604   -11751100.285 2  -9156692.021 1
 91  7 30  4 47  0.0020000  0  3 21 23 11
  21250724.827   -13352681.193 3 -10404664.062 2
  22621860.714    -3931481.118 2  -3063453.877 1
  22366745.720   -11776305.428 2  -9176332.385 1
 91  7 30  4 47 15.0020000  0  3 21 23 11
  21249868.318   -13357204.910 3 -10408189.021 2
  22627986.072    -3899301.008 2  -3038378.475 1
  22361976.925   -11801366.447 2  -9195860.432 1
 91  7 30  4 47 30.0020000  0  3 21 23 11
  21249020.508   -13361656.971 3 -10411658.146 2
  22634112.634    -3867085.050 2  -3013275.163 1
  22357233.607   -11826279.539 2  -9215273.219 1
 91  7 30  4 47 45.0020000  0  3 21 23 11
  21248187.383   -13366034.962 3 -10415069.545 2
  22640252.982    -3834830.774 2  -2988141.950 1
  22352522.973   -11851041.895 2  -9234568.524 1
 91  7 30  4 48  0.0020000  0  3 21 23 11
  21247365.652   -13370340.939 3 -10418424.839 2
  22646398.425    -3802540.354 2  -2962980.570 1
  22347840.809   -11875655.217 2  -9253747.729 1
 91  7 30  4 48 15.0020000  0  3 21 23 11
  21246562.209   -13374578.896 3 -10421727.138 2
  22652543.572    -3770217.831 2  -2937794.216 1
  22343178.137   -11900123.110 2  -9272813.606 1
 91  7 30  4 48 30.0020000  0  3 21 23 11
  21245769.262   -13378746.729 3 -10424974.782 2
  22658702.504    -3737861.188 2  -2912581.241 1
  22338551.744   -11924443.118 2  -9291764.250 1
 91  7 30  4 48 45.0020000  0  3 21 23 11
  21244990.101   -13382846.261 3 -10428169.207 2
  22664867.142    -3705472.357 2  -2887343.197 1
  22333957.424   -11948616.878 2  -9310600.913 2
 91  7 30  4 49  0.0020000  0  3 21 23 11
  21244219.334   -13386873.533 3 -10431307.325 2
  22671038.665    -3673047.412 2  -2862077.006 1
  22329384.385   -11972640.012 2  -9329320.212 1
 91  7 30  4 49 15.0020000  0  3 21 23 11
  21243467.456   -13390835.315 2 -10434394.422 2
  22677213.494    -3640593.206 2  -2836788.033 1
  22324838.333   -11996518.952 2  -9347927.141 2
 91  7 30  4 49 30.0020000  0  3 21 23 11
  21242725.168   -13394725.556 3 -10437425.758 2
  22683395.513    -3608103.777 2  -2811471.598 1
  22320324.363   -12020247.353 2  -9366416.826 1
 91  7 30  4 49 45.0020000  0  3 21 23 11
  21242003.566   -13398548.474 3 -10440404.658 2
  22689586.527    -3575583.215 2  -2786130.894 1
  22315839.465   -12043828.877 2  -9384792.018 1
 91  7 30  4 50  0.0020000  0  3 21 23 11
  21241287.662   -13402295.680 3 -10443324.548 2
  22695777.542    -3543023.203 2  -2760759.481 1
  22311379.757   -12067254.854 2  -9403045.990 1
 91  7 30  4 50 15.0020000  0  3 21 23 11
  21240586.748   -13405975.126 3 -10446191.624 2
  22701986.844    -3510431.846 2  -2735363.593 1
  22306947.619   -12090532.999 2  -9421184.796 1
 91  7 30  4 50 30.0020000  0  3 21 23 11
  21239897.822   -13409579.697 3 -10449000.382 2
  22708194.043    -3477802.181 2  -2709937.889 1
  22302549.964   -12113655.859 2  -9439202.606 1
 91  7 30  4 50 45.0020000  0  3 21 23 11
  21239225.387   -13413117.763 2 -10451757.300 2
  22714410.544    -3445142.532 2  -2684488.806 1
  22298175.395   -12136631.451 2  -9457105.622 1
 91  7 30  4 51  0.0020000  0  3 21 23 11
  21238567.645   -13416585.299 3 -10454459.253 2
  22720629.435    -3412448.953 2  -2659013.321 1
  22293836.198   -12159455.377 2  -9474890.494 1
 91  7 30  4 51 15.0020000  0  3 21 23 11
  21237925.494   -13419976.681 3 -10457101.884 2
  22726857.924    -3379715.787 2  -2633506.949 1
  22289519.790   -12182121.699 2  -9492552.540 1
 91  7 30  4 51 30.0020000  0  3 21 23 11
  21237290.228   -13423301.387 3 -10459692.555 2
  22733090.609    -3346952.572 2  -2607977.194 1
  22285236.948   -12204639.496 2  -9510098.872 1
 91  7 30  4 51 45.0020000  0  3 21 23 11
  21236670.562   -13426553.411 3 -10462226.576 2
  22739336.182    -3314153.331 2  -2582419.378 1
  22280981.399   -12227002.360 2  -9527524.461 1
 91  7 30  4 52  0.0020000  0  3 21 23 11
  21236066.173   -13429732.883 2 -10464704.070 2
  22745576.668    -3281318.432 2  -2556833.667 1
  22276754.022   -12249210.379 2  -9544829.396 1
 91  7 30  4 52 15.0020000  0  3 21 23 11
  21235472.290   -13432842.122 3 -10467126.832 2
  22751835.729    -3248450.217 2  -2531222.085 1
  22272557.533   -12271265.535 2  -9562015.233 1
 91  7 30  4 52 30.0020000  0  3 21 23 11
  21234895.491   -13435881.503 3 -10469495.183 2
  22758096.597    -3215549.039 2  -2505584.826 1
  22268389.217   -12293167.793 2  -9579081.891 1
 91  7 30  4 52 45.0020000  0  3 21 23 11
  21234330.976   -13438847.852 3 -10471806.604 2
  22764366.155    -3182611.690 2  -2479919.348 1
  22264249.083   -12314913.447 2  -9596026.546 1
 91  7 30  4 53  0.0020000  0  3 21 23 11
  21233780.256   -13441743.769 3 -10474063.139 2
  22770638.714    -3149640.839 2  -2454227.805 1
  22260141.023   -12336504.940 2  -9612851.053 2
 91  7 30  4 53 15.0020000  0  3 21 23 11
  21233241.533   -13444566.741 2 -10476262.843 2
  22776918.166    -3116634.053 2  -2428508.232 1
  22256058.151   -12357939.471 2  -9629553.276 1
 91  7 30  4 53 30.0020000  0  3 21 23 11
  21232716.892   -13447323.238 3 -10478410.741 2
  22783207.513    -3083597.958 2  -2402765.806 1
  22252013.348   -12379223.099 2  -9646137.914 1
 91  7 30  4 53 45.0020000  0  3 21 23 11
  21232207.250   -13450009.427 2 -10480503.871 2
  22789501.954    -3050528.786 2  -2376997.640 1
  22247992.233   -12400351.859 2  -9662601.854 1
 91  7 30  4 54  0.0020000  0  3 21 23 11
  21231709.892   -13452625.438 2 -10482542.310 2
  22795793.997    -3017426.855 2  -2351203.930 1
  22244001.098   -12421325.435 2  -9678944.898 1
 91  7 30  4 54 15.0020000  0  3 21 23 11
  21231224.227   -13455172.707 2 -10484527.174 2
  22802105.235    -2984293.607 2  -2325385.783 1
  22240037.839   -12442145.067 2  -9695167.971 2
 91  7 30  4 54 30.0020000  0  3 21 23 11
  21230751.753   -13457650.430 2 -10486457.847 2
  22808412.267    -2951128.252 2  -2299542.661 1
  22236104.264   -12462809.538 2  -9711270.123 1
 91  7 30  4 54 45.0020000  0  3 21 23 11
  21230291.879   -13460061.007 2 -10488336.197 2
  22814734.585    -2917933.085 2  -2273676.319 1
  22232198.268   -12483320.925 2  -9727253.013 1
 91  7 30  4 55  0.0020000  0  3 21 23 11
  21229848.478   -13462399.173 3 -10490158.136 2
  22821056.014    -2884702.836 2  -2247782.634 1
  22228330.349   -12503673.565 2  -9743112.190 1
 91  7 30  4 55 15.0020000  0  3 21 23 11
  21229417.379   -13464671.701 2 -10491928.907 2
  22827384.632    -2851444.300 2  -2221866.870 1
  22224485.507   -12523873.953 2  -9758852.733 1
 91  7 30  4 55 30.0020000  0  3 21 23 11
  21228996.767   -13466873.727 2 -10493644.746 2
  22833715.946    -2818152.809 2  -2195925.451 1
  22220672.146   -12543916.985 2  -9774470.676 2
 91  7 30  4 55 45.0020000  0  3 21 23 11
  21228595.945   -13469005.662 3 -10495306.000 2
  22840057.155    -2784828.752 2  -2169958.642 1
  22216887.273   -12563802.699 2  -9789966.014 1
 91  7 30  4 56  0.0020000  0  3 21 23 11
  21228197.827   -13471067.902 3 -10496912.912 2
  22846409.156    -2751472.774 2  -2143966.957 1
  22213135.964   -12583531.333 2  -9805338.952 1
 91  7 30  4 56 15.0020000  0  3 21 23 11
  21227821.582   -13473059.845 3 -10498465.066 2
  22852761.463    -2718084.110 2  -2117949.823 1
  22209409.549   -12603101.885 2  -9820588.725 1
 91  7 30  4 56 30.0020000  0  3 21 23 11
  21227453.741   -13474987.078 3 -10499966.808 2
  22859122.460    -2684668.414 2  -2091911.612 1
  22205717.598   -12622519.713 2  -9835719.504 1
 91  7 30  4 56 45.0020000  0  3 21 23 11
  21227103.585   -13476844.201 3 -10501413.895 2
  22865481.956    -2651220.418 2  -2065848.271 1
  22202049.038   -12641779.029 2  -9850726.737 1
 91  7 30  4 57  0.0020000  0  3 21 23 11
  21226762.415   -13478637.808 2 -10502811.491 2
  22871858.240    -2617746.699 2  -2039764.837 1
  22198413.757   -12660886.140 2  -9865615.385 1
 91  7 30  4 57 15.0020000  0  3 21 23 11
  21226432.650   -13480363.159 3 -10504155.911 2
  22878234.226    -2584242.823 2  -2013657.902 1
  22194808.454   -12679836.101 2  -9880381.587 1
 91  7 30  4 57 30.0020000  0  3 21 23 11
  21226117.263   -13482017.755 3 -10505445.189 2
  22884609.018    -2550705.984 2  -1987525.302 1
  22191231.631   -12698626.015 2  -9895023.057 1
 91  7 30  4 57 45.0020000  0  3 21 23 11
  21225815.375   -13483604.230 3 -10506681.397 2
  22890997.891    -2517138.924 2  -1961369.148 2
  22187688.382   -12717258.134 2  -9909541.583 1
 91  7 30  4 58  0.0020000  0  3 21 23 11
  21225524.872   -13485120.049 2 -10507862.535 2
  22897398.160    -2483539.250 2  -1935187.610 1
  22184176.010   -12735729.627 2  -9923934.945 1
 91  7 30  4 58 15.0020000  0  3 21 23 11
  21225247.265   -13486567.914 2 -10508990.720 2
  22903789.433    -2449909.727 2  -1908982.782 1
  22180690.024   -12754042.911 2  -9938205.009 1
 91  7 30  4 58 30.0020000  0  3 21 23 11
  21224989.447   -13487946.705 3 -10510065.097 2
  22910203.496    -2416249.215 2  -1882753.823 1
  22177234.619   -12772196.627 2  -9952350.769 1
 91  7 30  4 58 45.0020000  0  3 21 23 11
  21224739.717   -13489257.759 3 -10511086.687 2
  22916609.166    -2382558.885 2  -1856501.630 1
  22173807.091   -12790191.792 2  -9966372.957 1
 91  7 30  4 59  0.0020000  0  3 21 23 11
  21224502.281   -13490497.285 3 -10512052.545 2
  22923029.214    -2348835.210 2  -1830223.446 1
  22170411.645   -12808024.364 2  -9980268.470 1
 91  7 30  4 59 15.0020000  0  3 21 23 11
  21224278.639   -13491669.798 2 -10512966.166 2
  22929449.272    -2315082.865 2  -1803922.911 1
  22167047.976   -12825698.509 2  -9994040.515 1
 91  7 30  4 59 30.0020000  0  3 21 23 11
  21224069.079   -13492772.840 3 -10513825.671 2
  22935877.723    -2281299.392 2  -1777598.118 1
  22163717.881   -12843211.614 2 -10007687.088 1
 91  7 30  4 59 45.0020000  0  3 21 23 11
  21223870.618   -13493813.151 3 -10514636.294 2
  22942311.871    -2247491.514 2  -1751254.300 1
  22160414.468   -12860570.095 2 -10021213.139 1
 91  7 30  5  0  0.0020000  0  3 21 23 11
  21223685.349   -13494777.938 3 -10515388.075 2
  22948751.106    -2213646.493 2  -1724881.573 1
  22157144.629   -12877760.868 2 -10034608.549 1
 91  7 30  5  0 15.0020000  0  3 21 23 11
  21223516.265   -13495675.128 3 -10516087.183 2
  22955195.445    -2179772.175 2  -1698486.013 1
  22153905.371   -12894791.570 2 -10047879.229 1
 91  7 30  5  0 30.0020000  0  3 21 23 11
  21223358.270   -13496504.623 3 -10516733.528 2
  22961651.781    -2145868.738 2  -1672067.766 1
  22150693.091   -12911661.942 2 -10061024.944 1
 91  7 30  5  0 45.0020000  0  3 21 23 11
  21223213.774   -13497265.166 3 -10517326.157 2
  22968104.811    -2111935.015 2  -1645625.917 1
  22147514.691   -12928370.458 2 -10074044.603 1
 91  7 30  5  1  0.0020000  0  3 21 23 11
  21223081.562   -13497959.810 3 -10517867.414 2
  22974569.541    -2077973.759 2  -1619162.593 1
  22144366.576   -12944919.727 2 -10086940.093 1
 91  7 30  5  1 15.0020000  0  3 21 23 11
  21222961.950   -13498587.057 3 -10518356.169 2
  22981037.857    -2043983.599 2  -1592676.741 1
  22141246.634   -12961308.043 2 -10099710.235 1
 91  7 30  5  1 30.0020000  0  3 21 23 11
  21222860.616   -13499143.648 3 -10518789.872 2
  22987511.573    -2009961.534 2  -1566166.042 1
  22138159.970   -12977531.995 2 -10112352.244 1
 91  7 30  5  1 45.0020000  0  3 21 23 11
  21222765.583   -13499633.248 3 -10519171.352 2
  22993992.793    -1975911.288 2  -1539633.379 1
  22135102.386   -12993594.906 2 -10124868.802 1
 91  7 30  5  2  0.0020000  0  3 21 23 11
  21222681.944   -13500055.549 3 -10519500.402 2
  23000478.202    -1941832.532 2  -1513078.507 1
  22132077.478   -13009496.215 3 -10137259.409 1
 91  7 30  5  2 15.0020000  0  3 21 23 11
  21222617.788   -13500411.879 3 -10519778.054 2
  23006966.908    -1907726.475 2  -1486502.386 1
  22129084.050   -13025236.914 2 -10149524.898 1
 91  7 30  5  2 30.0020000  0  3 21 23 11
  21222561.127   -13500697.414 3 -10520000.542 2
  23013464.008    -1873588.405 2  -1459901.288 1
  22126117.609   -13040811.981 2 -10161661.296 1
 91  7 30  5  2 45.0020000  0  3 21 23 11
  21222520.058   -13500914.765 3 -10520169.888 2
  23019965.907    -1839420.991 2  -1433277.330 1
  22123183.538   -13056223.775 2 -10173670.487 1
 91  7 30  5  3  0.0020000  0  3 21 23 11
  21222496.675   -13501060.465 3 -10520283.394 2
  23026472.605    -1805220.981 2  -1406627.944 1
  22120284.246   -13071468.572 2 -10185549.522 1
 91  7 30  5  3 15.0020000  0  3 21 23 11
  21222481.685   -13501138.707 3 -10520344.364 2
  23032990.095    -1770992.523 2  -1379956.436 1
  22117409.532   -13086550.272 2 -10197301.503 1
 91  7 30  5  3 30.0020000  0  3 21 23 11
  21222469.993   -13501147.311 3 -10520351.056 2
  23039507.577    -1736733.390 2  -1353261.001 1
  22114575.302   -13101466.454 2 -10208924.471 1
 91  7 30  5  3 45.0020000  0  3 21 23 11
  21222485.882   -13501088.867 3 -10520305.512 2
  23046031.367    -1702446.249 2  -1326543.782 1
  22111769.839   -13116219.494 2 -10220420.354 1
 91  7 30  5  4  0.0020000  0  3 21 23 11
  21222511.961   -13500963.738 3 -10520208.000 2
  23052560.244    -1668131.474 2  -1299804.986 1
  22108989.863   -13130809.350 2 -10231789.044 1
 91  7 30  5  4 15.0020000  0  3 21 23 11
  21222545.239   -13500770.033 3 -10520057.051 2
  23059099.015    -1633787.096 2  -1273043.098 1
  22106247.962   -13145233.967 2 -10243028.998 1
 91  7 30  5  4 30.0020000  0  3 21 23 11
  21222596.202   -13500507.826 3 -10519852.718 2
  23065634.497    -1599413.357 2  -1246258.398 1
  22103532.743   -13159493.183 2 -10254140.061 1
 91  7 30  5  4 45.0020000  0  3 21 23 11
  21222657.356   -13500180.186 3 -10519597.405 2
  23072180.161    -1565013.336 2  -1219453.184 1
  22100851.099   -13173589.823 2 -10265124.474 1
 91  7 30  5  5  0.0020000  0  3 21 23 11
  21222735.010   -13499782.441 3 -10519287.475 2
  23078736.923    -1530582.419 2  -1192623.896 1
  22098199.739   -13187518.938 2 -10275978.290 1
 91  7 30  5  5 15.0020000  0  3 21 23 11
  21222823.142   -13499320.355 3 -10518927.395 2
  23085289.785    -1496126.410 2  -1165775.046 1
  22095578.952   -13201286.118 2 -10286705.953 1
 91  7 30  5  5 30.0020000  0  3 21 23 11
  21222924.475   -13498793.602 3 -10518516.928 2
  23091853.440    -1461645.101 2  -1138906.515 1
  22092989.043   -13214890.748 2 -10297306.944 2
 91  7 30  5  5 45.0020000  0  3 21 23 11
  21223034.796   -13498199.542 3 -10518054.021 2
  23098423.997    -1427135.890 2  -1112016.198 1
  22090431.809   -13228329.974 2 -10307779.054 1
 91  7 30  5  6  0.0020000  0  3 21 23 11
  21223162.514   -13497542.086 3 -10517541.697 2
  23104990.348    -1392602.646 2  -1085107.169 1
  22087900.664   -13241607.455 2 -10318125.145 2
 91  7 30  5  6 15.0020000  0  3 21 23 11
  21223299.812   -13496813.421 3 -10516973.899 2
  23111571.392    -1358037.565 2  -1058173.334 1
  22085412.987   -13254715.071 2 -10328338.839 1
 91  7 30  5  6 30.0020000  0  3 21 23 11
  21223449.710   -13496021.206 3 -10516356.579 2
  23118154.836    -1323448.326 2  -1031220.665 1
  22082951.093   -13267660.246 2 -10338425.996 1
 91  7 30  5  6 45.0020000  0  3 21 23 11
  21223616.394   -13495159.697 3 -10515685.268 2
  23124738.576    -1288829.452 2  -1004244.917 1
  22080519.178   -13280437.257 2 -10348382.070 2
 91  7 30  5  7  0.0020000  0  3 21 23 11
  21223794.770   -13494234.244 3 -10514964.129 2
  23131333.415    -1254186.035 2   -977250.063 1
  22078114.538   -13293050.973 2 -10358210.944 1
 91  7 30  5  7 15.0020000  0  3 21 23 11
  21223982.744   -13493241.923 3 -10514190.889 2
  23137932.441    -1219515.298 2   -950233.932 1
  22075745.880   -13305498.198 2 -10367910.035 2
 91  7 30  5  7 30.0020000  0  3 21 23 11
  21224182.401   -13492183.473 3 -10513366.103 2
  23144533.876    -1184818.123 2   -923197.172 1
  22073411.992   -13317779.548 2 -10377479.933 1
 91  7 30  5  7 45.0020000  0  3 21 23 11
  21224393.758   -13491061.879 3 -10512492.133 2
  23151137.998    -1150097.328 2   -896141.981 1
  22071103.294   -13329897.739 2 -10386922.660 1
 91  7 30  5  8  0.0020000  0  3 21 23 11
  21224619.502   -13489874.771 3 -10511567.105 2
  23157747.827    -1115350.681 2   -869066.714 1
  22068832.366   -13341850.313 2 -10396236.329 2
 91  7 30  5  8 15.0020000  0  3 21 23 11
  21224860.237   -13488619.697 3 -10510589.112 2
  23164370.839    -1080575.855 2   -841969.451 1
  22066590.519   -13353634.498 2 -10405418.802 1
 91  7 30  5  8 30.0020000  0  3 21 23 11
  21225108.763   -13487298.189 3 -10509559.368 2
  23170992.359    -1045774.299 2   -814851.337 1
  22064380.144   -13365251.520 2 -10414471.030 1
 91  7 30  5  8 45.0020000  0  3 21 23 11
  21225371.982   -13485912.144 3 -10508479.325 2
  23177619.271    -1010947.914 2   -787713.906 1
  22062195.263   -13376703.067 2 -10423394.293 1
 91  7 30  5  9  0.0020000  0  3 21 23 11
  21225648.987   -13484455.828 3 -10507344.521 2
  23184253.373     -976091.174 2   -760552.810 1
  22060052.943   -13387983.390 2 -10432184.139 1
 91  7 30  5  9 15.0020000  0  3 21 23 11
  21225943.389   -13482935.662 3 -10506159.963 2
  23190885.083     -941210.582 2   -733373.165 1
  22057936.712   -13399098.630 2 -10440845.344 1
 91  7 30  5  9 30.0020000  0  3 21 23 11
  21226243.777   -13481350.394 3 -10504924.677 2
  23197532.683     -906304.760 2   -706173.822 1
  22055852.554   -13410047.316 2 -10449376.774 1
 91  7 30  5  9 45.0020000  0  3 21 23 11
  21226556.764   -13479700.772 3 -10503639.255 2
  23204175.187     -871374.542 2   -678955.462 1
  22053800.469   -13420830.076 2 -10457778.931 1
 91  7 30  5 10  0.0020000  0  3 21 23 11
  21226883.537   -13477986.368 3 -10502303.338 2
  23210834.172     -836419.369 2   -651717.706 1
  22051780.170   -13431446.128 2 -10466051.152 1
 91  7 30  5 10 15.0020000  0  3 21 23 11
  21227220.798   -13476206.272 3 -10500916.245 2
  23217487.469     -801438.514 2   -624459.868 1
  22049794.047   -13441894.433 2 -10474192.650 2
 91  7 30  5 10 30.0020000  0  3 21 23 11
  21227573.955   -13474361.593 3 -10499478.826 2
  23224149.160     -766433.239 2   -597183.024 1
  22047834.004   -13452175.812 2 -10482204.128 2
 91  7 30  5 10 45.0020000  0  3 21 23 11
  21227934.311   -13472447.659 3 -10497987.440 2
  23230813.843     -731398.832 2   -569883.502 1
  22045914.131   -13462285.503 2 -10490081.801 1
 91  7 30  5 11  0.0020000  0  3 21 23 11
  21228310.546   -13470468.060 3 -10496444.877 2
  23237485.724     -696338.586 2   -542563.871 1
  22044019.439   -13472226.811 2 -10497828.252 2
 91  7 30  5 11 15.0020000  0  3 21 23 11
  21228704.773   -13468420.594 3 -10494849.438 2
  23244160.598     -661250.540 2   -515222.518 1
  22042161.628   -13481997.466 2 -10505441.742 1
 91  7 30  5 11 30.0020000  0  3 21 23 11
  21229106.198   -13466307.045 3 -10493202.512 2
  23250841.475     -626136.687 2   -487861.081 1
  22040334.398   -13491598.975 2 -10512923.428 1
 91  7 30  5 11 45.0020000  0  3 21 23 11
  21229520.213   -13464124.895 3 -10491502.118 2
  23257532.246     -590994.448 2   -460477.530 1
  22038539.233   -13501028.609 2 -10520271.177 2
 91  7 30  5 12  0.0020000  0  3 21 23 11
  21229948.616   -13461877.440 3 -10489750.839 2
  23264221.212     -555827.026 2   -433074.324 1
  22036780.050   -13510289.377 2 -10527487.353 2
 91  7 30  5 12 15.0020000  0  3 21 23 11
  21230389.303   -13459562.874 3 -10487947.274 2
  23270924.870     -520632.781 2   -405650.236 1
  22035048.151   -13519379.476 2 -10534570.549 1
 91  7 30  5 12 30.0020000  0  3 21 23 11
  21230843.489   -13457181.754 3 -10486091.844 2
  23277623.136     -485412.309 2   -378205.745 1
  22033349.826   -13528299.118 2 -10541520.891 1
 91  7 30  5 12 45.0020000  0  3 21 23 11
  21231308.468   -13454732.252 3 -10484183.139 2
  23284333.094     -450163.843 2   -350739.410 1
  22031683.287   -13537046.263 2 -10548336.844 1
 91  7 30  5 13  0.0020000  0  3 21 23 11
  21231782.747   -13452216.057 3 -10482222.446 2
  23291049.639     -414888.985 2   -323252.530 1
  22030055.714   -13545622.458 2 -10555019.585 1
 91  7 30  5 13 15.0020000  0  3 21 23 11
  21232279.197   -13449631.035 3 -10480208.149 2
  23297762.292     -379585.892 2   -295743.628 1
  22028457.518   -13554025.465 2 -10561567.385 1
 91  7 30  5 13 30.0020000  0  3 21 23 11
  21232783.151   -13446984.139 3 -10478145.616 2
  23304483.043     -344261.309 2   -268217.995 1
  22026886.902   -13562262.048 2 -10567985.495 1
 91  7 30  5 13 45.0020000  0  4 21 12 23 11
  21233298.490   -13444269.968 3 -10476030.662 2
  24508144.068           0.543 2         0.177 1
  23311210.381     -308909.745 2   -240671.260 1
  22025349.564   -13570326.553 2 -10574269.500 1
 91  7 30  5 14  0.0020000  0  4 21 12 23 11
  21233824.632   -13441491.212 3 -10473865.383 2
  24508366.210        1166.084 2       908.391 1
  23317944.621     -273534.049 2   -213105.815 1
  22023851.803   -13578221.555 2 -10580421.456 2
 91  7 30  5 14 15.0020000  0  4 21 12 23 11
  21234370.248   -13438646.835 2 -10471648.962 2
  24508623.129        2490.028 2      1940.018 1
  23324682.159     -238133.340 2   -185520.843 1
  22022382.818   -13585945.852 2 -10586440.381 1
 91  7 30  5 14 30.0020000  0  4 21 12 23 11
  21234919.171   -13435735.043 2 -10469380.031 2
  24508898.939        3974.273 2      3096.634 1
  23331422.689     -202705.757 2   -157914.964 1
  22020947.712   -13593497.397 2 -10592324.686 1
 91  7 30  5 14 45.0020000  0  4 21 12 23 11
  21235488.781   -13432757.919 3 -10467060.176 2
  24509214.927        5616.880 2      4376.703 1
  23338168.926     -167253.363 2   -130289.742 1
  22019539.593   -13600878.094 2 -10598075.894 1
 91  7 30  5 15  0.0020000  0  4 21 12 23 11
  21236070.972   -13429714.022 3 -10464688.294 2
  24509561.183        7419.294 2      5781.113 1
  23344921.445     -131774.928 2   -102644.198 1
  22018167.142   -13608086.476 2 -10603692.794 1
 91  7 30  5 15 15.0020000  0  4 21 12 23 11
  21236659.167   -13426601.968 3 -10462263.318 2
  24509932.323        9383.060 2      7311.372 1
  23351675.168      -96269.201 2    -74977.399 1
  22016828.265   -13615120.979 2 -10609174.208 1
 91  7 30  5 15 30.0020000  0  4 21 12 23 11
  21237266.548   -13423416.759 3 -10459781.325 2
  24510332.247       11513.237 2      8971.190 1
  23358441.786      -60730.937 2    -47285.234 1
  22015525.371   -13621976.379 2 -10614516.084 1
 91  7 30  5 15 45.0020000  0  4 21 12 23 11
  21237880.525   -13420169.302 3 -10457250.817 2
  24510764.550       13799.097 2     10752.361 1
  23365205.709      -25171.065 2    -19576.266 1
  22014248.853   -13628663.507 2 -10619726.828 1
 91  7 30  5 16  0.0020000  0  4 21 12 23 11
  21238513.383   -13416858.543 2 -10454670.992 2
  24511232.827       16241.831 2     12655.896 1
  23371978.313       10411.369 2      8150.307 1
  22013011.911   -13635180.957 2 -10624805.362 1
 91  7 30  5 16 15.0020000  0  4 21 12 23 11
  21239158.239   -13413482.328 3 -10452040.173 2
  24511726.886       18843.584 2     14683.064 1
  23378755.724       46018.527 2     35896.132 1
  22011804.042   -13641526.543 2 -10629749.974 1
 91  7 30  5 16 30.0020000  0  4 21 12 23 11
  21239812.386   -13410039.246 3 -10449357.234 2
  24512260.819       21605.851 2     16835.698 1
  23385537.027       81651.919 2     63662.405 1
  22010630.061   -13647698.793 2 -10634559.501 1
 91  7 30  5 16 45.0020000  0  4 21 12 23 11
  21240477.920   -13406531.530 3 -10446623.940 2
  24512809.437       24526.671 2     19111.664 1
  23392315.338      117309.151 2     91447.211 1
  22009488.451   -13653699.734 2 -10639235.563 1
 91  7 30  5 17  0.0020000  0  3 21 23 11
  21241162.352   -13402956.116 3 -10443837.892 2
  23399106.831      152993.045 2    119252.846 1
  22008378.617   -13659526.180 2 -10643775.655 2
 91  7 30  5 17 15.0020000  0  3 21 23 11
  21241851.575   -13399312.943 3 -10440999.038 2
  23405904.031      188704.001 2    147079.553 1
  22007305.359   -13665177.869 2 -10648179.570 1
 91  7 30  5 17 30.0020000  0  3 21 23 11
  21242559.679   -13395601.205 3 -10438106.764 2
  23412709.023      224442.652 2    174927.893 1
  22006260.885   -13670653.847 2 -10652446.551 1
 91  7 30  5 17 45.0020000  0  3 21 23 11
  21243276.185   -13391825.248 3 -10435164.462 2
  23419510.115      260204.571 2    202794.328 1
  22005249.086   -13675958.346 2 -10656579.894 1
 91  7 30  5 18  0.0020000  0  3 21 23 11
  21244009.774   -13387986.223 3 -10432173.000 2
  23426319.896      295988.635 2    230677.975 1
  22004273.261   -13681092.328 2 -10660580.409 1
 91  7 30  5 18 15.0020000  0  3 21 23 11
  21244752.368   -13384083.068 3 -10429131.583 2
  23433134.782      331795.664 2    258579.569 1
  22003329.815   -13686054.543 2 -10664447.087 1
 91  7 30  5 18 30.0020000  0  3 21 23 11
  21245506.043   -13380114.104 3 -10426038.882 2
  23439953.559      367627.394 2    286500.366 1
  22002417.841   -13690843.277 2 -10668178.564 1
 91  7 30  5 18 45.0020000  0  3 21 23 11
  21246274.708   -13376081.061 2 -10422896.233 2
  23446780.128      403482.329 2    314439.248 1
  22001541.246   -13695459.991 2 -10671775.992 1
 91  7 30  5 19  0.0020000  0  3 21 23 11
  21247052.970   -13371982.235 3 -10419702.325 2
  23453602.509      439361.655 2    342397.169 1
  22000697.336   -13699903.035 2 -10675238.088 1
 91  7 30  5 19 15.0020000  0  3 21 23 11
  21247845.323   -13367818.110 3 -10416457.556 2
  23460433.877      475265.366 2    370374.111 1
  21999884.592   -13704172.720 2 -10678565.126 1
 91  7 30  5 19 30.0020000  0  3 21 23 11
  21248651.768   -13363588.339 3 -10413161.613 2
  23467269.144      511193.452 2    398369.985 1
  21999104.838   -13708268.624 2 -10681756.731 1
 91  7 30  5 19 45.0020000  0  3 21 23 11
  21249468.700   -13359292.816 3 -10409814.446 2
  23474113.713      547146.275 2    426385.174 1
  21998357.751   -13712190.484 2 -10684812.713 1
 91  7 30  5 20  0.0020000  0  3 21 23 11
  21250298.222   -13354937.024 3 -10406420.310 2
  23480963.072      583118.131 2    454415.177 1
  21997642.746   -13715943.589 2 -10687737.219 1
 91  7 30  5 20 15.0020000  0  3 21 23 11
  21251138.843   -13350518.339 3 -10402977.169 2
  23487807.030      619111.673 2    482462.093 1
  21996962.519   -13719525.178 2 -10690528.063 1
 91  7 30  5 20 30.0020000  0  3 21 23 11
  21251993.554   -13346033.597 3 -10399482.560 2
  23494660.289      655130.002 2    510528.264 1
  21996311.067   -13722932.025 2 -10693182.741 1
 91  7 30  5 20 45.0020000  0  3 21 23 11
  21252857.855   -13341486.895 3 -10395939.670 2
  23501521.932      691169.086 2    538610.645 1
  21995696.793   -13726168.092 2 -10695704.349 1
 91  7 30  5 21  0.0020000  0  3 21 23 11
  21253735.348   -13336874.201 3 -10392345.346 2
  23508387.485      727232.882 2    566712.377 1
  21995112.804   -13729229.176 2 -10698089.600 1
 91  7 30  5 21 15.0020000  0  3 21 23 11
  21254624.227   -13332199.159 3 -10388702.442 2
  23515251.232      763317.575 2    594830.276 1
  21994566.874   -13732118.902 2 -10700341.342 2
 91  7 30  5 21 30.0020000  0  3 21 23 11
  21255528.707   -13327455.947 3 -10385006.436 2
  23522119.471      799429.071 2    622969.145 1
  21994049.440   -13734831.419 2 -10702454.981 2
 91  7 30  5 21 45.0020000  0  3 21 23 11
  21256440.376   -13322649.178 3 -10381260.889 2
  23529001.209      835562.895 2    651125.354 1
  21993564.970   -13737371.109 2 -10704433.968 1
 91  7 30  5 22  0.0020000  0  3 21 23 11
  21257370.629   -13317773.165 3 -10377461.401 2
  23535876.647      871724.485 2    679303.182 1
  21993117.677   -13739732.141 2 -10706273.701 1
 91  7 30  5 22 15.0020000  0  3 21 23 11
  21258312.880   -13312827.729 3 -10373607.798 2
  23542762.887      907914.132 2    707502.895 1
  21992703.967   -13741914.186 2 -10707974.014 1
 91  7 30  5 22 30.0020000  0  3 21 23 11
  21259265.915   -13307810.083 3 -10369697.938 2
  23549659.606      944134.550 2    735726.544 1
  21992321.433   -13743914.506 2 -10709532.687 1
 91  7 30  5 22 45.0020000  0  3 21 23 11
  21260233.948   -13302728.597 3 -10365738.341 2
  23556556.037      980377.472 2    763967.813 1
  21991973.074   -13745741.365 2 -10710956.208 1
 91  7 30  5 23  0.0020000  0  3 21 23 11
  21261211.274   -13297581.153 3 -10361727.330 2
  23563456.062     1016644.729 2    792228.012 1
  21991660.392   -13747392.544 2 -10712242.849 1
 91  7 30  5 23 15.0020000  0  3 21 23 11
  21262205.081   -13292367.195 3 -10357664.496 2
  23570364.176     1052936.863 2    820507.580 1
  21991378.589   -13748867.471 2 -10713392.137 1
 91  7 30  5 23 30.0020000  0  3 21 23 11
  21263209.088   -13287085.408 3 -10353548.804 2
  23577274.095     1089255.138 2    848807.547 1
  21991127.960   -13750164.637 2 -10714402.893 1
 91  7 30  5 23 45.0020000  0  3 21 23 11
  21264226.881   -13281739.498 3 -10349383.157 2
  23584187.008     1125596.019 2    877125.076 1
  21990915.102   -13751287.554 2 -10715277.884 1
 91  7 30  5 24  0.0020000  0  3 21 23 11
  21265255.170   -13276327.205 3 -10345165.766 2
  23591107.712     1161961.840 2    905462.090 1
  21990740.923   -13752233.948 2 -10716015.339 1
 91  7 30  5 24 15.0020000  0  3 21 23 11
  21266299.644   -13270844.214 3 -10340893.288 2
  23598039.218     1198356.563 2    933821.587 1
  21990589.830   -13752999.464 2 -10716611.824 2
 91  7 30  5 24 30.0020000  0  3 21 23 11
  21267357.014   -13265293.377 3 -10336567.957 2
  23604970.418     1234777.515 2    962201.554 1
  21990484.003   -13753586.819 2 -10717069.508 2
 91  7 30  5 24 45.0020000  0  3 21 23 11
  21268423.074   -13259679.236 3 -10332193.289 2
  23611897.422     1271220.090 2    990598.363 1
  21990402.458   -13754000.525 2 -10717391.873 2
 91  7 30  5 25  0.0020000  0  3 21 23 11
  21269507.727   -13253997.275 3 -10327765.771 2
  23618845.714     1307688.660 2   1019015.429 1
  21990358.388   -13754236.016 2 -10717575.381 2
 91  7 30  5 25 15.0020000  0  3 21 23 11
  21270601.070   -13248247.500 3 -10323285.420 2
  23625785.910     1344183.488 2   1047452.947 1
  21990346.399   -13754293.110 2 -10717619.860 1
 91  7 30  5 25 30.0020000  0  3 21 23 11
  21271707.301   -13242428.277 3 -10318750.939 2
  23632735.102     1380705.985 2   1075911.998 1
  21990367.985   -13754170.012 2 -10717523.916 2
 91  7 30  5 25 45.0020000  0  3 21 23 11
  21272824.333   -13236546.569 3 -10314167.793 2
  23639690.584     1417249.243 2   1104387.292 1
  21990421.051   -13753873.853 2 -10717293.139 1
 91  7 30  5 26  0.0020000  0  3 21 23 11
  21273959.644   -13230596.606 3 -10309531.443 2
  23646650.568     1453818.999 2   1132883.173 1
  21990514.585   -13753398.722 2 -10716922.914 1
 91  7 30  5 26 15.0020000  0  3 21 23 11
  21275103.349   -13224581.243 3 -10304844.132 2
  23653610.850     1490412.264 2   1161397.403 1
  21990638.996   -13752747.528 2 -10716415.452 1
 91  7 30  5 26 30.0020000  0  3 21 23 11
  21276261.747   -13218498.067 3 -10300103.992 2
  23660581.322     1527031.638 2   1189932.007 1
  21990796.388   -13751917.557 2 -10715768.725 1
 91  7 30  5 26 45.0020000  0  3 21 23 11
  21277432.141   -13212345.750 3 -10295309.956 2
  23667552.998     1563678.352 2   1218487.866 1
  21990988.559   -13750907.522 2 -10714981.702 1
 91  7 30  5 27  0.0020000  0  3 21 23 11
  21278616.017   -13206129.274 3 -10290465.944 2
  23674527.064     1600347.200 2   1247060.953 1
  21991218.500   -13749722.360 2 -10714058.185 1
 91  7 30  5 27 15.0020000  0  3 21 23 11
  21279812.194   -13199843.657 3 -10285568.067 2
  23681517.325     1637043.285 2   1275655.313 1
  21991473.020   -13748357.003 2 -10712994.260 1
 91  7 30  5 27 30.0030000  0  3 21 23 11
  21281020.354   -13193495.397 3 -10280621.348 2
  23688506.088     1673762.025 2   1304267.335 1
  21991766.213   -13746818.183 2 -10711795.184 1
 91  7 30  5 27 45.0030000  0  3 21 23 11
  21282237.516   -13187082.310 3 -10275624.117 2
  23695490.956     1710501.611 2   1332895.563 1
  21992093.588   -13745103.112 2 -10710458.761 1
 91  7 30  5 28  0.0030000  0  3 21 23 11
  21283470.557   -13180602.743 2 -10270575.100 2
  23702495.003     1747265.822 2   1361542.986 1
  21992455.436   -13743210.269 2 -10708983.815 1
 91  7 30  5 28 15.0030000  0  3 21 23 11
  21284715.298   -13174058.183 3 -10265475.417 2
  23709491.257     1784052.961 2   1390208.255 1
  21992849.366   -13741141.216 2 -10707371.537 1
 91  7 30  5 28 30.0030000  0  3 21 23 11
  21285975.030   -13167449.002 3 -10260325.391 2
  23716494.414     1820862.761 2   1418891.186 1
  21993274.776   -13738896.256 2 -10705622.217 1
 91  7 30  5 28 45.0030000  0  3 21 23 11
  21287248.546   -13160773.075 3 -10255123.359 2
  23723498.765     1857697.289 2   1447593.484 1
  21993737.050   -13736473.229 2 -10703734.139 1
 91  7 30  5 29  0.0030000  0  3 21 23 11
  21288526.862   -13154031.745 3 -10249870.377 2
  23730519.302     1894555.072 2   1476313.836 1
  21994233.508   -13733873.444 2 -10701708.353 2
 91  7 30  5 29 15.0030000  0  3 21 23 11
  21289824.059   -13147225.037 3 -10244566.422 2
  23737537.448     1931436.166 2   1505052.357 1
  21994759.048   -13731096.792 2 -10699544.711 1
 91  7 30  5 29 30.0030000  0  3 21 23 11
  21291130.853   -13140354.331 3 -10239212.606 2
  23744561.580     1968339.183 2   1533807.915 1
  21995321.460   -13728144.674 2 -10697244.356 1
 91  7 30  5 29 45.0030000  0  3 21 23 11
  21292449.645   -13133419.155 3 -10233808.582 2
  23751584.524     2005264.658 2   1562580.997 1
  21995918.641   -13725016.549 2 -10694806.860 1
 91  7 30  5 30  0.0030000  0  3 21 23 11
  21293782.519   -13126417.951 3 -10228353.076 2
  23758617.049     2042214.012 2   1591372.647 1
  21996542.513   -13721710.831 2 -10692230.985 1
 91  7 30  5 30 15.0030000  0  3 21 23 11
  21295128.890   -13119352.090 3 -10222847.206 2
  23765647.184     2079185.862 2   1620181.877 1
  21997208.046   -13718229.029 2 -10689517.885 1
 91  7 30  5 30 30.0030000  0  3 21 23 11
  21296484.249   -13112218.331 3 -10217288.416 2
  23772696.801     2116183.386 2   1649011.204 1
  21997902.966   -13714567.779 2 -10686664.948 2
 91  7 30  5 30 45.0030000  0  3 21 23 11
  21297851.604   -13105019.077 3 -10211678.603 2
  23779739.229     2153204.199 2   1677858.542 1
  21998630.867   -13710729.373 2 -10683673.981 1
 91  7 30  5 31  0.0030000  0  3 21 23 11
  21299238.443   -13097749.450 3 -10206013.942 2
  23786786.753     2190253.149 2   1706727.807 1
  21999401.635   -13706708.954 2 -10680541.188 1
 91  7 30  5 31 15.0030000  0  3 21 23 11
  21300633.082   -13090417.934 2 -10200301.050 2
  23793844.162     2227321.723 2   1735612.447 1
  22000194.878   -13702515.049 2 -10677273.219 1
 91  7 30  5 31 30.0030000  0  3 21 23 11
  21302042.405   -13083014.961 3 -10194532.500 2
  23800895.882     2264419.462 2   1764519.757 1
  22001032.506   -13698138.076 2 -10673862.580 2
 91  7 30  5 31 45.0030000  0  3 21 23 11
  21303462.818   -13075552.514 3 -10188717.594 2
  23807964.389     2301534.356 2   1793440.449 1
  22001895.602   -13693590.016 2 -10670318.630 1
 91  7 30  5 32  0.0030000  0  3 21 23 11
  21304894.931   -13068026.387 3 -10182853.065 2
  23815034.397     2338670.530 2   1822377.691 1
  22002796.479   -13688866.630 2 -10666638.086 1
 91  7 30  5 32 15.0030000  0  3 21 23 11
  21306338.125   -13060433.428 3 -10176936.466 2
  23822102.905     2375831.188 2   1851334.002 1
  22003729.437   -13683964.808 2 -10662818.460 1
 91  7 30  5 32 30.0030000  0  3 21 23 11
  21307796.623   -13052773.660 3 -10170967.807 2
  23829176.804     2413016.269 2   1880309.393 1
  22004695.368   -13678884.500 2 -10658859.762 1
 91  7 30  5 32 45.0030000  0  3 21 23 11
  21309266.498   -13045044.221 3 -10164944.858 2
  23836258.198     2450228.576 2   1909306.050 1
  22005695.771   -13673622.774 2 -10654759.727 1
 91  7 30  5 33  0.0030000  0  3 21 23 11
  21310752.873   -13037250.220 2 -10158871.578 2
  23843342.594     2487463.160 2   1938320.000 1
  22006735.159   -13668184.839 2 -10650522.383 2
 91  7 30  5 33 15.0030000  0  3 21 23 11
  21312245.835   -13029391.685 3 -10152748.043 2
  23850430.593     2524720.034 2   1967351.315 1
  22007797.615   -13662570.597 2 -10646147.655 1
 91  7 30  5 33 30.0030000  0  3 21 23 11
  21313754.092   -13021464.732 3 -10146571.191 2
  23857523.976     2562002.909 2   1996402.890 1
  22008900.556   -13656776.340 2 -10641632.630 2
 91  7 30  5 33 45.0030000  0  3 21 23 11
  21315275.542   -13013472.959 3 -10140343.816 2
  23864625.761     2599308.041 2   2025471.781 1
  22010040.369   -13650805.576 2 -10636980.103 1
 91  7 30  5 34  0.0030000  0  3 21 23 11
  21316809.582   -13005413.623 3 -10134063.808 2
  23871732.641     2636638.175 2   2054560.169 1
  22011208.356   -13644655.453 2 -10632187.783 1
 91  7 30  5 34 15.0030000  0  3 21 23 11
  21318354.711   -12997290.877 3 -10127734.395 2
  23878834.130     2673989.064 2   2083664.758 1
  22012412.028   -13638330.294 2 -10627259.083 1
 91  7 30  5 34 30.0030000  0  3 21 23 11
  21319912.431   -12989105.323 3 -10121356.029 2
  23885950.904     2711360.276 2   2112785.210 1
  22013652.861   -13631830.544 3 -10622194.359 2
 91  7 30  5 34 45.0030000  0  3 21 23 11
  21321482.741   -12980853.392 3 -10114925.935 2
  23893070.672     2748755.484 2   2141924.323 1
  22014921.291   -13625152.615 2 -10616990.767 2
 91  7 30  5 35  0.0030000  0  3 21 23 11
  21323068.347   -12972531.196 3 -10108441.095 2
  23900189.540     2786178.351 2   2171085.019 1
  22016227.187   -13618292.890 2 -10611645.537 1
 91  7 30  5 35 15.0030000  0  3 21 23 11
  21324663.244   -12964143.581 3 -10101905.287 2
  23907316.209     2823623.993 2   2200263.403 1
  22017563.961   -13611256.191 2 -10606162.391 1
 91  7 30  5 35 30.0030000  0  3 21 23 11
  21326271.029   -12955690.317 3 -10095318.310 2
  23914442.878     2861092.808 2   2229459.911 1
  22018942.703   -13604042.168 2 -10600541.067 1
 91  7 30  5 35 45.0030000  0  3 21 23 11
  21327890.810   -12947172.377 3 -10088680.951 2
  23921583.036     2898583.714 2   2258673.583 1
  22020347.227   -13596651.736 2 -10594782.280 1
 91  7 30  5 36  0.0030000  0  3 21 23 11
  21329527.676   -12938586.117 3 -10081990.360 2
  23928716.895     2936100.243 2   2287907.197 1
  22021784.732   -13589081.480 2 -10588883.384 1
 91  7 30  5 36 15.0030000  0  3 21 23 11
  21331172.036   -12929935.410 3 -10075249.537 2
  23935861.249     2973638.514 2   2317157.799 1
  22023256.414   -13581335.260 2 -10582847.367 1
 91  7 30  5 36 30.0030000  0  3 21 23 11
  21332831.988   -12921217.331 2 -10068456.227 2
  23943012.200     3011201.457 2   2346427.619 1
  22024767.367   -13573410.127 2 -10576671.936 1
 91  7 30  5 36 45.0030000  0  3 21 23 11
  21334503.928   -12912433.609 3 -10061611.754 2
  23950157.148     3048787.493 2   2375715.447 1
  22026308.902   -13565307.945 2 -10570358.560 1
 91  7 30  5 37  0.0030000  0  3 21 23 11
  21336189.061   -12903582.639 3 -10054714.884 2
  23957321.588     3086398.317 2   2405022.604 1
  22027887.309   -13557026.929 2 -10563905.806 1
 91  7 30  5 37 15.0030000  0  3 21 23 11
  21337883.189   -12894665.272 3 -10047766.270 2
  23964477.940     3124032.831 2   2434348.168 1
  22029492.398   -13548568.039 2 -10557314.478 1
 91  7 30  5 37 30.0030000  0  3 21 23 11
  21339595.003   -12885683.036 3 -10040767.124 2
  23971650.773     3161689.329 2   2463690.892 1
  22031135.859   -13539932.885 2 -10550585.788 1
 91  7 30  5 37 45.0030000  0  3 21 23 11
  21341316.118   -12876634.888 3 -10033716.602 2
  23978817.613     3199368.985 2   2493051.641 1
  22032813.497   -13531120.498 2 -10543718.977 1
 91  7 30  5 38  0.0030000  0  3 21 23 11
  21343050.713   -12867518.029 3 -10026612.546 2
  23985995.838     3237074.687 2   2522432.695 1
  22034526.218   -13522128.123 2 -10536711.946 1
 91  7 30  5 38 15.0030000  0  3 21 23 11
  21344800.298   -12858331.584 3 -10019454.258 2
  23993171.071     3274807.041 2   2551834.528 1
  22036268.910   -13512954.955 2 -10529564.026 1
 91  7 30  5 38 30.0030000  0  3 21 23 11
  21346558.582   -12849080.965 3 -10012245.984 2
  24000352.604     3312560.749 2   2581253.009 1
  22038047.873   -13503606.429 2 -10522279.440 1
 91  7 30  5 38 45.0030000  0  3 21 23 11
  21348330.355   -12839760.044 3 -10004982.925 2
  24007545.819     3350341.840 2   2610692.783 1
  22039865.217   -13494076.396 2 -10514853.471 1
 91  7 30  5 39  0.0030000  0  3 21 23 11
  21350120.416   -12830370.562 2  -9997666.443 2
  24014738.144     3388148.567 2   2640152.607 1
  22041711.337   -13484366.686 2 -10507287.466 1
 91  7 30  5 39 15.0030000  0  3 21 23 11
  21351919.472   -12820914.122 2  -9990297.778 2
  24021937.057     3425979.357 2   2669631.135 1
  22043595.236   -13474479.058 2 -10499582.823 1
 91  7 30  5 39 30.0030000  0  3 21 23 11
  21353730.822   -12811393.149 2  -9982878.841 2
  24029141.973     3463831.844 2   2699126.540 1
  22045504.019   -13464415.974 2 -10491741.474 1
 91  7 30  5 39 45.0030000  0  3 21 23 11
  21355557.755   -12801805.918 2  -9975408.269 2
  24036349.279     3501707.748 2   2728640.183 1
  22047455.966   -13454175.709 2 -10483762.029 1
 91  7 30  5 40  0.0030000  0  3 21 23 11
  21357392.785   -12792153.519 2  -9967886.903 2
  24043567.981     3539605.901 2   2758171.204 1
  22049436.696   -13443759.441 2 -10475645.463 1
 91  7 30  5 40 15.0030000  0  3 21 23 11
  21359240.406   -12782435.801 2  -9960314.645 2
  24050781.586     3577526.488 2   2787719.713 1
  22051456.393   -13433167.133 2 -10467391.733 1
 91  7 30  5 40 30.0030000  0  3 21 23 11
  21361102.414   -12772649.824 2  -9952689.210 2
  24057996.100     3615472.396 2   2817288.032 1
  22053501.576   -13422395.865 2 -10458998.543 1
 91  7 30  5 40 45.0030000  0  3 21 23 11
  21362977.021   -12762800.340 2  -9945014.272 2
  24065224.992     3653438.838 2   2846872.261 1
  22055586.633   -13411450.500 2 -10450469.656 1
 91  7 30  5 41  0.0030000  0  3 21 23 11
  21364866.609   -12752885.303 2  -9937288.277 2
  24072449.094     3691427.622 2   2876473.865 1
  22057700.474   -13400329.026 2 -10441803.585 1
 91  7 30  5 41 15.0030000  0  3 21 23 11
  21366761.895   -12742904.365 2  -9929510.911 2
  24079683.379     3729439.405 2   2906093.449 1
  22059849.983   -13389031.154 2 -10433000.059 1
 91  7 30  5 41 30.0030000  0  3 21 23 11
  21368676.672   -12732859.010 2  -9921683.356 2
  24086918.876     3767472.610 2   2935729.677 1
  22062033.372   -13377558.386 2 -10424060.255 1
 91  7 30  5 41 45.0030000  0  3 21 23 11
  21370599.538   -12722748.384 3  -9913804.940 2
  24094165.759     3805527.716 2   2965382.981 1
  22064254.531   -13365910.122 2 -10414983.679 1
 91  7 30  5 42  0.0030000  0  3 21 23 11
  21372537.698   -12712566.688 2  -9905871.148 2
  24101412.940     3843610.914 2   2995058.220 1
  22066505.679   -13354080.521 2 -10405765.818 1
 91  7 30  5 42 15.0030000  0  3 21 23 11
  21374487.254   -12702318.345 3  -9897885.432 2
  24108666.716     3881717.729 2   3024751.803 1
  22068785.594   -13342074.027 2 -10396410.104 1
 91  7 30  5 42 30.0030000  0  3 21 23 11
  21376448.790   -12692006.852 3  -9889850.492 2
  24115922.595     3919844.590 2   3054461.078 1
  22071107.494   -13329894.279 2 -10386919.392 1
 91  7 30  5 42 45.0030000  0  3 21 23 11
  21378423.526   -12681630.149 2  -9881764.740 2
  24123183.866     3957993.659 2   3084187.616 1
  22073457.567   -13317539.155 2 -10377292.035 1
 91  7 30  5 43  0.0030000  0  3 21 23 11
  21380411.149   -12671185.916 3  -9873626.371 2
  24130445.443     3996167.047 2   3113933.092 1
  22075840.918   -13305006.535 2 -10367526.354 1
 91  7 30  5 43 15.0030000  0  3 21 23 11
  21382408.964   -12660681.832 2  -9865441.384 2
  24137710.309     4034357.230 2   3143691.689 1
  22078259.937   -13292304.275 2 -10357628.467 1
 91  7 30  5 43 30.0030000  0  3 21 23 11
  21384420.573   -12650110.225 3  -9857203.763 2
  24144982.373     4072571.853 2   3173469.265 1
  22080708.342   -13279424.725 2 -10347592.482 1
 91  7 30  5 43 45.0030000  0  3 21 23 11
  21386449.570   -12639473.072 3  -9848915.070 2
  24152259.236     4110808.723 2   3203264.174 1
  22083195.120   -13266370.003 2 -10337419.961 1
 91  7 30  5 44  0.0030000  0  3 21 23 11
  21388484.859   -12628769.657 3  -9840574.726 2
  24159538.498     4149068.731 2   3233077.158 1
  22085717.872   -13253139.461 2 -10327110.434 1
 91  7 30  5 44 15.0030000  0  3 21 23 11
  21390534.544   -12617998.830 2  -9832181.870 2
  24166824.060     4187352.895 2   3262908.940 1
  22088266.712   -13239732.141 2 -10316663.191 1
 91  7 30  5 44 30.0030000  0  3 21 23 11
  21392596.218   -12607162.248 3  -9823737.785 2
  24174113.208     4225659.394 2   3292758.234 1
  22090847.023   -13226149.657 2 -10306079.437 1
 91  7 30  5 44 45.0030000  0  3 21 23 11
  21394668.981   -12596260.597 3  -9815242.989 2
  24181407.163     4263987.883 2   3322624.546 1
  22093466.309   -13212392.787 2 -10295359.788 1
 91  7 30  5 45  0.0030000  0  3 21 23 11
  21396756.131   -12585292.027 3  -9806696.042 2
  24188708.605     4302340.104 2   3352509.374 1
  22096114.982   -13198459.953 2 -10284503.055 1
 91  7 30  5 51 45.0030000  0  3 21 23 11
  21457870.022   -12264135.222 3  -9556444.038 2
  24387392.762      177420.86812    138286.372 1
  22180222.649   -12756478.243 2  -9940101.918 1
 91  7 30  5 53 45.0030000  0  3 21 23 11
  21477745.367   -12159693.845 2  -9475061.039 2
  24446867.082      177422.90612    138287.831 1
  22209739.614   -12601375.363 2  -9819242.544 1
 91  7 30  5 54  0.0030000  0  3 21 23 11
  21480287.907   -12146344.497 3  -9464658.896 2
  24454320.524      189174.280 2    147444.776 1
  22213567.066   -12581224.759 2  -9803540.752 1
 91  7 30  5 54 15.0030000  0  3 21 23 11
  21482838.544   -12132928.681 3  -9454205.010 2
  24461771.566      177422.24712    138287.437 1
  22217441.887   -12560904.182 2  -9787706.568 1
 91  7 30  5 55 15.0030000  0  3 21 23 11
  21493177.484   -12078604.722 3  -9411874.640 2
  24491648.887      182660.16412    142368.759
  22233232.258   -12477929.423 2  -9723050.936 1
 91  7 30  5 58 15.0030000  0  3 15 21 11
  23821256.587           0.638 2         0.472 1
  21525380.290   -11909355.606 3  -9279992.294 2
  22283657.943   -12212939.955 2  -9516565.406 1
 91  7 30  5 58 30.0030000  0  3 15 21 11
  23812638.753      -45268.535 2    -35274.243 1
  21528145.277   -11894824.593 3  -9268669.283 2
  22288070.588   -12189775.548 2  -9498515.134 1
 91  7 30  5 58 45.0030000  0  3 15 21 11
  23804036.808      -90482.449 2    -70505.779 1
  21530928.849   -11880222.400 3  -9257290.955 2
  22292505.718   -12166440.388 2  -9480331.914 1
 91  7 30  5 59  0.0030000  0  3 15 21 11
  23795441.459     -135649.234 2   -105700.632 1
  21533715.718   -11865557.642 3  -9245863.861 2
  22296975.626   -12142943.059 2  -9462022.330 1
 91  7 30  5 59 15.0030000  0  3 15 21 11
  23786854.800     -180761.670 2   -140853.073 1
  21536520.876   -11850823.274 3  -9234382.521 2
  22301478.812   -12119276.802 2  -9443581.069 1
 91  7 30  5 59 30.0030000  0  3 15 21 11
  23778281.935     -225823.842 2   -175966.441 1
  21539340.726   -11836023.679 3  -9222850.368 2
  22306013.469   -12095446.283 2  -9425011.888 1
 91  7 30  5 59 45.0030000  0  3 15 21 11
  23769719.262     -270835.170 2   -211040.102 1
  21542163.866   -11821158.572 3  -9211267.182 2
  22310581.107   -12071451.572 2  -9406314.700 1
 91  7 30  6  0  0.0030000  0  3 15 21 11
  23761161.387     -315795.872 2   -246074.416 1
  21545008.304   -11806228.397 3  -9199633.277 2
  22315178.419   -12047293.406 2  -9387490.196 1
 91  7 30  6  0 15.0030000  0  3 15 21 11
  23752617.603     -360703.669 2   -281067.436 1
  21547861.729   -11791231.300 3  -9187947.218 2
  22319810.213   -12022970.035 2  -9368536.908 1
 91  7 30  6  0 30.0030000  0  3 15 21 11
  23744083.714     -405555.860 2   -316017.136 1
  21550730.737   -11776165.004 3  -9176207.240 2
  22324468.688   -11998479.416 2  -9349453.360 1
 91  7 30  6  0 45.0030000  0  3 15 21 11
  23735553.716     -450354.300 2   -350925.007 1
  21553608.443   -11761031.514 3  -9164414.903 2
  22329156.550   -11973823.704 2  -9330241.113 1
 91  7 30  6  1  0.0030000  0  3 15 21 11
  23727039.310     -495099.183 2   -385791.092 1
  21556498.147   -11745831.359 3  -9152570.632 2
  22333879.477   -11949003.782 2  -9310900.909 1
 91  7 30  6  1 15.0030000  0  3 15 21 11
  23718531.500     -539786.943 2   -420612.609 1
  21559406.130   -11730561.298 3  -9140671.877 2
  22338638.082   -11924016.599 2  -9291430.418 1
 91  7 30  6  1 30.0030000  0  3 15 21 11
  23710038.086     -584416.496 2   -455388.860 1
  21562326.415   -11715220.535 3  -9128718.037 2
  22343423.071   -11898861.586 2  -9271829.114 1
 91  7 30  6  1 45.0030000  0  3 15 21 11
  23701562.053     -628987.932 2   -490119.789 1
  21565257.484   -11699809.739 3  -9116709.618 2
  22348241.931   -11873539.699 2  -9252097.793 1
 91  7 30  6  2  0.0030000  0  3 15 21 11
  23693089.615     -673505.528 2   -524808.757 1
  21568202.348   -11684333.226 3  -9104649.997 2
  22353094.671   -11848055.628 2  -9232240.095 1
 91  7 30  6  2 15.0030000  0  3 15 21 11
  23684629.173     -717965.925 2   -559453.223 1
  21571160.692   -11668788.205 3  -9092536.989 2
  22357975.000   -11822406.579 2  -9212253.868 1
 91  7 30  6  2 30.0030000  0  3 15 21 11
  23676179.219     -762369.881 2   -594053.634 1
  21574132.238   -11653175.567 3  -9080371.295 2
  22362887.393   -11796593.861 2  -9192140.052 1
 91  7 30  6  2 45.0030000  0  3 15 21 11
  23667743.662     -806716.928 2   -628609.641 1
  21577115.178   -11637495.212 3  -9068152.825 2
  22367823.475   -11770617.736 2  -9171898.943 1
 91  7 30  6  3  0.0030000  0  3 15 21 11
  23659318.295     -851001.853 2   -663117.428 1
  21580114.600   -11621742.161 3  -9055877.706 2
  22372803.034   -11744473.388 2  -9151526.732 1
 91  7 30  6  3 15.0030000  0  3 15 21 11
  23650897.422     -895226.730 2   -697578.305 1
  21583125.417   -11605918.817 3  -9043547.841 2
  22377804.467   -11718163.533 2  -9131025.598 1
 91  7 30  6  3 30.0030000  0  3 15 21 11
  23642493.642     -939394.182 2   -731994.438 1
  21586148.222   -11590028.207 3  -9031165.538 2
  22382843.680   -11691691.391 2  -9110397.946 1
 91  7 30  6  3 45.0030000  0  3 15 21 11
  23634100.654     -983504.637 2   -766366.213 1
  21589185.415   -11574071.060 3  -9018731.396 2
  22387911.974   -11665058.025 2  -9089644.671 1
 91  7 30  6  4  0.0030000  0  3 15 21 11
  23625712.457    -1027549.198 2   -800686.546 1
  21592237.004   -11558038.751 3  -9006238.692 2
  22393017.436   -11638255.075 2  -9068759.282 1
 91  7 30  6  4 15.0030000  0  3 15 21 11
  23617349.745    -1071534.609 2   -834960.819 1
  21595301.481   -11541938.402 2  -8993692.959 2
  22398141.187   -11611289.845 2  -9047747.449 1
 91  7 30  6  4 30.0030000  0  3 15 21 11
  23608985.838    -1115484.525 2   -869207.514 1
  21598370.756   -11525793.895 3  -8981112.816 2
  22403304.217   -11584186.555 2  -9026628.016 1
 91  7 30  6  4 45.0030000  0  3 15 21 11
  23600632.725    -1159397.193 2   -903425.092 1
  21601453.825   -11509603.834 3  -8968497.173 2
  22408490.326   -11556944.025 2  -9005400.079 1
 91  7 30  6  5  0.0030000  0  3 15 21 11
  23592287.996    -1203229.089 2   -937579.828 1
  21604550.977   -11493325.234 3  -8955812.551 2
  22413709.111   -11529519.632 2  -8984030.472 1
 91  7 30  6  5 15.0030000  0  3 15 21 11
  23583963.962    -1246996.150 2   -971683.974 1
  21607662.822   -11476974.289 3  -8943071.554 2
  22418959.680   -11501929.782 2  -8962531.874 1
 91  7 30  6  5 30.0030000  0  3 15 21 11
  23575640.819    -1290703.874 2  -1005741.857 1
  21610785.766   -11460556.671 3  -8930278.614 2
  22424237.822   -11474180.427 2  -8940909.030 1
 91  7 30  6  5 45.0030000  0  3 15 21 11
  23567336.872    -1334348.732 2  -1039750.869 1
  21613920.392   -11444069.258 3  -8917431.276 2
  22429552.844   -11446268.789 2  -8919159.728 1
 91  7 30  6  6  0.0030000  0  3 15 21 11
  23559041.614    -1377932.828 2  -1073712.421 1
  21617074.807   -11427514.353 3  -8904531.351 2
  22434887.655   -11418197.555 2  -8897286.062 1
 91  7 30  6  6 15.0030000  0  3 15 21 11
  23550761.651    -1421455.612 2  -1107626.215 1
  21620238.217   -11410891.957 3  -8891578.840 2
  22440264.128   -11389966.917 2  -8875288.178 1
 91  7 30  6  6 30.0030000  0  3 15 21 11
  23542489.175    -1464903.549 2  -1141481.766 1
  21623413.624   -11394188.701 3  -8878563.304 2
  22445670.886   -11361563.779 2  -8853155.889 1
 91  7 30  6  6 45.0030000  0  3 15 21 11
  23534239.489    -1508273.363 2  -1175276.349 1
  21626609.710   -11377401.634 3  -8865482.474 2
  22451105.224   -11332985.409 2  -8830887.016 1
 91  7 30  6  7  0.0030000  0  3 15 21 11
  23526003.291    -1551584.927 2  -1209025.565 1
  21629812.392   -11360550.925 3  -8852352.044 2
  22456575.239   -11304252.365 2  -8808497.638 1
 91  7 30  6  7 15.0030000  0  3 15 21 11
  23517765.593    -1594835.762 2  -1242727.479 1
  21633034.261   -11343634.414 3  -8839170.356 2
  22462074.928   -11275362.846 2  -8785986.365 1
 91  7 30  6  7 30.0030000  0  3 15 21 11
  23509549.175    -1638027.758 2  -1276383.505 1
  21636268.127   -11326654.161 3  -8825938.991 2
  22467597.704   -11246319.098 2  -8763354.886 1
 91  7 30  6  7 45.0030000  0  3 15 21 11
  23501340.558    -1681158.509 2  -1309991.906 1
  21639510.080   -11309608.206 3  -8812656.421 2
  22473151.960   -11217119.476 2  -8740601.937 1
